[[{"header":{"parameterUnit":"m.s-1","parameterCategory":1,"la1":30.6,"la2":28.766,"lo1":-90.7593,"lo2":-88.6598,"dx":0.0162,"dy":0.0183,"nx":116,"ny":114,"refTime":"2023-01-11T06:00:00:Z","depth":0,"parameterNumber":2,"parameterNumberName":"U-component_of_WINDS"},"data":[0.0,0.0,0.0,0.0,0.0,0.0,0.0,0.0,0.0,0.0,0.0,0.0,0.0,0.0,0.0,0.0,0.0,0.0,0.0,0.0,0.0,0.0,0.0,0.0,0.0,0.0,0.0,0.0,0.0,0.0,0.0,0.0,0.0,0.0,0.0,0.0,0.0,0.0,0.0,0.0,0.0,0.0,0.0,0.0,0.0,0.0,0.0,0.0,0.0,0.0,0.0,0.0,0.0,0.0,0.0,0.0,0.0,0.0,0.0,0.0,0.0,0.0,0.0,0.0,0.0,0.0,0.0,0.0,0.0,0.0,0.0,0.0,0.0,0.0,0.0,0.0,0.0,0.0,0.0,0.0,0.0,0.0,0.0,0.0,0.0,0.0,0.0,0.0,0.0,0.0,0.0,0.0,0.0,0.0,0.0,0.0,0.0,0.0,0.0,0.0,0.0,0.0,0.0,0.0,0.0,0.0,0.0,0.0,0.0,0.0,0.0,0.0,0.0,0.0,0.0,0.0,0.0,0.0,0.0,0.0,0.0,0.0,0.0,0.0,0.0,0.0,0.0,0.0,0.0,0.0,0.0,0.0,0.0,0.0,0.0,0.0,0.0,0.0,0.0,0.0,0.0,0.0,0.0,0.0,0.0,0.0,0.0,0.0,0.0,0.0,0.0,0.0,0.0,0.0,0.0,0.0,0.0,0.0,0.0,0.0,0.0,0.0,0.0,0.0,0.0,0.0,0.0,0.0,0.0,0.0,0.0,0.0,0.0,0.0,0.0,0.0,0.0,0.0,0.0,0.0,0.0,0.0,0.0,0.0,0.0,0.0,0.0,0.0,0.0,0.0,0.0,0.0,0.0,0.0,0.0,0.0,0.0,0.0,0.0,0.0,0.0,0.0,0.0,0.0,0.0,0.0,0.0,0.0,0.0,0.0,0.0,0.0,0.0,0.0,0.0,0.0,0.0,0.0,0.0,0.0,0.0,0.0,0.0,0.0,0.0,0.0,0.0,0.0,0.0,0.0,0.0,0.0,0.0,0.0,0.0,0.0,0.0,0.0,0.0,0.0,0.0,0.0,0.0,0.0,0.0,0.0,0.0,0.0,0.0,0.0,0.0,0.0,0.0,0.0,0.0,0.0,0.0,0.0,0.0,0.0,0.0,0.0,0.0,0.0,0.0,0.0,0.0,0.0,0.0,0.0,0.0,0.0,0.0,0.0,0.0,0.0,0.0,0.0,0.0,0.0,0.0,0.0,0.0,0.0,0.0,0.0,0.0,0.0,0.0,0.0,0.0,0.0,0.0,0.0,0.0,0.0,0.0,0.0,0.0,0.0,0.0,0.0,0.0,0.0,0.0,0.0,0.0,0.0,0.0,0.0,0.0,0.0,0.0,0.0,0.0,0.0,0.0,0.0,0.0,0.0,0.0,0.0,0.0,0.0,0.0,0.0,0.0,0.0,0.0,0.0,0.0,0.0,0.0,0.0,0.0,0.0,0.0,0.0,0.0,0.0,0.0,0.0,0.0,0.0,0.0,0.0,0.0,0.0,0.0,0.0,0.0,0.0,0.0,0.0,0.0,0.0,0.0,0.0,0.0,0.0,0.0,0.0,0.0,0.0,0.0,0.0,0.0,0.0,0.0,0.0,0.0,0.0,0.0,0.0,0.0,0.0,0.0,0.0,0.0,0.0,0.0,0.0,0.0,0.0,0.0,0.0,0.0,0.0,0.0,0.0,0.0,0.0,0.0,0.0,0.0,0.0,0.0,0.0,0.0,0.0,0.0,0.0,0.0,0.0,0.0,0.0,0.0,0.0,0.0,0.0,0.0,0.0,0.0,0.0,0.0,0.0,0.0,0.0,0.0,0.0,0.0,0.0,0.0,0.0,0.0,0.0,0.0,0.0,0.0,0.0,0.0,0.0,0.0,0.0,0.0,0.0,0.0,0.0,0.0,0.0,0.0,0.0,0.0,0.0,0.0,0.0,0.0,0.0,0.0,0.0,0.0,0.0,0.0,0.0,0.0,0.0,0.0,0.0,0.0,0.0,0.0,0.0,0.0,0.0,0.0,0.0,0.0,0.0,0.0,0.0,0.0,0.0,0.0,0.0,0.0,0.0,0.0,0.0,0.0,0.0,0.0,0.0,0.0,0.0,0.0,0.0,0.0,0.0,0.0,0.0,0.0,0.0,0.0,0.0,0.0,0.0,0.0,0.0,0.0,0.0,0.0,0.0,0.0,0.0,0.0,0.0,0.0,0.0,0.0,0.0,0.0,0.0,0.0,0.0,0.0,0.0,0.0,0.0,0.0,0.0,0.0,0.0,0.0,0.0,0.0,0.0,0.0,0.0,0.0,0.0,0.0,0.0,0.0,0.0,0.0,0.0,0.0,0.0,0.0,0.0,0.0,0.0,0.0,0.0,0.0,0.0,0.0,0.0,0.0,0.0,0.0,0.0,0.0,0.0,0.0,0.0,0.0,0.0,0.0,0.0,0.0,0.0,0.0,0.0,0.0,0.0,0.0,0.0,0.0,0.0,0.0,0.0,0.0,0.0,0.0,0.0,0.0,0.0,0.0,0.0,0.0,0.0,0.0,0.0,0.0,0.0,0.0,0.0,0.0,0.0,0.0,0.0,0.0,0.0,0.0,0.0,0.0,0.0,0.0,0.0,0.0,0.0,0.0,0.0,0.0,0.0,0.0,0.0,0.0,0.0,0.0,0.0,0.0,0.0,0.0,0.0,0.0,0.0,0.0,0.0,0.0,0.0,0.0,0.0,0.0,0.0,0.0,0.0,0.0,0.0,0.0,0.0,0.0,0.0,0.0,0.0,0.0,0.0,0.0,0.0,0.0,0.0,0.0,0.0,0.0,0.0,0.0,0.0,0.0,0.0,0.0,0.0,0.0,0.0,0.0,0.0,0.0,0.0,0.0,0.0,0.0,0.0,0.0,0.0,0.0,0.0,0.0,0.0,0.0,0.0,0.0,0.0,0.0,0.0,0.0,0.0,0.0,0.0,0.0,0.0,0.0,0.0,0.0,0.0,0.0,0.0,0.0,0.0,0.0,0.0,0.0,0.0,0.0,0.0,0.0,0.0,0.0,0.0,0.0,0.0,0.0,0.0,0.0,0.0,0.0,0.0,0.0,0.0,0.0,0.0,0.0,0.0,0.0,0.0,0.0,0.0,0.0,0.0,0.0,0.0,0.0,0.0,0.0,0.0,0.0,0.0,0.0,0.0,0.0,0.0,0.0,0.0,0.0,0.0,0.0,0.0,0.0,0.0,0.0,0.0,0.0,0.0,0.0,0.0,0.0,0.0,0.0,0.0,0.0,0.0,0.0,0.0,0.0,0.0,0.0,0.0,0.0,0.0,0.0,0.0,0.0,0.0,0.0,0.0,0.0,0.0,0.0,0.0,0.0,0.0,0.0,0.0,0.0,0.0,0.0,0.0,0.0,0.0,0.0,0.0,0.0,0.0,0.0,0.0,0.0,0.0,0.0,0.0,0.0,0.0,0.0,0.0,0.0,0.0,0.0,0.0,0.0,0.0,0.0,0.0,0.0,0.0,0.0,0.0,0.0,0.0,0.0,0.0,0.0,0.0,0.0,0.0,0.0,0.0,0.0,0.0,0.0,0.0,0.0,0.0,0.0,0.0,0.0,0.0,0.0,0.0,0.0,0.0,0.0,0.0,0.0,0.0,0.0,0.0,0.0,0.0,0.0,0.0,0.0,0.0,0.0,0.0,0.0,0.0,0.0,0.0,0.0,0.0,0.0,0.0,0.0,0.0,0.0,0.0,0.0,0.0,0.0,0.0,0.0,0.0,0.0,0.0,0.0,0.0,0.0,0.0,0.0,0.0,0.0,0.0,0.0,0.0,0.0,0.0,0.0,0.0,0.0,0.0,0.0,0.0,0.0,0.0,0.0,0.0,0.0,0.0,0.0,0.0,0.0,0.0,0.0,0.0,0.0,0.0,0.0,0.0,0.0,0.0,0.0,0.0,0.0,0.0,0.0,0.0,0.0,0.0,0.0,0.0,0.0,0.0,0.0,0.0,0.0,0.0,0.0,0.0,0.0,0.0,0.0,0.0,0.0,0.0,0.0,0.0,0.0,0.0,0.0,0.0,0.0,0.0,0.0,0.0,0.0,0.0,0.0,0.0,0.0,0.0,0.0,0.0,0.0,0.0,0.0,0.0,0.0,0.0,0.0,0.0,0.0,0.0,0.0,0.0,0.0,0.0,0.0,0.0,0.0,0.0,0.0,0.0,0.0,0.0,0.0,0.0,0.0,0.0,0.0,0.0,0.0,0.0,0.0,0.0,0.0,0.0,0.0,0.0,0.0,0.0,0.0,0.0,0.0,0.0,0.0,0.0,0.0,0.0,0.0,0.0,0.0,0.0,0.0,0.0,0.0,0.0,0.0,0.0,0.0,0.0,0.0,0.0,0.0,0.0,0.0,0.0,0.0,0.0,0.0,0.0,0.0,0.0,0.0,0.0,0.0,0.0,0.0,0.0,0.0,0.0,0.0,0.0,0.0,0.0,0.0,0.0,0.0,0.0,0.0,0.0,0.0,0.0,0.0,0.0,0.0,0.0,0.0,0.0,0.0,0.0,0.0,0.0,0.0,0.0,0.0,0.0,0.0,0.0,0.0,0.0,0.0,0.0,0.0,0.0,0.0,0.0,0.0,0.0,0.0,0.0,0.0,0.0,0.0,0.0,0.0,0.0,0.0,0.0,0.0,0.0,0.0,0.0,0.0,0.0,0.0,0.0,0.0,0.0,0.0,0.0,0.0,0.0,0.0,0.0,0.0,0.0,0.0,0.0,0.0,0.0,0.0,0.0,0.0,0.0,0.0,0.0,0.0,0.0,0.0,0.0,0.0,0.0,0.0,0.0,0.0,0.0,0.0,0.0,0.0,0.0,0.0,0.0,0.0,0.0,0.0,0.0,0.0,0.0,0.0,0.0,0.0,0.0,0.0,0.0,0.0,0.0,0.0,0.0,0.0,0.0,0.0,0.0,0.0,0.0,0.0,0.0,0.0,0.0,0.0,0.0,0.0,0.0,0.0,0.0,0.0,0.0,0.0,0.0,0.0,0.0,0.0,0.0,0.0,0.0,0.0,0.0,0.0,0.0,0.0,0.0,0.0,0.0,0.0,0.0,0.0,0.0,0.0,0.0,0.0,0.0,0.0,0.0,0.0,0.0,0.0,0.0,0.0,0.0,0.0,0.0,0.0,0.0,0.0,0.0,0.0,0.0,0.0,0.0,0.0,0.0,0.0,0.0,0.0,0.0,0.0,0.0,0.0,0.0,0.0,0.0,0.0,0.0,0.0,0.0,0.0,0.0,0.0,0.0,0.0,0.0,0.0,0.0,0.0,0.0,0.0,0.0,0.0,0.0,0.0,0.0,0.0,0.0,0.0,0.0,0.0,0.0,0.0,0.0,0.0,0.0,0.0,0.0,0.0,0.0,0.0,0.0,0.0,0.0,0.0,0.0,0.0,0.0,0.0,0.0,0.0,0.0,0.0,0.0,0.0,0.0,0.0,0.0,0.0,0.0,0.0,0.0,0.0,0.0,0.0,0.0,0.0,0.0,0.0,0.0,0.0,0.0,0.0,0.0,0.0,0.0,0.0,0.0,0.0,0.0,0.0,0.0,0.0,0.0,0.0,0.0,0.0,0.0,0.0,0.0,0.0,0.0,0.0,0.0,0.0,0.0,0.0,0.0,0.0,0.0,0.0,0.0,0.0,0.0,0.0,0.0,0.0,0.0,0.0,0.0,0.0,0.0,0.0,0.0,0.0,0.0,0.0,0.0,0.0,0.0,0.0,0.0,0.0,0.0,0.0,0.0,0.0,0.0,0.0,0.0,0.0,0.0,0.0,0.0,0.0,0.0,0.0,0.0,0.0,0.0,0.0,0.0,0.0,0.0,0.0,0.0,0.0,0.0,0.0,0.0,0.0,0.0,0.0,0.0,0.0,0.0,0.0,0.0,0.0,0.0,0.0,0.0,0.0,0.0,0.0,0.0,0.0,0.0,0.0,0.0,0.0,0.0,0.0,0.0,0.0,0.0,0.0,0.0,0.0,0.0,0.0,0.0,0.0,0.0,0.0,0.0,0.0,0.0,-3.6646,-3.5205,0.0,0.0,0.0,0.0,0.0,0.0,0.0,0.0,0.0,0.0,0.0,0.0,0.0,0.0,0.0,0.0,0.0,0.0,0.0,0.0,0.0,0.0,0.0,0.0,0.0,0.0,0.0,0.0,0.0,0.0,0.0,0.0,0.0,0.0,0.0,0.0,0.0,0.0,-2.8484,-3.0736,-3.3322,-3.322,-3.3051,-3.2747,0.0,0.0,0.0,0.0,0.0,0.0,0.0,0.0,0.0,0.0,0.0,0.0,0.0,0.0,0.0,0.0,0.0,0.0,0.0,0.0,0.0,0.0,0.0,0.0,0.0,0.0,0.0,0.0,0.0,0.0,0.0,0.0,0.0,0.0,0.0,0.0,0.0,0.0,0.0,0.0,0.0,0.0,0.0,0.0,0.0,0.0,0.0,0.0,0.0,0.0,0.0,0.0,0.0,0.0,0.0,0.0,0.0,0.0,0.0,0.0,0.0,0.0,0.0,0.0,0.0,0.0,0.0,0.0,0.0,0.0,-3.7341,-3.6943,0.0,0.0,0.0,0.0,0.0,0.0,0.0,0.0,0.0,0.0,0.0,0.0,0.0,0.0,0.0,0.0,0.0,0.0,0.0,0.0,0.0,0.0,0.0,0.0,0.0,0.0,0.0,0.0,0.0,0.0,0.0,0.0,0.0,0.0,0.0,-2.7384,-2.8263,-2.877,0.0,0.0,-3.7381,-3.8734,-3.8058,0.0,0.0,0.0,0.0,0.0,0.0,0.0,0.0,0.0,0.0,0.0,0.0,0.0,0.0,0.0,0.0,0.0,0.0,0.0,0.0,0.0,0.0,0.0,0.0,0.0,0.0,0.0,0.0,0.0,0.0,0.0,0.0,0.0,0.0,0.0,0.0,0.0,0.0,0.0,0.0,0.0,0.0,0.0,0.0,0.0,0.0,0.0,0.0,0.0,0.0,0.0,0.0,0.0,0.0,0.0,0.0,0.0,0.0,0.0,0.0,0.0,0.0,0.0,0.0,0.0,-3.5689,-3.5971,-3.5983,-3.5844,-3.6172,-3.6921,-3.7444,-3.841,-3.9422,-3.7541,0.0,0.0,0.0,0.0,0.0,0.0,0.0,0.0,0.0,0.0,0.0,0.0,0.0,0.0,0.0,0.0,0.0,0.0,0.0,0.0,0.0,0.0,0.0,0.0,0.0,0.0,0.0,0.0,0.0,0.0,0.0,0.0,-2.857,-2.8739,-3.0108,-3.2679,0.0,0.0,-3.9656,-4.0527,-4.0696,-4.029,0.0,0.0,0.0,0.0,0.0,0.0,0.0,0.0,0.0,0.0,0.0,0.0,0.0,0.0,0.0,0.0,0.0,0.0,0.0,0.0,0.0,0.0,0.0,0.0,0.0,0.0,0.0,0.0,0.0,0.0,0.0,0.0,0.0,0.0,0.0,0.0,0.0,0.0,0.0,0.0,0.0,0.0,0.0,0.0,-3.5148,-3.5835,0.0,0.0,0.0,0.0,0.0,0.0,0.0,0.0,0.0,0.0,0.0,0.0,0.0,-3.5661,-3.7239,-3.7115,-3.7459,-3.8214,-3.762,-3.7398,-3.7476,-3.6803,-3.689,-3.7644,-3.7118,0.0,-3.9059,-3.8788,0.0,0.0,0.0,0.0,0.0,0.0,0.0,0.0,0.0,0.0,0.0,0.0,0.0,0.0,0.0,0.0,0.0,0.0,0.0,0.0,0.0,0.0,0.0,0.0,0.0,0.0,0.0,0.0,0.0,0.0,0.0,-2.96,-2.96,-3.1664,-3.4573,-3.8396,-4.0358,-4.1982,-4.324,-4.4012,-4.435,-4.4316,-4.4012,-4.1711,-3.8125,-3.8125,0.0,0.0,0.0,0.0,0.0,0.0,0.0,0.0,0.0,0.0,0.0,0.0,0.0,0.0,0.0,0.0,0.0,0.0,0.0,0.0,0.0,0.0,0.0,0.0,0.0,0.0,0.0,0.0,0.0,0.0,0.0,0.0,0.0,0.0,0.0,0.0,0.0,0.0,0.0,-3.4595,-3.4991,-3.6134,-3.5517,-3.5169,0.0,0.0,0.0,0.0,0.0,0.0,0.0,0.0,0.0,-3.65,-3.6168,-3.6444,-3.7428,-3.7428,-3.7645,-3.7986,-3.7659,-3.7539,-3.7555,-3.7201,-3.7491,-3.8215,-3.7933,-3.8408,-3.9378,-3.8187,-3.7932,-3.8235,0.0,0.0,0.0,0.0,-3.6705,-3.6468,0.0,0.0,0.0,0.0,0.0,0.0,0.0,0.0,0.0,0.0,0.0,0.0,-3.1106,0.0,0.0,-3.3616,0.0,0.0,0.0,0.0,0.0,0.0,-3.1427,-3.1509,-3.1509,-3.5126,-3.887,-4.2591,-4.3166,-4.4316,-4.6007,-4.6549,-4.6786,-4.6786,-4.6786,-4.4621,-4.0933,-4.0933,-3.9986,0.0,0.0,0.0,0.0,0.0,0.0,0.0,0.0,0.0,0.0,0.0,0.0,0.0,0.0,0.0,0.0,0.0,0.0,0.0,0.0,0.0,0.0,0.0,0.0,0.0,0.0,0.0,0.0,0.0,0.0,0.0,0.0,0.0,0.0,0.0,0.0,0.0,0.0,-3.4571,-3.5025,-3.6546,-3.57,-3.5239,0.0,0.0,0.0,0.0,0.0,0.0,-3.6712,-3.6755,-3.7116,-3.794,-3.75,-3.7464,-3.7913,-3.7913,-3.7823,-3.7674,-3.7674,-3.7584,-3.7404,-3.7404,-3.7714,-3.8315,-3.8315,-3.8643,-3.9094,-3.7971,-3.7822,-3.8291,-3.8345,-3.838,-3.843,-3.8661,-3.8734,-3.8768,0.0,0.0,0.0,0.0,0.0,0.0,0.0,0.0,0.0,0.0,0.0,-3.3182,0.0,0.0,-3.7936,-3.8419,-3.8486,-3.765,0.0,0.0,0.0,-3.4336,-3.4945,-3.5329,-3.5329,-3.9005,-4.1745,-4.3341,-4.55,-4.6616,-4.6752,-4.6786,-4.6786,-4.6786,-4.6786,-4.5466,-4.3206,-4.3206,-4.1955,-3.9927,0.0,0.0,0.0,0.0,0.0,0.0,0.0,0.0,0.0,0.0,0.0,0.0,0.0,0.0,0.0,0.0,0.0,0.0,0.0,0.0,0.0,0.0,0.0,0.0,0.0,0.0,0.0,0.0,0.0,0.0,0.0,0.0,0.0,0.0,0.0,0.0,0.0,0.0,0.0,-3.634,-3.6457,0.0,0.0,0.0,0.0,-3.5396,-3.4911,-3.5409,-3.7237,-3.7353,-3.7948,-3.9266,-3.926,-3.9254,-3.932,-3.932,-3.899,-3.8332,-3.8332,-3.8003,-3.7404,-3.7404,-3.7404,-3.7473,-3.7473,-3.7473,-3.7613,-3.9062,-3.965,-3.9708,-3.976,-3.9808,-3.9886,-4.074,-4.1035,-4.1136,0.0,0.0,0.0,-2.9244,-2.8987,-2.8987,-2.8987,-2.9427,-3.0063,-3.087,-3.3293,-3.5453,0.0,-3.9348,-4.1101,-4.1288,-4.1903,-4.1763,-4.0513,0.0,0.0,0.0,-3.6762,-3.7136,-3.9174,-4.1948,-4.435,-4.6283,-4.7124,-4.7767,-4.8206,-4.8206,-4.8206,-4.8206,-4.8206,-4.7496,-4.6249,-4.5805,-4.4587,-4.2929,-4.2151,-4.0561,0.0,0.0,0.0,0.0,0.0,0.0,0.0,0.0,0.0,0.0,0.0,0.0,0.0,0.0,0.0,0.0,0.0,0.0,0.0,0.0,0.0,0.0,0.0,0.0,0.0,0.0,0.0,0.0,0.0,0.0,0.0,0.0,0.0,0.0,0.0,0.0,0.0,-3.6387,-3.6477,0.0,-3.5906,-3.5802,-3.5709,-3.5513,-3.5773,-3.6289,-3.696,-3.6782,-3.6845,-3.73,-3.7329,-3.7329,-3.7329,-3.7329,-3.7215,-3.6959,-3.6959,-3.7212,-3.766,-3.766,-3.8053,-3.8691,-3.8691,-3.8691,-3.8727,-3.9325,-3.9349,-3.903,-3.903,-3.9728,-4.063,-4.0945,-4.1418,-4.1948,0.0,0.0,0.0,-2.9244,-2.8987,-2.9097,-2.9354,-2.9867,-3.0907,-3.2779,-3.5422,-3.7918,-4.01,-4.2886,-4.4752,-4.5059,-4.5681,-4.5454,-4.3983,0.0,0.0,0.0,0.0,-4.0504,-4.3363,-4.4692,-4.6278,-4.8274,-4.8274,-4.8545,-4.8984,-4.9226,-4.9195,-4.9018,-4.9226,-4.8923,-4.824,-4.7767,-4.6684,-4.5292,-4.4485,-4.2861,-4.0696,0.0,0.0,0.0,0.0,0.0,0.0,0.0,0.0,0.0,0.0,0.0,0.0,0.0,0.0,0.0,0.0,0.0,0.0,0.0,0.0,0.0,0.0,0.0,0.0,0.0,0.0,0.0,0.0,0.0,0.0,0.0,0.0,0.0,0.0,-3.5729,-3.6387,-3.7045,-3.7135,-3.7045,-3.6836,-3.6679,-3.6502,-3.6296,-3.6453,-3.659,-3.6628,-3.6342,-3.6212,-3.6212,-3.6212,-3.6212,-3.6212,-3.6212,-3.6294,-3.6515,-3.6294,-3.6677,-3.7554,-3.7366,-3.7852,-3.887,-3.887,-3.9053,-3.9373,-3.9373,-3.9189,-3.8889,-3.9192,-3.9976,-4.0972,-4.1544,-4.2128,-4.2702,0.0,0.0,-3.0001,-2.9145,-2.9023,-2.9317,-3.0099,-3.0246,-3.1715,-3.5789,-3.7771,-4.0598,-4.5406,-4.7388,-4.8749,-4.9734,-4.9834,-4.8623,-4.5721,-4.6186,0.0,0.0,0.0,0.0,-4.7758,-4.7216,-4.7653,-4.9046,-4.9046,-4.9046,-4.9077,-4.9722,-4.9693,-4.9077,-4.9722,0.0,0.0,0.0,0.0,-4.6786,-4.6075,-4.5331,-4.4344,0.0,0.0,0.0,0.0,0.0,0.0,0.0,0.0,0.0,0.0,0.0,0.0,0.0,0.0,0.0,0.0,0.0,0.0,0.0,0.0,0.0,0.0,0.0,0.0,0.0,0.0,0.0,0.0,0.0,0.0,0.0,0.0,0.0,-3.6447,-3.7075,-3.7674,-3.8332,-3.8387,-3.8656,-3.9277,-3.7769,-3.7023,-3.7738,-3.6727,-3.6136,-3.62,-3.616,-3.6093,-3.6093,-3.6093,-3.6093,-3.6093,-3.6093,-3.6423,-3.6988,-3.6423,-3.6478,-3.7029,-3.6436,-3.6749,-3.7796,-3.7805,-3.8397,-3.9337,-3.9373,-3.9373,-3.9481,-4.0343,-4.069,-4.0927,-4.2583,-4.3229,-4.3443,-3.2779,-3.1891,-3.0935,-2.953,-2.9613,-2.9953,-3.0173,-3.1201,-3.322,-3.6721,-3.9093,-4.2049,-4.6305,-4.8233,-4.9588,-5.0451,-5.0503,-4.9914,-4.8534,0.0,0.0,0.0,0.0,0.0,-4.7728,-4.9188,-5.0142,-5.05,-5.05,-5.05,-5.0535,-5.0716,0.0,0.0,0.0,0.0,0.0,0.0,0.0,0.0,0.0,0.0,-4.6041,0.0,0.0,0.0,0.0,0.0,0.0,0.0,0.0,0.0,0.0,0.0,0.0,0.0,0.0,0.0,0.0,0.0,0.0,0.0,0.0,0.0,0.0,0.0,0.0,0.0,0.0,0.0,0.0,0.0,0.0,0.0,-3.6985,-3.7674,-3.7853,-3.8003,-3.8362,-3.905,-3.8429,-3.8015,-3.8182,-3.7459,-3.7028,-3.7143,-3.6577,-3.6087,-3.5702,-3.4946,-3.4366,-3.3953,-3.3927,-3.3927,-3.3927,-3.434,-3.465,-3.4805,-3.502,-3.5635,-3.6513,-3.5942,-3.6293,-3.7314,-3.7634,-3.7956,-3.8294,-3.9053,-3.9373,-3.9409,-3.9666,-4.0135,-4.0758,-4.1231,-4.2205,-4.3443,-3.3355,-3.2769,-3.2064,-3.0789,-3.0845,-3.1095,-3.1318,-3.2182,-3.426,0.0,-4.023,-4.2893,-4.7645,-4.9334,-5.0435,-5.1242,-5.1316,-5.0949,-5.0141,0.0,0.0,0.0,0.0,-5.0004,-4.9543,-5.0556,-5.1086,-5.1086,-5.1086,-5.1086,-5.1112,0.0,0.0,0.0,0.0,0.0,0.0,0.0,0.0,0.0,0.0,0.0,-4.6684,-4.5635,-4.4553,-4.347,-4.2422,-4.2049,-4.1914,-4.1373,0.0,0.0,0.0,0.0,0.0,0.0,0.0,0.0,0.0,0.0,0.0,0.0,0.0,0.0,0.0,0.0,0.0,0.0,0.0,0.0,0.0,0.0,0.0,0.0,-3.7734,-3.8482,-3.8781,-3.8811,-3.896,-3.9343,-3.8472,-3.8007,-3.8447,-3.7438,-3.686,-3.7061,-3.6402,-3.576,-3.5166,-3.4578,-3.3997,-3.3445,-3.342,-3.3319,-3.3111,-3.3621,-3.4022,-3.4248,-3.4575,-3.5142,-3.5922,-3.5166,-3.5394,-3.6469,-3.6951,-3.7396,-3.7881,-3.8943,-3.9373,-3.9373,0.0,0.0,0.0,0.0,-4.2363,-4.3952,-3.4044,-3.3641,-3.3176,-3.2391,-3.2297,-3.2476,-3.2952,-3.3156,-3.5168,0.0,0.0,-4.3387,-4.8986,-5.0325,-5.1132,-5.194,-5.1977,-5.1646,0.0,0.0,0.0,-5.194,-5.1464,-5.1496,-5.2206,-5.1618,-5.1317,-5.1317,-5.1317,0.0,0.0,0.0,0.0,0.0,0.0,0.0,0.0,0.0,0.0,0.0,0.0,0.0,-4.6752,-4.5393,-4.4005,-4.2625,-4.1339,-4.0865,-4.0959,-4.1508,0.0,0.0,0.0,0.0,0.0,0.0,0.0,0.0,0.0,0.0,0.0,0.0,0.0,0.0,0.0,0.0,0.0,0.0,0.0,0.0,0.0,0.0,0.0,0.0,-3.8093,-3.8721,-3.932,-3.9301,-3.9265,-3.9373,-3.8256,-3.7957,-3.9293,-3.7434,-3.6393,-3.7138,-3.6202,-3.5357,-3.4806,-3.4781,0.0,0.0,0.0,-3.3671,-3.3169,-3.3721,-3.4248,-3.468,-3.4851,-3.5132,-3.5558,-3.45,-3.4517,-3.543,-3.5994,-3.6721,-3.7701,-3.8907,-3.9373,-3.9373,-3.9373,-3.9445,-3.9737,-4.1395,-4.308,-4.4705,-3.4428,-3.3899,-3.3459,-3.2651,-3.2879,-3.3145,-3.3026,-3.4162,-3.648,-4.0556,-4.1662,-4.3975,-4.906,-5.0325,-5.1132,-5.194,-5.1977,-5.1646,0.0,0.0,-5.1646,-5.1997,-5.2495,-5.2834,-5.298,-5.2872,-5.2769,-5.2769,0.0,0.0,0.0,0.0,0.0,0.0,0.0,0.0,0.0,0.0,0.0,0.0,0.0,0.0,-4.7597,-4.6718,-4.6177,-4.5872,-4.5602,-4.55,-4.5432,-4.4993,-4.3829,-4.2584,-4.266,0.0,0.0,0.0,0.0,0.0,0.0,0.0,0.0,0.0,0.0,0.0,0.0,0.0,0.0,0.0,0.0,0.0,0.0,0.0,0.0,-3.8182,-3.8781,-3.926,-3.9409,-3.8657,-3.8435,-3.9301,-3.6972,-3.609,-3.8048,-3.6262,-3.5421,-3.6481,-3.637,-3.5956,-3.5382,-3.5332,-3.5082,-3.4575,-3.4123,-3.3847,-3.3746,-3.4299,-3.4625,-3.4726,-3.5629,0.0,-3.6204,-3.5052,-3.464,-3.4921,-3.5817,-3.633,-3.6643,-3.862,-3.9373,-3.9373,-3.9373,-3.9844,-4.0554,-4.1625,-4.3034,-4.4577,-3.5622,-3.5021,-3.4534,-3.4112,-3.4259,-3.4492,-3.4622,-3.5238,-3.6907,-4.0259,-4.0946,-4.247,-4.6159,-4.7609,-4.8673,-4.9481,-5.0692,0.0,0.0,-5.1536,-5.216,-5.2564,-5.3004,-5.3408,-5.3812,-5.3812,-5.3995,0.0,0.0,0.0,0.0,0.0,0.0,0.0,0.0,0.0,0.0,0.0,0.0,0.0,0.0,0.0,-4.8218,-4.6771,-4.6007,-4.5698,-4.5698,-4.5698,-4.5698,-4.5703,-4.4933,-4.4073,-4.4411,-4.3416,-4.1776,0.0,0.0,0.0,0.0,0.0,0.0,0.0,0.0,0.0,0.0,0.0,0.0,0.0,0.0,-3.7404,-3.7404,0.0,-3.8392,-3.8392,-3.85,-3.8583,-3.8583,-3.7242,-3.6855,-3.8435,-3.6515,-3.5652,-3.6972,-3.5889,-3.5479,-3.6355,-3.6405,-3.6279,-3.5981,-3.5956,-3.5705,-3.5107,-3.4831,-3.4449,-3.3897,-3.468,-3.4956,-3.468,-3.583,-3.6405,-3.638,-3.5768,-3.5524,-3.5579,-3.6563,-3.7021,-3.7137,-3.873,-3.9666,-4.006,-4.006,-4.0554,-4.1459,-4.2236,-4.3612,-4.521,-3.7,-3.6423,-3.5885,-3.5577,-3.5615,-3.5859,-3.6235,-3.6397,-3.7401,-3.9964,-4.0259,-4.1061,-4.3258,-4.4929,-4.6287,0.0,0.0,0.0,0.0,-5.1683,-5.2527,-5.3167,-5.3203,-5.3592,-5.4363,0.0,0.0,0.0,0.0,0.0,0.0,0.0,0.0,0.0,0.0,0.0,0.0,0.0,0.0,0.0,0.0,0.0,-4.8327,-4.6512,-4.5397,-4.4776,-4.4637,-4.4513,-4.4451,-4.5229,-4.4993,-4.4485,-4.5263,-4.4595,-4.3119,-4.0843,-4.0072,0.0,0.0,0.0,0.0,0.0,0.0,0.0,0.0,0.0,-3.7644,-3.7764,-3.7793,-3.7793,-3.7793,-3.8242,-3.8571,-3.8571,-3.8304,-3.8107,-3.8107,-3.6318,-3.5601,-3.7319,-3.6144,-3.546,-3.6209,-3.5814,-3.578,-3.6355,-3.6405,-3.6405,-3.6405,-3.6405,-3.6157,-3.5683,-3.5558,-3.5082,-3.4223,-3.5056,-3.5282,-3.4856,-3.616,-3.6709,-3.673,-3.6655,-3.6651,-3.6657,-3.7467,-3.7919,-3.8182,-3.9017,-3.992,-4.069,-4.069,-4.1425,-4.2526,-4.3138,-4.4542,-4.6312,-3.8007,-3.7777,-3.7238,-3.5769,-3.6077,-3.6519,-3.6311,-3.7537,-3.8904,-4.0141,-4.096,-4.1949,-4.3365,-4.4929,-4.6507,-4.8049,0.0,0.0,-5.0802,-5.2234,-5.3115,-5.3203,-5.3203,-5.3592,0.0,0.0,0.0,0.0,0.0,0.0,0.0,0.0,0.0,0.0,0.0,0.0,0.0,0.0,0.0,0.0,0.0,0.0,-4.7485,-4.6637,-4.5935,-4.532,-4.4803,-4.4147,-4.3673,-4.4451,-4.4181,-4.3673,-4.4451,-4.4626,-4.3982,-4.1579,0.0,-4.0198,-3.7306,-3.6537,-3.6596,-3.6596,-3.6956,-3.7464,0.0,-3.8272,-3.8452,-3.908,-3.92,-3.92,-3.92,-3.926,-3.932,-3.932,-3.9241,-3.9228,-3.9228,-3.7367,-3.6132,-3.6369,-3.5052,-3.4645,-3.6166,-3.5814,-3.578,-3.6355,-3.6405,-3.6405,-3.6405,-3.6405,-3.638,-3.6329,-3.5805,-3.5433,-3.5307,-3.5433,-3.5458,-3.5408,-3.7117,-3.788,-3.7899,-3.7849,-3.7812,-3.7813,-3.782,-3.836,-3.9228,-3.9337,-3.992,-4.069,-4.069,-4.2105,-4.4153,-4.4218,-4.5699,-4.7669,-3.8815,-3.8354,-3.7777,-3.7084,-3.7238,-3.7593,-3.7977,-3.8485,-3.9145,-4.0049,-4.0139,-4.0351,-4.0896,-4.2656,-4.4452,-4.6067,-4.86,-5.0288,-5.0765,-5.2307,-5.3203,-5.3203,0.0,0.0,0.0,0.0,0.0,0.0,0.0,0.0,0.0,0.0,0.0,0.0,0.0,0.0,0.0,0.0,0.0,0.0,0.0,0.0,-4.855,-4.7435,-4.6819,-4.6401,-4.5009,-4.4019,0.0,0.0,-4.3673,-4.3511,-4.4378,-4.4282,-4.3614,-4.218,-4.1067,0.0,-3.8095,-3.7315,-3.7195,-3.8003,-3.8093,-3.8153,-3.8841,-3.899,-3.908,-3.9313,-3.9373,-3.9373,-3.9373,-3.9373,-3.9373,-3.9373,-3.887,-3.8472,-3.8472,-3.7175,-3.6111,-3.5817,-3.5509,-3.5329,-3.5366,-3.5755,-3.6107,-3.638,-3.6405,-3.6405,-3.6405,-3.6405,-3.6405,-3.6405,-3.6132,-3.6006,-3.6006,-3.6006,-3.6006,-3.6031,-3.6769,-3.7448,-3.8126,-3.802,-3.8246,-3.8784,-3.8743,-3.898,-3.9445,-3.9955,-4.0656,-4.1558,-4.2494,-4.4032,-4.5711,-4.5251,-4.6257,-4.7939,-3.9631,-3.9123,-3.87,-3.87,-3.87,-3.8815,-3.9246,-3.9295,-3.9461,-4.0015,-3.9687,-3.9377,-3.9442,-4.076,-4.2286,-4.3901,-4.6801,-4.9003,0.0,-5.183,-5.2968,0.0,0.0,0.0,0.0,0.0,0.0,0.0,0.0,0.0,0.0,0.0,0.0,0.0,0.0,0.0,0.0,0.0,0.0,0.0,0.0,0.0,-4.9111,-4.8036,-4.7425,-4.6838,-4.5043,-4.4079,0.0,0.0,-4.324,-4.3234,-4.4012,-4.3741,-4.2962,-4.2166,-4.0672,-3.9156,-3.8601,0.0,-3.7674,-3.8841,-3.8901,-3.8811,-3.932,-3.9373,-3.9373,-3.9373,-3.9373,-3.9433,-3.9649,-3.9679,-3.9738,-3.9918,-3.9113,-3.8577,-3.878,-3.7557,-3.6674,-3.6701,-3.6742,-3.6401,-3.5532,-3.6012,-3.6405,-3.6405,-3.6405,-3.6405,-3.6405,-3.6405,-3.6546,-3.6849,-3.6546,-3.6785,-3.7614,-3.7087,-3.7087,-3.7614,-3.7756,-3.8289,-3.9084,-3.9117,-3.9448,-3.9948,-3.9948,-4.0094,-4.0389,-4.1036,-4.1931,-4.3105,-4.4453,-4.5991,-4.7368,-4.692,-4.7376,-4.8338,-4.0477,-4.0439,-4.0439,-4.0439,-4.0439,-4.0169,-3.9438,-3.9931,-4.0351,-4.011,-4.0062,-4.0111,-4.0253,-4.0095,-4.0598,-4.2213,-4.4599,-4.6691,-4.8269,-5.0655,-5.238,0.0,0.0,0.0,0.0,0.0,0.0,0.0,0.0,0.0,0.0,0.0,0.0,0.0,0.0,0.0,0.0,0.0,0.0,0.0,0.0,0.0,-4.8343,-4.8287,-4.7441,-4.6061,-4.4844,0.0,0.0,0.0,-4.2929,-4.2455,-4.32,-4.2929,0.0,-4.1286,-3.942,-3.7808,-3.8424,-3.8013,-3.7584,-3.8242,-3.8901,-3.9343,-3.9373,-3.9373,-3.9373,-3.9373,-3.9373,-3.9619,-4.0247,-4.0367,-4.0576,-4.1205,-4.0786,-4.0569,-4.1197,-3.9262,-3.8198,-3.9542,-3.8693,-3.7821,-3.7246,-3.6724,-3.6405,-3.6405,-3.6405,-3.6405,-3.6405,-3.6405,-3.6896,-3.8017,-3.6964,-3.7753,-4.0625,-3.8916,-3.8916,-4.0669,-4.1171,-4.1462,-4.1517,-4.2031,-4.1914,-4.1324,-4.1324,-4.1863,-4.2709,-4.2745,-4.3793,-4.5494,-4.622,-4.7525,-4.9018,-4.9697,-4.9528,-4.9043,-4.147,-4.1354,-4.1162,-4.0593,-4.0516,-4.04,-4.0131,-4.0323,-4.0492,-4.0372,-4.0223,0.0,0.0,0.0,0.0,0.0,-4.3373,-4.5223,-4.7369,-4.9334,0.0,0.0,0.0,0.0,0.0,0.0,0.0,0.0,0.0,0.0,0.0,0.0,0.0,0.0,0.0,0.0,0.0,0.0,0.0,0.0,0.0,0.0,-4.7553,-4.8122,-4.7348,-4.5984,0.0,0.0,0.0,0.0,0.0,0.0,-4.2591,-4.2151,-4.1411,-4.0613,-3.9803,-3.9156,-3.9304,-3.8689,-3.8212,-3.8901,-3.926,-3.9373,-3.9373,-3.9373,-3.9559,-3.9978,-4.0068,-4.0277,-4.0935,-4.1055,-4.1115,-4.1354,-4.1205,-4.1115,-4.1392,-4.0702,-4.0206,-4.0314,-3.9996,-3.9564,-3.9093,-3.8137,-3.754,-3.754,-3.754,-3.7861,-3.8649,-3.8693,-3.8872,-3.9271,-3.9339,-4.0006,-4.1377,-4.0412,-4.0412,-4.1422,-4.1526,-4.1357,-4.0953,-4.1932,-4.2051,-4.1422,-4.2071,-4.2515,-4.2914,-4.4095,-4.4951,-4.5656,-4.7486,-4.8531,-4.9215,-5.0986,-5.1443,-5.1197,0.0,0.0,0.0,0.0,0.0,0.0,0.0,0.0,0.0,0.0,0.0,0.0,0.0,0.0,0.0,0.0,0.0,-4.416,-4.6282,-4.8125,0.0,0.0,0.0,0.0,0.0,0.0,0.0,0.0,0.0,0.0,0.0,0.0,0.0,0.0,0.0,0.0,0.0,0.0,0.0,0.0,0.0,0.0,-4.7113,-4.7352,-4.6617,0.0,0.0,0.0,0.0,0.0,0.0,-4.2286,-4.2286,-4.1779,-4.1159,-4.0969,-4.047,-3.9981,-4.0102,-3.9501,-3.8931,-3.9301,-3.9373,-3.9373,-3.9373,-3.9619,-3.9888,-4.0307,-4.0576,-4.0935,-4.1662,-4.1782,-4.1841,-4.2043,-4.1893,-4.1841,-4.2043,-4.1683,-4.1454,-4.1573,-4.1376,-4.1047,0.0,0.0,-3.9156,-3.8783,-3.8738,-3.9094,-3.9869,-3.9913,-4.0059,-4.049,-4.0463,-4.1295,-4.2962,-4.1959,-4.1846,-4.2621,-4.2357,-4.1989,-4.158,-4.2357,-4.2491,-4.2149,-4.3107,-4.3702,-4.4165,-4.5929,-4.6841,-4.7325,-4.9371,-5.0357,-5.0799,-5.255,-5.3358,-5.3465,0.0,0.0,0.0,0.0,0.0,0.0,0.0,0.0,0.0,0.0,0.0,0.0,0.0,0.0,0.0,0.0,0.0,0.0,-4.4978,0.0,0.0,0.0,0.0,0.0,0.0,0.0,0.0,0.0,0.0,0.0,0.0,0.0,0.0,0.0,0.0,0.0,0.0,0.0,0.0,0.0,0.0,0.0,-4.6892,-4.6177,0.0,0.0,0.0,0.0,0.0,0.0,0.0,-4.2252,-4.2286,-4.1813,-4.1407,-4.2151,-4.1358,-4.0343,-4.0918,-4.045,-3.9751,-3.9617,-3.9577,-3.9541,-3.9541,-3.9984,-4.0397,-4.0457,-4.0905,-4.1572,0.0,0.0,-4.262,-4.32,-4.2821,-4.2641,-4.32,-4.2252,-4.1953,0.0,0.0,0.0,0.0,0.0,-4.1253,-4.0145,-4.0015,-4.0015,-4.0059,-4.0059,-4.0575,-4.1629,-4.0674,-4.1853,-4.5274,-4.3591,-4.327,-4.4317,-4.3698,-4.3369,-4.329,-4.3409,-4.3448,-4.3448,-4.4472,-4.5483,-4.6445,-4.8125,-4.9326,-5.0365,-5.179,-5.2846,-5.3658,-5.4417,-5.515,-5.5685,0.0,0.0,0.0,0.0,0.0,0.0,0.0,0.0,0.0,0.0,0.0,0.0,0.0,0.0,0.0,0.0,0.0,0.0,-4.3267,0.0,0.0,0.0,0.0,0.0,0.0,0.0,0.0,0.0,0.0,0.0,0.0,0.0,0.0,0.0,0.0,0.0,0.0,0.0,0.0,0.0,0.0,0.0,-4.5351,0.0,0.0,0.0,0.0,0.0,0.0,0.0,-4.2375,-4.1576,-4.2117,-4.2151,-4.2151,-4.2895,-4.244,-4.1943,-4.3178,-4.2492,-4.1531,-4.2029,-4.1638,-4.1111,-4.1111,-4.0758,-4.0546,-4.1025,-4.0876,-4.0995,-4.2201,-4.241,-4.262,-4.32,-4.314,0.0,-4.326,-4.3021,0.0,-4.326,0.0,-4.3031,-4.2871,-4.286,0.0,-4.2426,-4.1657,-4.1532,-4.2386,-4.2426,-4.2548,-4.286,-4.3531,-4.4376,-4.5274,-4.4846,-4.4519,-4.4317,-4.4386,-4.4043,-4.3369,-4.4787,-4.5085,-4.451,-4.617,-4.7329,-4.8159,-4.9258,-5.0558,-5.1908,-5.2843,-5.3639,-5.4494,-5.5837,-5.6419,-5.6664,0.0,0.0,0.0,0.0,0.0,0.0,0.0,0.0,0.0,0.0,0.0,0.0,0.0,0.0,0.0,0.0,0.0,0.0,0.0,0.0,0.0,0.0,0.0,0.0,0.0,0.0,0.0,0.0,0.0,0.0,0.0,0.0,0.0,0.0,0.0,0.0,0.0,0.0,0.0,0.0,0.0,0.0,0.0,0.0,0.0,0.0,0.0,0.0,0.0,0.0,0.0,-4.1813,-4.2557,-4.3031,-4.3436,-4.4181,-4.4073,-4.3901,-4.4696,-4.4228,-4.3492,-4.3169,-4.2624,-4.2128,-4.1883,-4.1316,-4.0958,-4.1462,-4.1173,-4.1145,-4.2201,-4.241,-4.262,0.0,0.0,0.0,-4.329,-4.329,-4.329,0.0,-4.329,0.0,-4.329,-4.329,-4.329,-4.329,-4.271,-4.2629,-4.325,-4.329,-4.329,-4.329,-4.4317,-4.5155,-4.5753,-4.6191,-4.601,-4.5185,-4.599,-4.5839,-4.4935,-4.6481,-4.6884,-4.6476,-4.7946,-4.899,-4.982,-5.1447,-5.2609,-5.3484,-5.4575,-5.5228,-5.5705,-5.6577,-5.7091,-5.7449,0.0,0.0,0.0,0.0,0.0,0.0,0.0,0.0,0.0,0.0,-4.3316,-4.3085,0.0,0.0,0.0,0.0,0.0,0.0,0.0,0.0,0.0,0.0,0.0,0.0,0.0,0.0,0.0,0.0,0.0,0.0,0.0,0.0,0.0,0.0,0.0,0.0,0.0,0.0,0.0,0.0,0.0,0.0,0.0,0.0,0.0,0.0,0.0,0.0,0.0,0.0,-4.3378,-4.2589,-4.343,-4.4181,-4.4886,-4.5635,-4.5838,-4.5828,-4.5804,-4.5748,-4.5362,-4.4042,-4.3504,-4.3151,-4.2557,-4.2077,-4.1778,-4.1864,-4.1648,-4.17,-4.2303,-4.2453,-4.2617,-4.321,0.0,-4.329,-4.329,-4.329,-4.329,-4.329,-4.329,-4.329,-4.329,-4.329,-4.329,-4.329,-4.329,-4.329,-4.329,-4.329,-4.3319,-4.3409,-4.4198,-4.524,-4.6503,-4.7527,-4.7577,-4.6724,-4.7997,-4.8063,-4.7146,-4.8253,-4.8691,-4.8619,-4.9714,-5.0557,-5.1426,-5.3748,-5.4774,-5.5039,-5.6381,-5.694,-5.704,-5.704,-5.7449,-5.7997,0.0,0.0,0.0,0.0,0.0,0.0,0.0,0.0,0.0,0.0,-4.4393,-4.3085,0.0,0.0,0.0,0.0,0.0,0.0,0.0,0.0,0.0,0.0,0.0,0.0,0.0,0.0,0.0,0.0,0.0,0.0,0.0,0.0,0.0,0.0,0.0,0.0,0.0,0.0,0.0,0.0,0.0,0.0,0.0,0.0,0.0,0.0,0.0,0.0,0.0,0.0,-4.4021,-4.3322,-4.4822,-4.5399,-4.5635,-4.638,-4.6616,-4.6722,-4.7315,-4.7016,-4.6679,-4.6999,-4.6447,-4.5669,-4.4948,-4.42,0.0,-4.2898,-4.2324,-4.2019,-4.2561,-4.2663,-4.2768,-4.3238,-4.329,-4.329,-4.329,-4.329,-4.329,0.0,-4.329,-4.329,-4.329,-4.329,0.0,-4.329,-4.329,-4.329,-4.329,-4.329,-4.3529,-4.4137,-4.5633,-4.6775,-4.7536,-4.8583,-4.9044,-4.8853,-4.9336,-4.9082,-4.8211,-4.9919,-5.0292,-4.9645,-5.1238,-5.2372,-5.3122,-5.4186,-5.538,-5.651,-5.6786,-5.725,-5.7797,-5.7797,-5.7904,-5.7997,0.0,0.0,0.0,0.0,0.0,0.0,0.0,-4.5893,-4.5893,-4.6778,-4.5855,-4.5086,-4.5086,-4.4662,-4.4393,0.0,0.0,0.0,0.0,0.0,0.0,0.0,0.0,0.0,0.0,0.0,0.0,0.0,0.0,0.0,0.0,0.0,0.0,0.0,0.0,0.0,0.0,0.0,0.0,0.0,0.0,0.0,0.0,0.0,0.0,0.0,0.0,0.0,0.0,0.0,-4.4285,-4.4377,-4.5734,-4.6493,-4.6853,-4.6819,-4.7327,-4.7936,-4.7906,-4.7635,-4.7462,-4.7804,-4.7189,-4.6319,-4.5727,0.0,0.0,-4.3297,-4.2526,-4.2204,-4.2719,-4.2771,0.0,-4.3419,-4.3404,-4.329,-4.329,-4.329,-4.329,-4.329,-4.329,-4.329,-4.329,-4.329,-4.329,-4.329,-4.3771,-4.3849,-4.3329,-4.381,-4.4588,-4.5773,-4.6617,-4.7574,-4.8576,-4.9608,-5.0061,-4.9923,-5.1135,-5.1181,-5.0261,-5.173,-5.2366,-5.2328,-5.3156,-5.4186,-5.5267,-5.6103,-5.6841,-5.7526,-5.7944,-5.8068,-5.7997,-5.7997,-5.7997,-5.7923,0.0,0.0,0.0,0.0,0.0,0.0,0.0,-4.6317,-4.624,-4.7317,-4.7115,-4.6962,-4.7154,-4.6394,-4.5787,0.0,0.0,0.0,0.0,0.0,0.0,0.0,0.0,0.0,0.0,0.0,0.0,0.0,0.0,0.0,0.0,0.0,0.0,0.0,0.0,0.0,0.0,0.0,0.0,0.0,0.0,0.0,0.0,0.0,0.0,0.0,0.0,0.0,0.0,0.0,-4.4702,-4.5408,-4.6442,-4.7141,-4.7539,-4.7149,-4.7868,-4.868,-4.8274,-4.8142,-4.8142,-4.8142,-4.7579,-4.6834,-4.6098,-4.5287,-4.4463,-4.374,-4.3047,-4.2683,-4.317,0.0,-4.338,0.0,-4.3663,-4.3566,-4.3329,-4.329,-4.329,0.0,-4.329,0.0,-4.329,-4.3488,0.0,-4.3615,-4.4548,-4.4743,-4.3974,-4.4668,-4.5699,-4.6965,-4.7341,-4.8027,-4.919,-5.0492,-5.0991,-5.0816,-5.2664,-5.3076,-5.2277,-5.3281,-5.4042,-5.4637,-5.4939,-5.576,-5.6865,-5.7726,-5.8058,-5.8083,-5.8701,-5.8547,-5.802,-5.8119,-5.8031,-5.7796,0.0,0.0,0.0,0.0,0.0,0.0,0.0,-4.6808,-4.7355,-4.8971,-4.7855,-4.7192,-4.7932,-4.7278,-4.6471,0.0,0.0,0.0,0.0,0.0,0.0,0.0,0.0,0.0,0.0,0.0,0.0,0.0,0.0,0.0,0.0,0.0,0.0,0.0,0.0,0.0,0.0,0.0,0.0,0.0,0.0,0.0,0.0,0.0,0.0,0.0,0.0,0.0,0.0,0.0,0.0,-4.614,-4.6952,-4.7,-4.6879,-4.7573,-4.7872,-4.8108,-4.8748,-4.8917,-4.8917,-4.8917,-4.8821,-4.8419,-4.7022,0.0,-4.617,-4.4744,-4.4412,-4.4327,-4.4214,0.0,0.0,0.0,0.0,-4.432,-4.3448,-4.329,-4.329,-4.329,0.0,0.0,-4.329,-4.412,-4.4662,-4.4662,-4.5525,-4.6032,-4.5925,-4.6032,-4.6134,-4.6269,-4.7753,-4.859,-4.8754,-5.0995,-5.2134,-5.2169,-5.3045,-5.345,-5.3382,-5.4136,-5.4544,-5.4665,-5.6067,-5.6793,-5.6969,-5.768,-5.8014,-5.8014,-5.8084,-5.807,-5.8065,-5.8482,-5.8128,-5.7498,0.0,0.0,0.0,0.0,0.0,0.0,-4.6778,-4.6432,-4.6547,-4.774,-4.7317,-4.6817,-4.6624,-4.6778,-4.6547,-4.5671,0.0,0.0,0.0,0.0,0.0,0.0,0.0,0.0,0.0,0.0,-4.3515,-4.3515,-4.3515,0.0,0.0,0.0,0.0,0.0,0.0,0.0,0.0,0.0,0.0,0.0,0.0,0.0,0.0,0.0,0.0,0.0,0.0,0.0,0.0,0.0,0.0,0.0,-4.5369,-4.538,0.0,0.0,-4.7481,-4.7868,-4.7733,-4.8003,-4.8443,-4.8883,-4.868,-4.8071,-4.7022,0.0,-4.638,-4.4919,-4.4615,-4.457,-4.4495,-4.4981,0.0,0.0,0.0,0.0,-4.5122,-4.4555,-4.4434,-4.4974,-4.4013,0.0,0.0,0.0,-4.5264,-4.6416,-4.6831,-4.7306,-4.7868,-4.734,-4.7306,-4.7868,-4.8525,-4.9086,-4.9521,-5.0954,-5.2085,-5.3004,-5.3793,-5.4391,-5.4818,-5.5114,-5.5524,-5.6012,-5.6616,-5.7141,-5.757,-5.7904,-5.7997,-5.8006,-5.7728,-5.7635,-5.7624,-5.7641,-5.7396,-5.7076,0.0,0.0,0.0,0.0,0.0,-4.5893,-4.6778,-4.6394,-4.6278,-4.7163,-4.7038,-4.6663,-4.6047,-4.6317,-4.6278,-4.5671,-4.5594,0.0,0.0,0.0,0.0,0.0,0.0,0.0,0.0,0.0,-4.3515,-4.3515,-4.3515,-4.3515,0.0,0.0,0.0,0.0,0.0,0.0,0.0,0.0,0.0,0.0,0.0,0.0,0.0,0.0,0.0,0.0,0.0,0.0,0.0,0.0,0.0,0.0,0.0,0.0,0.0,0.0,-4.6515,-4.7087,-4.6878,-4.7327,-4.8075,-4.8815,-4.8477,-4.7733,-4.6955,0.0,-4.6109,-4.4886,-4.4615,-4.4615,-4.4615,-4.5102,-4.545,0.0,0.0,-4.6263,-4.6212,-4.5634,-4.5452,-4.6103,0.0,-4.4675,-4.6067,-4.585,-4.6311,-4.7901,-4.7998,-4.8289,-4.8954,-4.8353,-4.8321,-4.8987,-4.9018,-4.9345,-5.0066,-5.0819,-5.1867,-5.3131,-5.4107,-5.4858,-5.5341,-5.5842,-5.6367,-5.6912,-5.6899,-5.717,-5.7629,-5.7373,-5.7299,-5.7294,-5.711,-5.7052,-5.7056,-5.7096,-5.6932,-5.6683,0.0,0.0,0.0,0.0,0.0,0.0,-4.6778,-4.6885,-4.7201,-4.7971,-4.7394,-4.6885,-4.6885,-4.6124,-4.5594,-4.5594,-4.5594,0.0,0.0,0.0,0.0,0.0,0.0,0.0,0.0,0.0,-4.3515,-4.3515,-4.3515,-4.3515,-4.3515,-4.3515,-4.3515,-4.3515,0.0,0.0,0.0,0.0,0.0,0.0,0.0,0.0,0.0,0.0,0.0,0.0,0.0,0.0,0.0,0.0,0.0,0.0,0.0,-4.4307,0.0,0.0,-4.4872,-4.5646,-4.652,-4.7327,-4.8075,-4.8815,-4.8477,-4.7733,-4.6955,-4.6244,-4.55,-4.475,-4.4615,-4.4615,-4.4615,-4.5196,-4.5614,0.0,0.0,0.0,-4.6218,-4.6173,-4.6173,0.0,0.0,-4.6173,-4.6208,-4.7036,-4.7966,-4.8892,-4.9018,-4.8984,-4.9018,-4.8984,-4.8984,-4.9018,-4.9018,-4.9316,-4.9976,-5.0801,-5.1555,-5.221,-5.3765,-5.4507,-5.457,-5.6178,-5.6887,-5.6902,-5.6815,-5.6799,-5.6748,-5.5941,-5.5611,-5.5677,-5.6054,-5.6196,-5.6331,-5.7263,-5.7063,-5.6507,0.0,0.0,0.0,0.0,0.0,0.0,0.0,-4.6009,-4.6086,-4.6355,-4.6163,-4.6009,-4.6009,-4.5787,-4.5594,-4.5594,-4.5594,0.0,0.0,0.0,0.0,0.0,0.0,0.0,0.0,-4.3515,-4.3515,-4.3515,-4.3515,-4.3515,-4.3515,-4.3515,-4.3515,-4.3515,-4.3515,0.0,0.0,0.0,0.0,0.0,0.0,0.0,0.0,0.0,0.0,0.0,0.0,0.0,0.0,0.0,0.0,0.0,0.0,0.0,0.0,-4.3954,-4.4682,-4.5397,-4.5326,-4.6177,-4.7192,-4.7428,-4.7327,-4.6955,-4.621,-4.5872,-4.55,-4.475,-4.4615,-4.4615,-4.4615,-4.5196,-4.5853,-4.629,0.0,0.0,0.0,0.0,0.0,-4.8064,-4.8129,-4.7868,0.0,-4.7998,-4.8671,-4.8987,-4.9018,-4.9018,-4.9018,-4.9018,-4.9018,-4.9018,-4.9018,-4.9316,-5.0004,-5.0801,-5.1766,-5.2949,-5.4,-5.4766,-5.5268,-5.5772,-5.6012,-5.5998,-5.5998,-5.5978,-5.5941,-5.5706,-5.5596,-5.561,-5.5772,-5.5853,-5.5898,-5.6179,-5.6517,-5.6848,0.0,0.0,0.0,0.0,0.0,0.0,0.0,-4.5594,-4.5594,-4.5594,-4.5594,-4.5594,-4.5594,-4.5594,-4.5594,-4.5594,-4.5594,0.0,0.0,0.0,0.0,0.0,0.0,0.0,-4.3515,-4.3515,-4.3662,-4.3938,-4.3938,-4.4121,-4.4415,-4.4415,-4.4415,-4.4378,-4.4085,-4.3938,0.0,0.0,0.0,0.0,0.0,0.0,-4.7113,0.0,0.0,0.0,0.0,0.0,0.0,0.0,0.0,0.0,0.0,0.0,0.0,0.0,-4.4314,-4.5205,-4.4997,-4.566,-4.6447,-4.6718,-4.6583,-4.6244,-4.5805,0.0,0.0,0.0,0.0,-4.5094,-4.5393,-4.5568,-4.6041,-4.7056,-4.7361,0.0,0.0,0.0,0.0,-4.8923,0.0,0.0,-4.8193,-4.8404,-4.8578,-4.8578,-4.8342,-4.8173,-4.8173,-4.8409,-4.8523,-4.8523,-4.9069,-4.9838,-5.0761,-5.1289,-5.2141,-5.3258,-5.407,-5.4715,-5.5133,-5.5486,-5.5596,-5.5596,-5.528,-5.5133,0.0,-5.5002,-5.4937,-5.4966,-5.5312,-5.5663,-5.5966,-5.6137,-5.6742,-5.7473,0.0,0.0,0.0,0.0,0.0,0.0,0.0,-4.5594,-4.5594,-4.5594,-4.5594,-4.5594,-4.5594,-4.5671,-4.571,-4.571,0.0,0.0,0.0,0.0,0.0,0.0,0.0,0.0,-4.3588,-4.3571,-4.3975,-4.4764,-4.4764,-4.5186,-4.5883,-4.5883,-4.5883,-4.5883,-4.5112,-4.4764,-4.4856,0.0,0.0,0.0,0.0,-4.7773,0.0,0.0,0.0,0.0,0.0,0.0,0.0,0.0,0.0,0.0,0.0,0.0,0.0,0.0,0.0,0.0,0.0,-4.5657,-4.5794,-4.6341,-4.6041,-4.5602,-4.5568,0.0,0.0,0.0,0.0,0.0,0.0,-4.6143,-4.6177,-4.7597,-4.7293,0.0,0.0,-4.9018,0.0,0.0,-4.8917,-4.8917,-4.8849,-4.824,-4.7804,-4.7804,-4.7251,-4.6874,-4.6874,-4.7458,-4.7773,-4.7827,-4.9243,-5.062,-5.1909,-5.2004,-5.2377,-5.3093,-5.3922,-5.4326,-5.4326,-5.5097,-5.5449,-5.539,-5.462,-5.4326,-5.4295,-5.4014,-5.3907,-5.3999,-5.4927,-5.5769,-5.6548,-5.6871,-5.755,-5.828,0.0,0.0,0.0,0.0,0.0,0.0,0.0,0.0,0.0,0.0,-4.5594,-4.5594,-4.5594,-4.6201,-4.6586,0.0,0.0,0.0,0.0,0.0,0.0,0.0,0.0,0.0,-4.4415,-4.4415,-4.4819,-4.5626,-4.5626,-4.57,-4.5883,-4.5883,-4.5883,-4.5883,-4.57,-4.5626,-4.5626,-4.581,0.0,0.0,-4.7149,-4.7626,0.0,0.0,0.0,0.0,-4.8306,-4.7883,0.0,0.0,0.0,0.0,0.0,0.0,0.0,0.0,-4.5067,-4.5281,-4.6591,0.0,-4.5196,-4.3708,-4.4113,-4.4688,0.0,0.0,0.0,0.0,0.0,0.0,0.0,0.0,0.0,0.0,0.0,-4.797,-4.8883,0.0,0.0,-4.824,-4.8173,-4.7936,-4.7361,-4.7158,-4.7056,-4.7056,-4.7341,-4.7513,-4.7513,-4.812,-4.8675,-4.9186,-4.9567,-4.9924,-5.0262,-5.0875,-5.1542,-5.227,-5.3115,-5.3482,-5.3482,-5.3702,-5.3775,-5.3739,-5.3555,-5.3482,-5.3561,-5.4424,-5.4802,-5.4932,-5.6421,-5.7142,-5.7298,-5.7063,-5.755,-5.8204,0.0,0.0,0.0,0.0,0.0,0.0,0.0,0.0,0.0,0.0,0.0,-4.5594,-4.5594,-4.6394,0.0,0.0,0.0,0.0,0.0,0.0,0.0,0.0,0.0,-4.5552,-4.5807,-4.5634,-4.5924,-4.6737,-4.6544,-4.6654,-4.6985,-4.6985,-4.6985,-4.6985,-4.6617,-4.625,-4.5957,-4.6691,-4.7058,-4.7149,-4.7883,0.0,0.0,0.0,0.0,0.0,-4.7736,-4.7223,0.0,-4.5626,-4.5076,-4.4562,0.0,0.0,0.0,0.0,-4.4839,-4.4939,-4.5172,-4.5386,-4.5139,-4.364,-4.3946,-4.4412,-4.3606,0.0,0.0,0.0,0.0,0.0,0.0,0.0,0.0,0.0,-4.7665,0.0,0.0,0.0,-4.8748,-4.7973,-4.7906,-4.7631,-4.6853,-4.6481,-4.6423,-4.6697,-4.6707,-4.6812,-4.7098,-4.7736,-4.8432,-4.9167,-4.9503,-4.9813,-5.0177,-5.0649,-5.104,-5.1463,-5.1903,-5.2307,-5.2674,-5.3041,-5.3387,-5.3775,-5.4142,-5.4289,-5.439,-5.5492,-5.5953,-5.6078,-5.7406,-5.8145,-5.84,-5.7801,-5.8127,-5.8665,0.0,0.0,0.0,0.0,0.0,0.0,0.0,0.0,0.0,0.0,0.0,0.0,0.0,0.0,0.0,0.0,0.0,0.0,0.0,0.0,0.0,0.0,-4.7517,-4.7197,-4.7294,-4.6907,-4.7159,-4.8058,-4.7665,-4.781,-4.8489,-4.8489,-4.8416,-4.8269,-4.759,-4.6892,-4.6361,-4.7719,-4.7883,-4.7406,-4.8783,0.0,0.0,0.0,0.0,0.0,0.0,0.0,0.0,-4.4929,-4.4618,-4.4415,-4.3718,0.0,0.0,0.0,0.0,0.0,-4.3465,-4.4223,-4.5101,-4.4401,-4.4342,-4.4248,-4.3707,0.0,0.0,0.0,0.0,0.0,0.0,0.0,0.0,0.0,0.0,0.0,-4.8917,-4.8917,-4.8578,-4.7834,-4.7601,-4.7323,-4.6656,-4.6045,-4.5945,-4.6508,-4.6072,-4.6084,-4.6684,-4.7392,-4.8113,-4.8909,-4.948,-5.0105,-5.0802,-5.0912,-5.0986,-5.0986,-5.1096,-5.1536,-5.2197,-5.2894,-5.3592,-5.4252,-5.5,-5.5337,-5.5386,-5.6399,-5.6846,-5.6926,-5.7889,-5.8704,-5.9204,-5.8396,-5.8627,-5.9127,0.0,0.0,0.0,0.0,0.0,0.0,0.0,0.0,0.0,0.0,0.0,0.0,0.0,0.0,0.0,0.0,0.0,0.0,0.0,0.0,0.0,-5.023,-4.8482,-4.7694,-4.8112,-4.7701,-4.8245,-4.9718,-4.9399,-4.928,-4.939,-4.939,-4.9003,-4.8306,-4.8196,-4.8049,-4.7939,-4.8196,-4.8233,-4.8159,-4.8379,0.0,0.0,0.0,0.0,0.0,0.0,0.0,0.0,-4.4745,-4.4268,-4.3644,-4.3551,0.0,0.0,0.0,0.0,0.0,-4.5279,-4.488,-4.419,-4.3513,-4.3502,-4.3741,0.0,0.0,0.0,0.0,0.0,0.0,0.0,0.0,0.0,0.0,0.0,-4.8883,0.0,0.0,-4.78,-4.7056,-4.6413,-4.5932,-4.5707,-4.5614,-4.577,-4.6409,-4.6868,-4.7455,-4.8227,-4.8894,-4.9638,-5.046,-5.0578,-5.0692,-5.0802,-5.1463,-5.183,-5.183,-5.2527,-5.2894,-5.3041,-5.313,-5.3298,-5.3429,-5.3879,-5.4073,-5.4205,-5.5822,-5.6487,-5.6605,-5.7834,-5.8396,-5.8396,-5.7511,-5.7742,-5.8434,0.0,0.0,0.0,0.0,0.0,0.0,0.0,0.0,0.0,0.0,0.0,0.0,0.0,0.0,0.0,0.0,0.0,0.0,0.0,0.0,-5.0712,-5.0712,-4.9795,-4.9362,-4.961,-4.9433,-4.9668,-5.044,-5.0306,-5.0251,-5.0251,-4.9794,-4.9114,-4.8306,-4.8306,-4.8306,-4.8306,-4.8306,-4.8306,-4.8306,0.0,0.0,0.0,0.0,0.0,0.0,0.0,0.0,0.0,0.0,-4.3791,-4.3515,-4.3515,0.0,0.0,0.0,0.0,0.0,-4.4488,-4.399,-4.3494,-4.4085,-4.4148,0.0,0.0,0.0,0.0,0.0,0.0,0.0,0.0,0.0,-4.7564,-4.8376,0.0,-4.8849,-4.8477,-4.8108,-4.7466,-4.6346,-4.5906,-4.5541,-4.5056,-4.5294,-4.5949,-4.7026,-4.7667,-4.8547,-4.9716,-5.0094,-5.0618,-5.1426,-5.1463,-5.1646,-5.2087,-5.2454,-5.2197,-5.1353,-5.172,-5.2123,-5.2564,-5.3004,-5.3445,-5.3907,-5.4736,-5.5099,-5.5174,-5.6489,-5.7052,-5.7118,-5.7961,-5.8319,-5.8242,-5.7857,-5.7973,-5.8357,0.0,0.0,0.0,0.0,0.0,0.0,0.0,0.0,0.0,0.0,0.0,0.0,0.0,0.0,0.0,0.0,0.0,0.0,0.0,-5.0712,-5.0712,-5.0712,-5.0712,-5.0789,-5.0971,-5.1091,-5.1276,-5.1586,-5.1528,-5.1273,-5.0765,-4.9978,-4.9114,-4.8306,-4.8306,-4.8306,-4.8306,-4.8306,-4.8306,-4.8306,0.0,0.0,0.0,0.0,0.0,0.0,0.0,0.0,0.0,0.0,0.0,0.0,0.0,0.0,0.0,-4.3515,-4.3608,-4.3718,-4.3551,-4.3269,-4.3328,-4.4736,0.0,0.0,0.0,0.0,0.0,0.0,0.0,0.0,0.0,-4.7327,0.0,-4.8815,-4.8849,-4.8545,-4.7973,-4.7601,-4.6989,-4.5838,-4.5534,-4.5337,-4.5049,-4.5615,-4.659,-4.8043,-4.8734,-4.9674,-5.1002,-5.1096,-5.1463,-5.227,-5.227,-5.2564,-5.3167,-5.3203,-5.2601,-5.1353,-5.1353,-5.1683,-5.2307,-5.2931,-5.3555,-5.4164,-5.5218,-5.5677,-5.5865,-5.6672,-5.7194,-5.7493,-5.7881,-5.8127,-5.8319,-5.8511,-5.8588,-5.8704,0.0,0.0,0.0,0.0,0.0,0.0,0.0,0.0,0.0,0.0,0.0,0.0,0.0,0.0,0.0,0.0,0.0,0.0,0.0,-5.0712,-5.0712,-5.0712,-5.0712,-5.1048,-5.1808,-5.2253,-5.3,-5.4134,-5.3826,-5.2697,-5.0765,-4.9978,-4.9114,-4.8306,-4.8306,-4.8306,-4.8306,-4.8306,-4.8306,-4.8306,-4.8306,0.0,0.0,0.0,0.0,0.0,0.0,0.0,0.0,0.0,0.0,0.0,0.0,0.0,-4.3515,-4.3515,-4.4011,-4.4452,-4.3681,-4.3633,-4.3996,-4.4878,0.0,0.0,0.0,0.0,0.0,0.0,0.0,0.0,0.0,-4.8849,-4.8883,-4.8984,-4.8443,-4.7939,-4.7906,-4.6718,-4.5838,-4.5703,-4.5094,-4.5103,-4.6185,-4.7049,-4.8054,-4.9375,-5.0208,-5.1018,-5.1867,-5.1903,-5.227,-5.3115,-5.3115,-5.313,-5.3203,-5.3203,-5.313,-5.302,-5.302,-5.3057,-5.3115,-5.3167,-5.3203,-5.3319,-5.3791,-5.4235,-5.4657,-5.5095,-5.5989,-5.7066,-5.7088,-5.7588,-5.8396,-5.9127,-5.9396,-5.955,0.0,0.0,0.0,0.0,0.0,0.0,0.0,0.0,0.0,0.0,0.0,0.0,0.0,0.0,0.0,0.0,0.0,0.0,0.0,-5.0712,-5.0712,-5.0712,-5.1164,-5.1856,-5.2692,-5.2831,-5.3384,-5.4382,-5.4279,-5.3306,-5.1536,-5.0729,-4.9884,-4.9077,-4.8526,-4.8306,-4.8306,-4.8306,-4.8306,-4.8306,-4.8306,-4.781,0.0,0.0,0.0,0.0,0.0,0.0,0.0,0.0,-4.3515,-4.3515,-4.3515,-4.3515,-4.3515,-4.3515,-4.4085,-4.4635,-4.4342,-4.4693,-4.5137,-4.5178,0.0,0.0,0.0,0.0,0.0,0.0,0.0,0.0,0.0,0.0,-4.9018,-4.9018,-4.8376,-4.7736,-4.7293,-4.6346,-4.5534,-4.506,-4.4784,-4.5132,-4.6453,-4.7245,-4.8472,-5.0352,-5.1151,-5.1903,-5.2711,-5.2747,-5.2894,-5.3167,-5.3203,-5.3445,-5.3959,-5.3959,-5.4216,-5.4693,-5.3702,-5.3203,-5.3203,-5.3203,-5.3633,-5.4385,-5.4815,-5.5519,-5.6463,-5.6894,-5.737,-5.7819,-5.7819,-5.8319,-5.9088,-5.9396,-5.9858,-6.0358,0.0,0.0,0.0,0.0,0.0,0.0,0.0,0.0,0.0,0.0,0.0,0.0,0.0,0.0,0.0,0.0,0.0,0.0,-5.0712,-5.0712,-5.0712,-5.0712,-5.1471,-5.2308,-5.3164,-5.339,-5.393,-5.4813,-5.4548,-5.3592,-5.1977,-5.1169,-5.0362,-4.9574,-4.8673,-4.8306,-4.8306,-4.8306,-4.8306,-4.8269,-4.7993,-4.7443,0.0,0.0,0.0,0.0,0.0,0.0,0.0,0.0,-4.3515,-4.3515,-4.3515,-4.3515,-4.3515,-4.3515,-4.4085,-4.4618,-4.4378,-4.5296,0.0,0.0,0.0,0.0,0.0,0.0,0.0,0.0,0.0,0.0,0.0,0.0,0.0,0.0,-4.8037,-4.7293,-4.6549,-4.5805,-4.5162,-4.4682,-4.4776,-4.5451,-4.6872,-4.7829,-4.9159,-5.1179,-5.1971,-5.2637,-5.3167,-5.3203,-5.3314,-5.3592,-5.3592,-5.3959,-5.4766,-5.4766,-5.506,-5.5574,-5.4473,-5.3959,-5.3959,-5.3959,-5.4515,-5.551,-5.5745,-5.6554,-5.7614,-5.7927,-5.8304,-5.8704,-5.8973,-5.9435,-5.9896,-5.9896,-6.0281,-6.0781,0.0,0.0,0.0,0.0,0.0,0.0,0.0,0.0,-5.023,-5.0634,-4.9999,0.0,0.0,0.0,0.0,0.0,0.0,0.0,-5.0712,-5.0712,-5.0712,-5.0712,-5.1471,-5.2308,-5.3164,-5.3974,-5.4813,-5.5697,-5.4828,-5.3592,-5.1977,-5.1169,-5.0362,0.0,0.0,0.0,0.0,-4.8306,-4.8306,-4.8233,-4.7406,-4.6599,-4.581,0.0,0.0,0.0,0.0,0.0,0.0,0.0,-4.3515,-4.3515,-4.3515,-4.3515,-4.3515,-4.3515,-4.4085,-4.4562,-4.3754,-4.5296,0.0,0.0,0.0,0.0,0.0,0.0,0.0,0.0,0.0,0.0,0.0,0.0,0.0,-4.8007,-4.7293,-4.6549,-4.5805,-4.506,-4.4615,-4.4615,-4.5142,-4.6089,-4.7581,-4.9003,-5.0417,-5.1899,-5.2747,-5.3203,-5.3203,-5.3203,-5.3592,-5.4363,-5.4399,-5.4803,-5.5596,-5.5633,-5.5611,-5.5611,-5.5611,-5.5611,-5.5596,-5.5596,-5.5845,-5.6312,-5.6312,-5.6819,-5.7638,-5.7638,-5.8387,-5.9588,-6.0473,-6.0781,-6.0781,-6.0781,-6.0781,-6.0781,0.0,0.0,0.0,0.0,0.0,0.0,0.0,0.0,-5.0472,-5.0313,-5.0325,0.0,0.0,0.0,0.0,0.0,0.0,0.0,-5.0712,-5.0712,-5.0712,-5.0712,-5.1471,-5.2,-5.2269,-5.2558,-5.3403,-5.4768,-5.4533,-5.3592,-5.1977,-5.1169,0.0,-4.9574,0.0,0.0,0.0,-4.8306,-4.7957,-4.7443,-4.7186,-4.6269,-4.5039,0.0,0.0,0.0,0.0,0.0,0.0,0.0,0.0,0.0,-4.3515,-4.3515,-4.3608,-4.4195,-4.5315,-4.6342,-4.6085,-4.781,0.0,0.0,0.0,0.0,0.0,0.0,0.0,0.0,0.0,0.0,0.0,0.0,0.0,-4.8714,-4.7631,-4.6718,-4.6481,-4.5393,-4.4615,-4.4615,-4.5616,-4.6907,-4.8384,-4.9816,-5.1252,-5.2742,-5.3078,-5.3203,-5.3203,-5.3739,-5.4142,-5.4399,-5.495,-5.5611,-5.6455,-5.6455,-5.6748,-5.7299,-5.7299,-5.6675,-5.5596,-5.5596,-5.6348,-5.7632,-5.7632,-5.847,-5.9842,-5.9842,-6.0083,-6.0435,-6.0704,-6.0781,-6.0781,-6.0781,-6.0781,-6.0781,0.0,0.0,0.0,0.0,0.0,0.0,-5.0087,-5.0313,-5.0451,-5.0347,-5.0391,-5.0336,0.0,0.0,0.0,-5.0347,-5.0573,-5.0712,-5.0712,-5.0712,-5.0712,-5.0712,-5.1471,-5.1987,-5.2176,-5.2207,-5.2601,-5.3403,-5.3118,-5.2454,-5.1499,-5.0692,0.0,-4.9574,0.0,-4.8306,0.0,-4.7957,-4.7553,-4.7039,-4.6415,-4.5572,-4.4654,0.0,0.0,0.0,0.0,0.0,0.0,0.0,0.0,0.0,-4.3515,-4.3718,-4.4085,-4.4562,-4.5828,-4.7039,-4.6709,0.0,0.0,0.0,0.0,0.0,0.0,0.0,0.0,0.0,0.0,0.0,-4.9018,-4.9018,0.0,-4.8612,-4.7564,-4.6801,-4.6715,-4.5712,-4.5035,-4.5294,-4.659,-4.7924,-4.9151,-5.0557,-5.1894,-5.3109,-5.3203,-5.3314,-5.3665,-5.4142,-5.4693,-5.5317,-5.5831,-5.6455,-5.7262,-5.7299,-5.7519,-5.7997,-5.7997,-5.7483,-5.6528,-5.6528,-5.7233,-5.8425,-5.8807,-5.966,-6.0781,-6.0781,-6.0781,-6.0781,-6.0781,-6.0781,-6.0781,-6.0781,-6.0781,-6.0858,0.0,0.0,0.0,0.0,0.0,0.0,-4.9936,-5.0012,-5.0183,-5.0594,-5.0325,-5.023,0.0,0.0,0.0,-5.0614,-5.0692,-5.0712,-5.0712,-5.0712,-5.0712,-5.0712,-5.1395,-5.2017,-5.245,-5.2412,-5.2175,-5.1735,-5.1121,-5.0789,-5.0715,0.0,-4.9574,-4.9463,0.0,-4.8269,0.0,-4.7406,-4.7003,-4.6746,-4.5278,-4.4672,-4.4525,-4.3791,0.0,0.0,0.0,0.0,0.0,0.0,0.0,0.0,-4.3515,-4.4011,-4.4635,-4.4654,-4.5828,-4.6929,-4.6214,0.0,0.0,0.0,0.0,0.0,0.0,0.0,0.0,-4.8907,0.0,-4.9049,-4.9077,-4.9015,-4.8781,-4.8139,-4.7386,-4.6828,-4.6738,-4.604,-4.58,-4.6318,-4.7787,-4.8995,-4.9739,-5.1186,-5.2417,-5.313,-5.3298,-5.3628,-5.4363,-5.4546,-5.528,-5.6748,-5.6859,-5.7262,-5.7997,-5.7997,-5.7997,-5.7997,-5.7997,-5.802,-5.8051,-5.802,-5.8282,-5.8815,-5.9776,-6.043,-6.0781,-6.0781,-6.0781,-6.0781,-6.0781,-6.0781,-6.0819,-6.0896,-6.0935,-6.105,0.0,0.0,0.0,0.0,0.0,0.0,-4.9155,-4.9431,-4.9754,-5.0171,-5.0159,-5.0135,-5.0206,-5.0451,0.0,-5.023,-5.0504,-5.0712,-5.0712,-5.0712,-5.0712,-5.0712,-5.0866,-5.1146,-5.1574,-5.0976,-5.0585,-5.0488,-5.095,-5.086,0.0,0.0,0.0,-4.8563,0.0,-4.7976,0.0,-4.7186,-4.6379,-4.5168,-4.4838,-4.4305,-4.3718,-4.3588,-4.3515,0.0,0.0,0.0,0.0,0.0,0.0,0.0,-4.3515,-4.3608,-4.3864,-4.4525,-4.5828,-4.7076,0.0,0.0,0.0,0.0,0.0,0.0,0.0,0.0,0.0,-4.9533,-4.9376,-4.9168,-4.9693,-4.9376,-4.8951,-4.8815,-4.807,-4.75,-4.7457,-4.6739,-4.6246,-4.6365,-4.8276,-4.9631,-4.9775,-5.1697,-5.3004,-5.3188,-5.3812,-5.4216,-5.4399,-5.5611,-5.6455,-5.6785,-5.7409,-5.7813,-5.7997,-5.7997,-5.7997,-5.7997,-5.7997,-5.8172,-5.8528,-5.8186,-5.8461,-5.9302,-6.0231,-6.0722,-6.0781,-6.0781,-6.0781,-6.0781,-6.0781,-6.0781,-6.0858,-6.1562,-6.1831,-6.1947,0.0,0.0,0.0,0.0,0.0,0.0,0.0,0.0,-5.0243,-4.9855,-4.9832,-4.9898,-5.0099,-5.0302,0.0,0.0,-5.0594,-5.0712,-5.0712,-5.0712,-5.0712,-5.0712,-5.0712,-5.0796,-5.1009,-5.0599,-5.029,-5.0101,-5.0316,-5.0043,0.0,0.0,0.0,-4.8306,0.0,-4.7846,0.0,-4.6269,-4.5461,-4.4654,-4.4268,-4.3864,-4.3515,-4.3515,-4.3515,-4.3515,-4.3515,0.0,0.0,0.0,0.0,0.0,0.0,0.0,-4.4158,-4.4599,-4.5828,0.0,0.0,0.0,0.0,0.0,0.0,0.0,0.0,0.0,-4.8223,-5.0072,-5.02,-5.0118,-5.0445,-5.0258,-5.0011,-5.0011,-4.8998,-4.8355,-4.86,-4.7619,-4.7143,-4.7861,-4.9343,-5.0423,-5.0845,-5.2285,-5.3203,-5.3203,-5.3959,-5.4583,-5.495,-5.6124,-5.6969,-5.7373,-5.7776,-5.7997,-5.7997,-5.7997,-5.7997,-5.7997,-5.7997,-5.8238,-5.8713,-5.8693,-5.8951,-5.9441,-6.0146,-6.0597,-6.0781,-6.0781,-6.0781,-6.0781,-6.0781,-6.105,-6.1485,-6.1947,-6.232,-6.2781,0.0,0.0,0.0,0.0,0.0,0.0,0.0,0.0,0.0,-4.9529,-4.9401,-4.9547,-4.9949,-5.0037,-5.0218,0.0,0.0,0.0,-5.0712,-5.0712,-5.0712,-5.0712,-5.0712,-5.0712,-5.0712,-5.0712,-5.0493,-5.0111,-4.9573,-4.8936,0.0,0.0,0.0,-4.8306,0.0,0.0,0.0,-4.5388,-4.4745,-4.4452,-4.3754,-4.3515,-4.3515,-4.3515,-4.3515,-4.3515,-4.3515,-4.3515,-4.3515,-4.3515,0.0,0.0,0.0,0.0,-4.4488,-4.4488,0.0,0.0,0.0,0.0,0.0,0.0,0.0,0.0,0.0,0.0,-4.8378,-5.0439,-5.0891,-5.097,-5.1205,-5.1164,-5.1086,-5.1086,-4.9877,-4.915,-4.9617,-4.8461,-4.8047,-4.9441,-5.0288,-5.1132,-5.1903,-5.2747,-5.3203,-5.3203,-5.4069,-5.4913,-5.5537,-5.6492,-5.7299,-5.796,-5.7997,-5.7997,-5.7997,-5.7997,-5.7997,-5.7997,-5.8334,-5.8714,-5.9163,-5.9807,-5.9857,-5.9543,-6.0044,-6.0456,-6.0781,-6.0781,-6.0896,-6.1012,-6.1012,-6.155,-6.2332,-6.2486,-6.2935,-6.3666,0.0,0.0,0.0,0.0,0.0,0.0,0.0,0.0,0.0,0.0,-4.8978,-4.9139,-4.9532,-4.9898,-5.0135,-5.0171,-5.0493,-5.0712,-5.0712,0.0,0.0,-5.0712,-5.0712,-5.0712,-5.0712,-5.0712,-5.0493,-5.0111,-4.8994,0.0,0.0,0.0,0.0,0.0,0.0,0.0,0.0,0.0,0.0,-4.3662,-4.3551,-4.3515,-4.3515,-4.3515,-4.3515,-4.3515,-4.3515,-4.3515,-4.3515,-4.3515,-4.3515,0.0,0.0,0.0,-4.3644,-4.3644,0.0,0.0,0.0,0.0,0.0,0.0,0.0,0.0,0.0,0.0,-4.893,0.0,-5.0422,-5.046,-5.173,-5.1494,-5.1086,-5.1086,-5.0222,-4.9595,-4.9686,-4.8837,-4.8522,-4.9481,-5.0288,-5.1132,-5.1903,-5.2747,-5.3203,-5.3203,-5.4583,-5.5486,-5.5574,-5.7005,-5.7886,-5.7997,-5.7997,-5.7997,-5.7997,-5.7997,-5.7997,-5.802,-5.9602,-6.051,-6.092,-6.2178,-6.1756,-6.0006,-6.0495,-6.0746,-6.0781,-6.0781,-6.1243,-6.1947,-6.1947,-6.2435,-6.3243,-6.3974,-6.432,-6.4551,0.0,0.0,0.0,0.0,0.0,0.0,0.0,0.0,0.0,0.0,0.0,-4.8709,-4.9123,-4.9326,-4.9603,-5.0049,-5.0241,-5.0462,-5.0702,-5.0712,-5.0712,-5.0712,-5.025,-4.9971,-4.9971,-4.9471,-4.8963,-4.8351,-4.7826,0.0,0.0,-4.8604,-4.8196,0.0,0.0,0.0,0.0,0.0,0.0,0.0,0.0,0.0,0.0,0.0,0.0,-4.4158,-4.4158,-4.3864,-4.3515,-4.3515,-4.3515,-4.3515,-4.3515,0.0,0.0,0.0,-4.3754,0.0,0.0,0.0,0.0,0.0,0.0,0.0,0.0,0.0,-4.8762,-4.9881,-4.9934,-5.0067,-5.1188,-5.1121,-5.0941,-5.0941,-5.0221,-4.9628,-4.9628,-4.8882,-4.8783,-5.0105,-5.0582,-5.1279,-5.2564,-5.3004,-5.3408,-5.3849,-5.495,-5.5794,-5.6235,-5.7373,-5.7997,-5.7997,-5.7997,-5.7997,-5.7997,-5.8437,-5.8914,-5.9378,-6.073,-6.1449,-6.1637,-6.2768,-6.263,-6.1544,-6.1979,-6.2204,-6.2204,-6.2204,-6.2435,-6.2781,-6.2781,-6.3281,-6.4089,-6.4474,-6.4897,-6.5397,0.0,0.0,0.0,0.0,0.0,0.0,0.0,0.0,0.0,0.0,0.0,-4.8402,-4.8709,0.0,0.0,0.0,-4.9708,-4.9716,-4.991,-4.9981,-5.0048,-5.0048,-4.9433,-4.9086,-4.9086,-4.8432,-4.7813,-4.7277,0.0,0.0,-4.7662,-4.7684,-4.6948,0.0,-4.7498,0.0,0.0,0.0,0.0,0.0,0.0,0.0,0.0,0.0,0.0,0.0,-4.5002,-4.4488,-4.3791,-4.3791,-4.3644,-4.3515,-4.3515,-4.3368,0.0,0.0,0.0,0.0,0.0,0.0,0.0,0.0,0.0,0.0,0.0,0.0,-4.8489,0.0,-4.928,-4.9444,-5.0068,-5.0508,-5.0802,-5.0802,-5.0105,-4.961,-4.961,-4.904,-4.9187,-5.0618,-5.0986,-5.1646,-5.3057,-5.3203,-5.3555,-5.4326,-5.5133,-5.5941,-5.6748,-5.7556,-5.7997,-5.7997,-5.7997,-5.8107,-5.829,-5.9098,-5.9905,-6.0737,-6.1721,-6.2332,-6.2557,-6.3528,-6.3757,-6.3408,-6.3322,-6.3308,-6.3308,-6.3308,-6.3435,-6.3628,-6.3628,-6.4166,-6.4936,-6.4936,-6.532,-6.5897,0.0,0.0,0.0,0.0,0.0,0.0,0.0,0.0,0.0,0.0,0.0,-4.8306,-4.8344,-4.8656,-4.8895,-4.8945,-4.8626,-4.8211,-4.7781,-4.8076,-4.824,-4.824,-4.8202,0.0,-4.8163,-4.8125,-4.8068,0.0,0.0,0.0,-4.594,-4.6008,-4.5553,-4.4874,-4.7241,-4.6985,-4.4764,0.0,0.0,0.0,0.0,0.0,0.0,0.0,0.0,0.0,-4.5847,-4.5333,-4.4635,-4.4635,-4.4121,-4.3515,-4.3515,-4.2983,-4.2359,0.0,0.0,0.0,0.0,0.0,0.0,0.0,0.0,0.0,0.0,0.0,-4.8306,-4.8379,-4.8379,-4.8379,-4.8416,-4.9738,-5.0802,-5.0802,-5.0105,-4.961,-4.961,-4.9574,-4.9867,-5.0692,-5.1463,-5.227,-5.3093,-5.3203,-5.3555,-5.4326,-5.5133,-5.5941,-5.6748,-5.7556,-5.7997,-5.7997,-5.7997,-5.8364,-5.9111,-5.9942,-6.075,-6.1545,-6.2565,-6.3483,-6.4313,-6.5303,-6.5743,-6.5641,-6.4,-6.3308,-6.3308,-6.3308,-6.3782,-6.4551,-6.4551,-6.5051,-6.582,-6.582,-6.5859,-6.5897,0.0,0.0,0.0,0.0,0.0,0.0,0.0,0.0,0.0,0.0,0.0,0.0,0.0,-4.8421,-4.8622,-4.8898,-4.8544,-4.8016,-4.7315,-4.7579,-4.7771,-4.7771,-4.7501,-4.7317,-4.7317,-4.6778,0.0,0.0,0.0,-4.517,-4.5387,-4.5224,-4.5259,-4.5553,-4.7462,-4.7241,-4.5516,-4.6012,0.0,0.0,0.0,0.0,0.0,0.0,0.0,-4.8215,-4.7645,0.0,-4.6948,-4.6415,-4.57,-4.4929,-4.4415,-4.3351,-4.2213,-4.1699,0.0,0.0,0.0,0.0,0.0,0.0,0.0,0.0,0.0,-4.7388,-4.7516,-4.7516,-4.792,-4.8306,-4.8306,-4.8783,-4.9187,-4.9187,-4.8967,-4.8967,-4.9537,-4.961,-5.0088,-5.1389,-5.183,-5.2307,-5.3093,-5.3203,-5.3739,-5.506,-5.5427,-5.6161,-5.7483,-5.785,-5.7997,-5.7997,-5.7997,-5.8621,-5.9979,-6.0786,-6.1557,-6.2365,-6.3426,-6.4087,-6.4426,-6.5456,-6.5897,-6.5859,-6.5243,-6.4974,-6.4974,-6.4974,-6.5166,-6.5436,-6.5436,-6.5628,-6.5897,-6.5897,-6.5897,-6.5897,0.0,0.0,0.0,0.0,0.0,0.0,0.0,0.0,0.0,0.0,0.0,0.0,0.0,0.0,-4.8292,-4.8286,-4.79,-4.7333,-4.652,-4.6518,-4.659,-4.659,-4.6277,-4.6184,-4.6302,-4.5736,0.0,0.0,0.0,0.0,0.0,-4.4801,-4.5002,-4.5553,-4.6911,-4.6764,0.0,0.0,0.0,-4.6471,0.0,0.0,-4.9297,0.0,0.0,-5.0381,-5.0068,-4.9591,-4.9077,-4.8507,-4.7609,-4.6581,-4.5755,-4.4048,-4.2103,0.0,0.0,0.0,0.0,0.0,0.0,0.0,0.0,0.0,0.0,0.0,-4.7186,-4.7443,-4.792,-4.8306,-4.8306,-4.8306,-4.8416,-4.8673,-4.8746,-4.904,-4.9884,-5.0235,-5.0822,-5.1867,-5.2234,-5.2601,-5.313,-5.3203,-5.3885,-5.5464,-5.5596,-5.6308,-5.7923,-5.7997,-5.8107,-5.84,-5.8657,-5.9465,-6.0786,-6.1594,-6.2291,-6.2805,-6.3702,-6.4217,-6.4407,-6.5245,-6.5717,-6.5897,-6.5897,-6.5897,-6.5897,-6.5897,-6.5897,-6.5897,-6.5897,-6.5897,-6.5897,-6.5897,-6.5897,-6.5897,0.0,0.0,0.0,0.0,0.0,0.0,0.0,0.0,0.0,-5.1977,0.0,0.0,0.0,0.0,0.0,-4.7187,-4.6678,-4.6036,-4.5249,-4.4796,-4.4599,-4.4599,-4.4612,-4.4763,-4.5094,-4.5105,0.0,0.0,0.0,0.0,0.0,0.0,-4.4672,0.0,-4.5516,-4.5443,-4.4709,0.0,-4.5682,-4.7039,0.0,-4.869,-5.0875,0.0,-5.2087,-5.2234,-5.2968,-5.2234,-5.0949,-5.0875,-4.9738,-4.8233,-4.7296,0.0,0.0,0.0,0.0,0.0,0.0,0.0,0.0,0.0,0.0,0.0,-4.7462,0.0,-4.7296,-4.8122,-4.8306,-4.8306,-4.8343,-4.8343,-4.86,-4.9463,-4.9574,-4.9867,-5.0692,-5.1463,-5.1977,-5.2013,-5.2711,-5.3203,-5.3203,-5.3203,-5.3885,-5.5464,-5.5596,-5.6308,-5.7923,-5.7997,-5.8364,-5.9148,-5.9979,-6.0786,-6.1594,-6.2401,-6.278,-6.2805,-6.334,-6.3892,-6.4445,-6.4904,-6.5403,-6.5897,-6.5897,-6.5897,-6.5897,-6.5897,-6.5897,-6.5897,-6.5897,-6.5897,-6.5897,-6.5897,-6.5897,-6.5897,0.0,0.0,0.0,0.0,0.0,-5.3203,-5.3203,-5.3004,-5.2674,0.0,0.0,0.0,0.0,0.0,0.0,-4.7978,-4.6814,-4.5813,-4.5317,-4.4603,-4.4161,-4.4161,-4.4428,-4.465,-4.4751,-4.4751,0.0,0.0,0.0,0.0,0.0,0.0,0.0,0.0,-4.4775,-4.5031,-4.5169,-4.6672,0.0,-4.5718,-4.9828,-5.1242,0.0,-5.3004,-5.4473,-5.528,-5.3775,-5.4032,-5.4803,-5.2454,-5.0986,-4.9554,-4.6379,0.0,0.0,0.0,0.0,0.0,-3.9019,0.0,0.0,0.0,0.0,0.0,0.0,0.0,-4.6617,-4.8012,-4.8306,-4.8489,-4.9114,-4.871,-4.86,-4.9463,-4.9077,-4.915,-5.0618,-5.0986,-5.1573,-5.2747,-5.3078,-5.3203,-5.3203,-5.3203,-5.3885,0.0,-5.5596,-5.6308,-5.7923,-5.7997,-5.8364,-5.9148,-5.9979,-6.0786,-6.1594,-6.2401,-6.278,-6.2805,-6.334,-6.3892,-6.4445,-6.4904,-6.5403,-6.5897,-6.5897,-6.5897,-6.5897,-6.5897,-6.5897,-6.5897,-6.5897,-6.5897,-6.5897,-6.5897,-6.5897,-6.5897,0.0,0.0,-5.3203,-5.3203,-5.3203,-5.3203,-5.3203,-5.3203,-5.3041,0.0,0.0,0.0,0.0,0.0,0.0,0.0,-4.7396,-4.6611,-4.6548,-4.5423,-4.4734,-4.4734,-4.4643,-4.4612,-4.4612,-4.4612,0.0,0.0,0.0,0.0,0.0,0.0,0.0,0.0,0.0,0.0,0.0,0.0,0.0,0.0,-4.9571,0.0,-5.2013,-5.3739,-5.5207,-5.6198,-5.5464,-5.6124,-5.6969,-5.4766,-5.3041,-5.1169,-4.7388,0.0,0.0,0.0,0.0,0.0,0.0,0.0,0.0,0.0,0.0,0.0,0.0,0.0,0.0,0.0,-4.8783,-4.8563,-4.9463,-4.8893,-4.8489,-4.8967,-4.893,-4.9297,-5.0618,-5.1096,-5.1646,-5.2601,-5.3004,-5.3203,-5.3203,-5.3203,-5.3885,-5.5464,-5.5596,-5.6308,-5.7923,-5.7997,-5.851,-5.9685,-6.0162,-6.097,-6.2108,-6.2585,-6.278,-6.2805,-6.3097,-6.3659,-6.4389,-6.4679,-6.5215,-6.5897,-6.5897,-6.5897,-6.5897,-6.5897,-6.5897,-6.5897,-6.5897,-6.5897,-6.5897,-6.5897,-6.5897,-6.5897,0.0,0.0,-5.3203,-5.3314,-5.3335,-5.3371,-5.3445,-5.3408,-5.3335,0.0,0.0,0.0,0.0,0.0,0.0,0.0,-4.8265,-4.7906,-4.8258,-4.6773,-4.5854,-4.5782,-4.5102,-4.4687,-4.4612,-4.4612,-4.4612,0.0,0.0,0.0,0.0,0.0,0.0,0.0,-4.419,-4.4124,0.0,0.0,0.0,-4.9664,-4.8397,-5.0011,-5.3335,-5.4509,-5.539,-5.6161,-5.7519,-5.8107,-5.8107,-5.7042,-5.5133,-5.2653,-4.9554,-4.7462,0.0,0.0,-4.1442,0.0,0.0,0.0,0.0,0.0,0.0,0.0,0.0,0.0,0.0,0.0,-4.9003,-4.8196,-4.917,-4.86,-4.8049,-4.8159,-4.8893,-4.9721,-5.0435,-5.1206,-5.1777,-5.1867,-5.2491,-5.2983,-5.3167,-5.3203,-5.3849,-5.5354,-5.5611,-5.6381,-5.7923,-5.7997,-5.8731,-6.0346,-6.0419,-6.119,-6.278,-6.278,-6.278,-6.278,-6.278,-6.3317,-6.4294,-6.4351,-6.4904,-6.5808,-6.5885,-6.5897,-6.5897,-6.5897,-6.5897,-6.5897,-6.5897,-6.5897,-6.5897,-6.5897,-6.5897,-6.5897,-5.3203,-5.3203,-5.3387,-5.4069,-5.4179,-5.4363,-5.5023,-5.4583,-5.4179,-5.4179,0.0,0.0,0.0,0.0,0.0,0.0,0.0,-4.8244,-4.8282,-4.7057,-4.6188,-4.5819,-4.5631,-4.5253,-4.4612,-4.4612,-4.4612,-4.4612,0.0,0.0,0.0,0.0,0.0,0.0,0.0,0.0,0.0,0.0,0.0,-5.161,-5.2564,-5.3078,-5.357,-5.6946,-5.834,-5.8474,-5.8107,-5.8841,-5.9501,-5.6748,-5.4656,-5.2858,-5.0912,-4.9187,0.0,-4.4966,0.0,0.0,0.0,0.0,0.0,0.0,0.0,0.0,0.0,-4.2433,-4.3571,0.0,-4.6104,-4.5828,-4.7296,-4.6911,-4.6581,-4.7223,-4.8012,-4.86,-4.8783,-4.9517,-5.0308,-5.0949,-5.1169,-5.1793,-5.3057,-5.3203,-5.3592,-5.4546,-5.5831,-5.7005,-5.796,-5.7997,-5.8731,-6.0346,-6.0419,-6.119,-6.278,-6.278,-6.278,-6.278,-6.278,-6.3121,-6.3766,-6.4197,-6.4696,-6.5276,-6.5703,-6.5897,-6.5897,-6.5897,-6.5897,-6.5897,-6.5897,-6.5897,-6.5897,-6.5897,-6.5897,-6.5897,-5.3203,-5.3518,-5.3922,-5.4326,-5.473,-5.5133,-5.5559,-5.5244,-5.4987,0.0,0.0,0.0,0.0,0.0,0.0,0.0,0.0,0.0,-4.9475,-4.816,-4.733,-4.7302,-4.6518,-4.5873,-4.5468,-4.505,-4.4776,-4.4612,0.0,0.0,0.0,0.0,0.0,0.0,0.0,0.0,0.0,0.0,-4.879,-5.2013,-5.2454,-5.3335,-5.4656,-5.7079,-5.7973,-5.7973,-5.7997,-5.8253,-5.8364,-5.6748,-5.5133,-5.3518,-5.1903,-5.0545,-4.9077,0.0,-4.4764,-4.2983,0.0,0.0,0.0,-3.8799,0.0,0.0,0.0,0.0,-4.2506,-4.5333,-4.5259,-4.5168,-4.6782,-4.6434,-4.6177,-4.6966,-4.7773,-4.8012,-4.7205,-4.9224,-5.0802,-5.0802,-5.1169,-5.172,-5.2527,-5.2601,-5.3261,-5.4876,-5.6124,-5.7152,-5.796,-5.7997,-5.8731,-6.0346,-6.0419,-6.119,-6.278,-6.278,-6.278,-6.278,-6.278,-6.3086,-6.3593,-6.4176,-6.4643,-6.513,-6.5676,-6.5897,-6.5897,-6.5897,-6.5897,-6.5897,-6.5897,-6.5897,-6.5897,-6.5897,-6.5897,-6.5897,-5.3203,-5.3849,-5.4436,-5.4583,-5.528,-5.5868,-5.6014,-5.5904,-5.5757,0.0,0.0,0.0,0.0,0.0,0.0,0.0,0.0,0.0,-5.1018,-4.9619,-4.9008,-4.9503,-4.755,-4.6572,-4.6805,-4.5699,-4.4966,-4.4714,0.0,0.0,0.0,0.0,0.0,0.0,0.0,0.0,0.0,0.0,0.0,-5.2545,-5.2275,-5.3922,-5.6602,-5.7409,-5.7629,-5.7556,-5.807,-5.7703,-5.7079,-5.7409,-5.6345,-5.4656,-5.3335,-5.216,0.0,0.0,0.0,0.0,0.0,0.0,0.0,0.0,0.0,-3.9386,0.0,0.0,0.0,0.0,0.0,0.0,0.0,0.0,0.0,-4.6049,0.0,0.0,0.0,-4.915,0.0,-5.0435,-5.0875,-5.1463,-5.194,-5.2417,-5.3445,-5.5207,-5.6418,-5.7262,-5.774,-5.7923,-5.8731,-6.0346,-6.0419,-6.119,-6.278,-6.278,-6.278,-6.278,-6.278,-6.3038,-6.3476,-6.3978,-6.45,-6.5003,-6.5527,-6.5808,-6.5897,-6.5897,-6.5897,-6.5897,-6.5897,-6.5897,-6.5897,-6.5897,-6.5897,-6.5897,-5.3203,-5.3849,-5.462,-5.5317,-5.6124,-5.6895,-5.7629,-5.7116,-5.6418,0.0,0.0,0.0,0.0,0.0,0.0,0.0,0.0,-5.3461,-5.238,-5.1446,-5.1308,-5.212,-4.8793,-4.7453,-4.8571,-4.6309,-4.5066,-4.5022,0.0,0.0,0.0,0.0,0.0,0.0,-4.6973,0.0,0.0,0.0,-5.2799,0.0,-5.6506,-5.8253,-5.9942,-6.075,-6.0603,-5.9905,-5.9294,-5.8547,-5.807,-5.9501,-5.8437,-5.6492,-5.6308,-5.473,-5.2139,-4.825,0.0,0.0,0.0,0.0,0.0,0.0,-3.9753,0.0,0.0,0.0,-3.9276,-4.0341,0.0,0.0,0.0,0.0,0.0,0.0,0.0,0.0,-4.592,-4.8196,-4.9574,-4.871,-4.8673,-4.9591,-5.1793,-5.3922,-5.4987,-5.4583,-5.6602,-5.7593,-5.6969,-5.7593,-5.8731,-6.0346,-6.0419,-6.119,-6.278,-6.278,-6.278,-6.278,-6.278,-6.283,-6.2929,-6.3453,-6.3958,-6.45,-6.4987,-6.5446,-6.5897,-6.5897,-6.5897,-6.5897,-6.5897,-6.5897,-6.5897,-6.5897,-6.5897,-6.5897,-5.3203,-5.4216,-5.5207,-5.5559,-5.6638,-5.7593,-5.796,-5.8107,-5.7923,0.0,0.0,0.0,0.0,-5.7538,-5.7323,-5.8276,-5.6874,-5.5548,-5.4783,-5.3764,0.0,-5.257,-4.9897,-4.8692,-4.9184,-4.6758,-4.5606,-4.5791,-4.5462,0.0,0.0,0.0,0.0,0.0,-4.8793,0.0,-5.2769,0.0,-5.6294,0.0,-5.8666,-6.0236,-6.2365,-6.0786,-6.0015,-5.9685,-5.9294,-5.8694,-5.8107,-5.8767,-5.8327,-5.7409,-5.6969,0.0,0.0,-5.0986,0.0,0.0,0.0,0.0,0.0,0.0,0.0,0.0,-4.0377,0.0,-3.8799,0.0,0.0,0.0,0.0,0.0,0.0,0.0,-4.3167,0.0,0.0,0.0,0.0,0.0,0.0,0.0,-5.1169,-5.3078,-5.4069,-5.3739,-5.5941,-5.6969,-5.6161,-5.7299,-5.8731,-6.0346,-6.0419,-6.119,-6.278,-6.278,-6.278,-6.278,-6.278,-6.278,-6.283,-6.368,-6.4178,-6.4426,-6.5215,-6.569,-6.5897,-6.5897,-6.5897,-6.5897,-6.5897,-6.5897,-6.5897,-6.5897,-6.5897,-6.5897,-5.3261,0.0,-5.5596,-5.5596,-5.6932,-5.7997,-5.7997,-5.8694,-5.8891,-5.8107,-5.8674,-5.9329,-5.976,-5.867,-5.8746,-6.0791,-5.9228,-5.8107,-5.7974,-5.6504,-5.5541,-5.529,-5.203,-5.0482,-5.097,-4.8036,-4.6365,-4.6159,-4.567,0.0,0.0,0.0,0.0,0.0,0.0,-5.1911,-5.4918,0.0,-5.859,-6.1166,-6.0344,-6.1408,-6.3135,-6.0786,-5.9869,-5.9795,-5.9368,-5.8841,-5.8364,-5.8584,-5.8364,-5.7923,-5.7593,-5.7005,-5.5941,0.0,0.0,0.0,-4.7498,0.0,0.0,0.0,0.0,0.0,0.0,0.0,0.0,0.0,0.0,0.0,0.0,0.0,0.0,0.0,0.0,0.0,0.0,0.0,0.0,0.0,0.0,0.0,0.0,0.0,0.0,0.0,0.0,-5.6675,-5.5669,-5.6932,-5.851,-6.0346,-6.0419,-6.119,-6.278,-6.278,-6.278,-6.278,-6.278,-6.278,-6.283,-6.3766,-6.4255,-6.4426,-6.5329,-6.5768,-6.5897,-6.5897,-6.5897,-6.5897,-6.5897,-6.5897,-6.5897,-6.5897,-6.5897,-6.5897,-5.3371,-5.4509,-5.5596,-5.5596,-5.6932,-5.7997,-5.7997,-5.8694,-5.8891,-5.8107,-5.9378,-6.0826,-6.2135,-6.1098,-6.1463,-6.4369,-6.2444,-6.1384,-6.2151,-5.9683,-5.9447,-6.2231,-5.573,-5.2968,-5.4982,-5.0551,-4.7418,-4.5808,-4.6136,0.0,0.0,0.0,0.0,0.0,0.0,-5.1373,-5.5714,-5.6558,-5.8624,-6.1424,-6.1988,-6.2003,-6.1667,-6.1557,-6.152,-6.13,-5.9735,-5.9184,-5.9258,-6.0052,-5.9281,-5.8143,-5.8914,-5.7519,0.0,0.0,0.0,0.0,0.0,-4.882,-4.8086,-4.7186,-4.5792,-4.4654,-4.4599,0.0,-4.1022,0.0,0.0,0.0,0.0,0.0,0.0,0.0,0.0,0.0,0.0,0.0,0.0,0.0,0.0,0.0,0.0,0.0,0.0,0.0,0.0,0.0,-5.5706,-5.6381,-5.7923,-6.0309,-6.0419,-6.119,-6.278,-6.278,-6.278,-6.278,-6.278,-6.278,-6.2805,-6.3363,-6.3913,-6.4407,-6.49,-6.5417,-6.5897,-6.5897,-6.5897,-6.5897,-6.5897,-6.5897,-6.5897,-6.5897,-6.5897,-6.5897,-5.484,-5.5647,-5.6235,-5.5684,-5.6932,-5.7997,-5.7997,-5.8694,-5.9074,-5.8817,-5.9996,-6.127,-6.2289,-6.1765,-6.2191,-6.4362,-6.3272,-6.2578,-6.2842,-6.226,-6.1777,-6.1375,-5.8327,-5.6022,-5.476,-5.2143,-4.9559,-4.6921,-4.7091,-4.6506,0.0,0.0,0.0,0.0,0.0,-5.353,0.0,0.0,0.0,0.0,-6.3973,-6.3832,-6.387,-6.2218,-6.1594,-6.152,-6.097,-6.0786,-6.0676,-5.9869,-5.9942,-6.0162,-5.8841,-5.8217,-5.7556,-5.5427,-5.3849,-5.2674,-5.2123,-5.1756,-5.1353,-5.0545,-4.9517,-4.8453,-4.7352,-4.4819,0.0,0.0,0.0,0.0,0.0,0.0,0.0,0.0,0.0,0.0,0.0,0.0,0.0,0.0,0.0,0.0,0.0,0.0,0.0,0.0,0.0,0.0,0.0,-5.5574,-5.7116,-5.9515,-6.0126,-6.0933,-6.1998,-6.2548,-6.278,-6.278,-6.278,-6.299,-6.334,-6.3892,-6.4407,-6.4883,-6.5403,-6.5717,-6.5897,-6.5897,-6.5897,-6.5897,-6.5897,-6.5897,-6.5897,-6.5897,-6.5897,-6.5897,-5.5669,-5.6235,-5.6638,-5.6124,-5.7116,-5.8107,-5.84,-5.9134,-5.9648,-5.9648,-6.06,-6.1567,-6.2327,-6.2006,-6.2507,-6.4379,-6.3778,-6.3726,-6.4804,-6.4055,-6.365,-6.3899,-6.1232,-5.9097,-5.7677,-5.471,-5.1925,-4.936,-4.8178,-4.6926,0.0,0.0,0.0,0.0,0.0,-5.378,-5.7154,-5.9294,-6.2338,0.0,0.0,-6.4702,-6.5157,-6.2761,-6.2511,-6.3172,-6.1998,-6.1594,-6.141,-6.0089,-6.0309,-6.086,-5.9024,-5.8804,-5.8817,-5.6969,-5.5721,-5.4803,-5.4216,-5.4069,-5.3849,-5.3041,-5.2013,-5.1022,-5.0215,-4.7535,-4.5223,0.0,0.0,0.0,0.0,0.0,0.0,0.0,0.0,0.0,0.0,0.0,0.0,0.0,0.0,0.0,0.0,0.0,0.0,0.0,0.0,0.0,0.0,0.0,-5.6418,-5.9111,-5.9979,-6.0786,-6.1594,-6.2401,-6.278,-6.278,-6.278,-6.3086,-6.3593,-6.4176,-6.4643,-6.513,-6.5676,-6.5897,-6.5897,-6.5897,-6.5897,-6.5897,-6.5897,-6.5897,-6.5897,-6.5897,-6.5897,-6.5897,-5.5868,-5.6345,-5.6859,-5.6859,-5.7519,-5.8327,-5.9074,-5.9905,-6.0419,-6.0456,-6.1117,-6.1821,-6.2395,-6.2022,-6.2509,-6.4569,-6.4018,-6.4823,-6.7728,-6.4973,-6.5103,-6.9306,-6.4393,-6.2094,-6.3168,-5.8119,-5.4575,-5.2805,-4.946,-4.7148,0.0,0.0,0.0,0.0,-4.8951,0.0,-5.6983,-5.7934,-6.0769,-6.4539,-6.4188,-6.4719,-6.5501,-6.3331,-6.4207,-6.6124,-6.283,-6.1667,-6.152,-6.075,-6.0456,-6.0309,-5.9515,-5.9258,-5.9111,-5.8327,-5.807,-5.7666,-5.6161,-5.5684,-5.5427,-5.4656,-5.3298,-5.238,-5.3115,-5.0802,-4.8526,0.0,0.0,0.0,0.0,0.0,0.0,0.0,0.0,0.0,0.0,0.0,0.0,0.0,0.0,0.0,0.0,0.0,0.0,0.0,0.0,0.0,0.0,0.0,-5.589,-5.8964,-5.9905,-6.0713,-6.1484,-6.2328,-6.2743,-6.2768,-6.283,-6.3097,-6.3637,-6.4178,-6.4679,-6.5161,-6.5676,-6.5897,-6.5897,-6.5897,-6.5897,-6.5897,-6.5897,-6.5897,-6.5897,-6.5897,-6.5897,-6.5897,-5.7519,-5.7556,-5.7703,-5.7703,-5.8364,-5.8964,-5.9148,-5.9905,-6.0603,-6.119,-6.1484,-6.2019,-6.3155,-6.3163,-6.3305,-6.3869,-6.372,-6.4091,-6.5256,-6.5106,-6.5343,-6.6246,-6.5862,-6.4405,-6.186,-6.0815,-5.8265,-5.404,-5.1869,-4.9677,-4.7507,0.0,0.0,0.0,0.0,0.0,-5.6165,-5.828,-6.1058,-6.4159,-6.566,-6.6701,-6.716,-6.5156,-6.5474,-6.6629,-6.3604,-6.2511,-6.2365,-6.1557,-6.13,-6.1153,-6.0346,-6.0089,-6.0052,-5.9832,-5.8951,-5.8033,-5.8253,-5.6969,-5.5559,-5.5317,-5.4987,-5.4546,-5.4179,-5.2968,-5.1793,-5.1169,-4.9591,0.0,0.0,0.0,0.0,0.0,0.0,0.0,0.0,0.0,0.0,0.0,0.0,0.0,0.0,0.0,0.0,0.0,0.0,0.0,0.0,0.0,0.0,-5.7373,-5.8804,-5.9588,-5.9832,-6.1227,-6.1924,-6.1924,-6.2919,-6.368,-6.4197,-6.4696,-6.5215,-6.569,-6.5821,-6.5897,-6.5897,-6.5897,-6.5897,-6.5897,-6.5897,-6.5897,-6.5897,-6.5897,-6.5897,-6.5897,-5.8107,-5.829,-5.84,-5.807,-5.9245,-6.0126,-5.9795,-6.0937,-6.2119,-6.2933,-6.3043,-6.3331,-6.4093,-6.3817,-6.3609,-6.3609,-6.3808,-6.4346,-6.5229,-6.5142,-6.5492,-6.6489,-6.6715,-6.6026,-6.4436,-6.3258,-6.0666,-5.6703,-5.4241,-5.1548,-4.8663,0.0,0.0,0.0,0.0,-5.3741,-5.7088,-6.0742,-6.3246,-6.4848,-6.6473,-6.729,0.0,-6.55,-6.5483,-6.6185,-6.3676,-6.278,-6.2732,-6.2291,-6.2108,-6.1998,-6.119,-6.0933,-6.086,-6.0493,-5.9758,-5.9061,-5.9148,-5.8217,-5.7079,-5.6748,-5.6381,-5.6014,-5.5537,-5.4546,-5.3702,-5.3592,-5.2013,-5.0692,-5.0949,0.0,0.0,0.0,0.0,0.0,0.0,0.0,0.0,0.0,0.0,0.0,0.0,0.0,0.0,0.0,0.0,0.0,0.0,0.0,0.0,-5.6257,-5.8877,-5.9758,-5.8694,-6.1704,-6.2658,-6.1618,-6.2969,-6.3892,-6.4445,-6.4904,-6.5403,-6.5897,-6.5897,-6.5897,-6.5897,-6.5897,-6.5897,-6.5897,-6.5897,-6.5897,-6.5897,-6.5897,-6.5897,-6.5897,-5.8033,-5.8657,-5.8964,-5.829,-6.0052,-6.1374,-6.0676,-6.2299,-6.3847,-6.4532,-6.4644,-6.4666,-6.4696,-6.404,-6.3615,-6.3702,-6.4119,-6.4931,-6.6151,-6.5131,-6.5534,-6.7881,-6.7025,-6.701,-6.8125,-6.518,-6.2435,-6.0012,-5.6549,0.0,0.0,0.0,0.0,0.0,0.0,0.0,0.0,-6.382,-6.5897,-6.5974,-6.6898,-6.7128,-6.6755,-6.5187,-6.4953,-6.5217,-6.3599,-6.2892,-6.278,-6.278,-6.278,-6.2695,-6.1998,-6.1741,-6.163,-6.0933,-6.0639,-6.0419,-5.9698,-5.9441,-5.9134,-5.8217,-5.7556,-5.7079,-5.6859,-5.5794,-5.5023,-5.5611,-5.3995,-5.2894,-5.4289,-5.1389,0.0,0.0,0.0,0.0,0.0,0.0,0.0,0.0,0.0,0.0,0.0,0.0,0.0,0.0,0.0,0.0,0.0,0.0,0.0,-5.5412,-5.8951,-5.9942,-5.818,-6.2475,-6.3686,-6.1765,-6.3096,-6.3954,-6.4407,-6.4971,-6.5446,-6.5897,-6.5897,-6.5897,-6.5897,-6.5897,-6.5897,-6.5897,-6.5897,-6.5897,-6.5897,-6.5897,-6.5897,-6.5897,-5.8253,-5.8657,-5.9148,-5.9001,-6.0456,-6.1557,-6.141,-6.2279,-6.3015,-6.3162,-6.3162,-6.3318,-6.3773,-6.3705,-6.3787,-6.4197,-6.437,-6.4666,-6.5312,-6.5112,-6.5182,-6.5666,-6.649,-6.6926,-6.6751,-6.5907,-6.4512,-6.2615,-5.8538,-5.5549,0.0,0.0,0.0,0.0,0.0,0.0,-6.0589,-6.432,0.0,-6.6013,-6.7552,-6.7359,-6.6077,-6.5767,-6.5198,-6.4577,-6.4253,-6.355,-6.278,-6.278,-6.278,-6.278,-6.2658,-6.2585,-6.2585,-6.2413,-6.1924,-6.1374,-6.1227,-6.0713,-5.9832,-5.8364,-5.84,-5.8414,-5.7116,-5.7116,-5.7226,-5.6712,-5.5721,-5.5082,-5.5317,-5.3188,0.0,0.0,0.0,0.0,0.0,0.0,0.0,0.0,0.0,0.0,0.0,0.0,0.0,0.0,0.0,0.0,0.0,0.0,0.0,0.0,-5.5941,0.0,0.0,0.0,-6.1704,-6.2585,-6.3734,-6.4294,-6.4407,-6.5344,-6.5808,-6.5897,-6.5897,-6.5897,-6.5897,-6.5897,-6.5897,-6.5897,-6.5897,-6.5897,-6.5897,-6.5897,-6.5897,-6.5897,-5.8694,-5.9281,-5.9808,-5.9808,-6.1153,-6.2071,-6.1667,-6.2291,-6.3076,-6.3807,-6.3891,-6.4007,-6.4242,-6.3854,-6.3829,-6.4332,-6.4608,-6.4987,-6.5461,-6.5527,-6.5527,-6.5527,-6.655,-6.7203,-6.7443,-6.7266,-6.5936,-6.3308,-6.1269,-5.8511,0.0,0.0,0.0,0.0,0.0,-6.005,0.0,0.0,-6.7359,-6.6628,-6.7898,-6.7398,-6.5885,-6.5583,-6.5019,-6.4351,-6.4059,-6.3476,-6.278,-6.278,-6.278,-6.278,-6.278,-6.278,-6.278,-6.278,-6.2548,-6.2218,-6.2218,-6.163,-6.0823,-6.0052,-5.9832,-5.9501,-5.8327,-5.8033,-5.7886,-5.7483,-5.6455,-5.5464,-5.506,-5.4032,-5.2968,-5.2197,0.0,0.0,0.0,0.0,0.0,0.0,0.0,0.0,0.0,0.0,0.0,0.0,0.0,0.0,0.0,0.0,0.0,0.0,0.0,0.0,-5.7937,0.0,-6.2205,-6.198,-6.3606,-6.4518,-6.4782,-6.5542,-6.5897,-6.5897,-6.5897,-6.5897,-6.5897,-6.5897,-6.5897,-6.5897,-6.5897,-6.5897,-6.5897,-6.5897,-6.5897,-6.5897,-5.9612,-6.0382,-6.097,-6.1153,-6.2401,-6.3135,-6.2475,-6.2915,-6.3591,-6.4373,-6.4442,-6.4442,-6.4442,-6.401,-6.3935,-6.4421,-6.5078,-6.568,-6.6214,-6.6205,-6.6167,-6.6167,-6.659,-6.7321,-6.8398,-6.8244,-6.6898,-6.4385,-6.3858,-6.1166,-5.6511,0.0,0.0,0.0,0.0,0.0,-6.5089,-6.8321,-6.8898,-6.7705,-6.8398,-6.7782,-6.641,-6.5968,-6.5389,-6.4746,-6.42,-6.3579,-6.2941,-6.283,-6.278,-6.278,-6.278,-6.278,-6.278,-6.278,-6.278,-6.278,-6.278,-6.2365,-6.1814,-6.163,-6.1117,-6.0456,-5.9625,-5.8951,-5.8474,-5.829,-5.7116,-5.5868,-5.506,-5.4766,-5.4509,-5.4032,0.0,0.0,0.0,0.0,0.0,0.0,0.0,0.0,0.0,0.0,0.0,0.0,0.0,0.0,0.0,0.0,0.0,0.0,0.0,-5.8399,-5.798,0.0,-6.2817,-6.184,-6.3433,-6.4426,-6.4799,-6.5344,-6.5649,-6.5717,-6.5717,-6.5717,-6.5717,-6.5833,-6.5821,-6.5717,-6.5717,-6.5717,-6.5703,-6.5635,-6.5556,-6.5556,-6.1374,-6.2034,-6.2842,-6.3613,-6.4494,-6.5044,-6.4971,-6.5044,-6.4593,-6.3174,-6.299,-6.299,-6.299,-6.364,-6.4217,-6.4733,-6.5905,-6.6879,-6.7403,-6.717,-6.6974,-6.6974,-6.6359,-6.6744,-6.8359,-6.7628,-6.7436,-6.7923,-6.5628,-6.2666,-5.9165,0.0,0.0,-6.1755,-6.4436,-6.5705,-6.5936,-6.859,-6.9629,-6.9475,-6.9552,-6.9013,-6.8154,-6.8127,-6.7314,-6.6129,-6.5634,-6.4595,-6.3453,-6.2965,-6.278,-6.278,-6.278,-6.278,-6.278,-6.278,-6.278,-6.278,-6.278,-6.2743,-6.2511,-6.1777,-6.152,-6.1263,-6.0456,-6.0236,-5.9979,-5.9221,-5.84,-5.7519,-5.6712,-5.5978,-5.5684,-5.6381,0.0,0.0,0.0,0.0,0.0,0.0,0.0,0.0,0.0,0.0,0.0,0.0,0.0,0.0,0.0,0.0,0.0,-5.7243,-5.6831,-5.83,-6.1816,-6.1107,-6.1765,-6.3823,-6.3705,-6.3702,-6.3766,-6.4294,-6.4748,-6.5161,-6.5161,-6.5161,-6.5192,-6.569,-6.5597,-6.5161,-6.5161,-6.5161,-6.5115,-6.4716,-6.4556,-6.4556,-6.2879,-6.3356,-6.3833,-6.4677,-6.5081,-6.5301,-6.5301,-6.5301,-6.5081,-6.4383,-6.431,-6.431,-6.431,-6.4604,-6.5004,-6.55,-6.5992,-6.6684,-6.755,-6.7454,-6.7549,-6.7885,-6.7051,-6.7436,-6.9129,-6.8321,-6.8052,-6.8385,-6.7398,-6.5897,-6.4051,-6.3743,-6.3858,-6.4474,-6.6513,-6.7705,-6.8282,-6.9783,-7.0129,-6.9706,-6.9706,-6.9167,-6.8385,-6.8385,-6.787,-6.7028,-6.6328,-6.552,-6.4616,-6.3624,-6.3086,-6.278,-6.278,-6.278,-6.278,-6.278,-6.278,-6.278,-6.278,-6.278,-6.2707,-6.2401,-6.2328,-6.2108,-6.13,-6.1117,-6.075,-5.9478,-5.818,-5.7336,-5.7483,-5.7262,-5.6969,-5.6822,-5.5721,0.0,0.0,0.0,0.0,0.0,0.0,0.0,0.0,0.0,0.0,0.0,0.0,0.0,0.0,0.0,0.0,-5.94,0.0,-5.8958,-6.2369,-6.108,-6.1308,-6.3086,-6.3446,-6.3766,-6.4079,-6.4294,-6.4643,-6.5099,-6.5099,-6.5099,-6.5099,-6.5019,-6.4871,-6.4679,-6.4679,-6.4679,-6.4643,-6.4463,-6.4389,-6.4389,-6.4567,-6.4787,-6.5044,-6.5888,-6.5999,-6.5999,-6.5999,-6.5999,-6.5999,-6.5999,-6.5999,-6.5852,-6.5375,-6.5521,-6.5775,-6.6134,-6.6719,-6.746,-6.8408,-6.8392,-6.8578,-6.9102,-6.8321,-6.8436,-6.9667,-6.9321,-6.9129,-6.9129,-6.8898,-6.809,-6.6705,-6.5551,-6.5705,-6.709,-6.8513,-6.936,-6.9744,-7.0552,-7.0552,-7.0052,-7.0052,-6.9667,-6.9129,-6.9129,-6.8733,-6.8112,-6.7414,-6.6595,-6.5652,-6.4561,-6.3795,-6.3238,-6.2904,-6.278,-6.278,-6.278,-6.278,-6.278,-6.278,-6.278,-6.278,-6.278,-6.278,-6.2658,-6.2071,-6.1961,-6.1557,-6.0199,-5.8657,-5.7703,-5.8253,-5.8143,-5.7886,-5.7556,-5.7116,-5.6014,0.0,-5.4583,0.0,0.0,0.0,0.0,0.0,0.0,0.0,0.0,0.0,0.0,0.0,0.0,0.0,0.0,0.0,0.0,-6.2018,-6.0932,-6.1134,-6.2532,-6.3103,-6.355,-6.3917,-6.4079,-6.4351,-6.4679,-6.4816,-6.4799,-6.4661,-6.4463,-6.4294,-6.4158,-6.4158,-6.4158,-6.4138,-6.3978,-6.3917,-6.3917,-6.6476,-6.6476,-6.6733,-6.7504,-6.765,-6.765,-6.765,-6.765,-6.765,-6.765,-6.765,-6.7063,-6.5485,-6.5999,-6.6476,-6.6476,-6.8445,-6.991,-7.052,-7.0269,-7.0298,-7.0846,-7.009,-6.9667,-6.9706,-7.0475,-7.086,-7.086,-7.0052,-6.8398,-6.5897,-6.5897,-6.7244,-6.9706,-7.0514,-7.0437,-6.9744,-7.0552,-7.0898,-7.0898,-7.0898,-7.0898,-7.086,-7.086,-7.036,-6.9613,-6.9053,-6.7785,-6.6331,-6.5746,-6.5049,-6.4178,-6.3121,-6.278,-6.278,-6.278,-6.278,-6.278,-6.278,-6.278,-6.278,-6.278,-6.278,-6.278,-6.2805,-6.2805,-6.2548,-6.1741,-6.0309,-5.9148,-5.9184,-5.8547,-5.8253,-5.9038,-5.7827,-5.6785,0.0,-5.7446,0.0,0.0,-5.8962,-5.9594,-5.8833,0.0,0.0,0.0,0.0,0.0,0.0,0.0,0.0,-5.7638,-5.7541,0.0,-6.1193,-6.0674,-6.1227,-6.2805,-6.2805,-6.2805,-6.283,-6.3363,-6.3593,-6.3637,-6.4158,-6.4099,-6.3659,-6.4178,-6.4079,-6.3593,-6.3593,-6.3593,-6.3565,-6.3014,-6.2805,-6.2805,-6.721,-6.732,-6.7393,-6.765,-6.7687,-6.7687,-6.7687,-6.7687,-6.7687,-6.7687,-6.7687,-6.7504,-6.699,-6.7136,-6.732,-6.732,-6.7936,-6.8976,-7.0479,-7.0493,-7.1116,-7.2601,-7.186,-7.1668,-7.2283,-7.1398,-7.1206,-7.1783,-7.0937,-7.009,-6.9321,-6.9898,-7.0321,-7.0514,-7.0783,-7.0744,-7.0514,-7.0783,-7.0898,-7.0898,-7.0898,-7.0898,-7.0898,-7.0898,-7.0744,-7.0423,-6.9697,-6.9117,-6.8484,-6.7338,-6.6425,-6.5638,-6.4925,-6.4084,-6.3285,-6.2929,-6.278,-6.278,-6.278,-6.278,-6.278,-6.278,-6.278,-6.278,-6.278,-6.2401,-6.1924,-6.163,-6.075,-6.0015,-6.0015,-5.9832,-5.9355,-5.851,-5.8437,-5.7643,-5.5464,0.0,-5.6765,-5.5544,-5.634,-5.7116,-5.7411,-5.735,0.0,0.0,0.0,0.0,0.0,0.0,0.0,0.0,-6.0465,0.0,-6.3712,-6.204,-6.1741,-6.278,-6.278,-6.278,-6.2805,-6.334,-6.3609,-6.3631,-6.3787,-6.3766,-6.3571,-6.3385,-6.3215,-6.3062,-6.3062,-6.3062,-6.3038,-6.288,-6.278,-6.278,-6.7577,-6.7687,-6.7687,-6.7687,-6.7687,-6.7687,-6.7687,-6.7687,-6.7687,-6.7687,-6.7687,-6.7687,-6.7687,-6.8173,-6.8409,-6.8155,-6.9071,-7.0219,-7.1405,-7.1726,-7.2447,-7.3909,-7.3437,-7.3245,-7.35,-7.2745,-7.2437,-7.2706,-7.2129,-7.1898,-7.1898,-7.2091,-7.2091,-7.186,-7.1514,-7.1552,-7.1898,-7.1898,-7.1898,-7.1898,-7.1898,-7.1898,-7.186,-7.1514,-7.1398,-7.1283,-7.0437,-6.9975,-6.955,-6.867,-6.7829,-6.6988,-6.6167,-6.5313,-6.4452,-6.3405,-6.3073,-6.3062,-6.2855,-6.278,-6.278,-6.278,-6.278,-6.278,-6.278,-6.2401,-6.2034,-6.2034,-6.141,-6.086,-6.086,-6.0603,-6.0089,-5.9061,-5.9318,-5.8767,-5.6124,-5.6895,-5.739,0.0,0.0,-5.7565,0.0,-5.8438,-5.8888,0.0,0.0,0.0,0.0,0.0,-6.0618,-6.1531,-6.0211,-6.0706,-6.3191,-6.2142,-6.1998,-6.278,-6.278,-6.278,-6.2805,-6.3144,-6.3308,-6.3308,-6.3308,-6.3308,-6.3285,-6.2917,-6.278,-6.278,-6.278,-6.278,-6.278,-6.278,-6.278,-6.278,-6.7687,-6.7687,-6.7687,-6.7687,-6.7687,-6.7687,-6.7687,-6.7687,-6.7687,-6.7687,-6.7687,-6.7724,-6.776,-6.9063,-6.9694,-6.9181,-7.1458,-7.2977,-7.3036,-7.3574,-7.4155,-7.4755,-7.4784,-7.4437,-7.3707,-7.4361,-7.4322,-7.3514,-7.3514,-7.3514,-7.3462,-7.2668,-7.2706,-7.3476,-7.2629,-7.2745,-7.3514,-7.3514,-7.3514,-7.3514,-7.3514,-7.3514,-7.3399,-7.2591,-7.2283,-7.2168,-7.136,-7.0552,-6.986,-6.986,-6.9244,-6.8254,-6.7026,-6.6558,-6.6091,-6.42,-6.3615,-6.3498,-6.299,-6.283,-6.278,-6.278,-6.278,-6.278,-6.278,-6.278,-6.278,-6.278,-6.2218,-6.1667,-6.1667,-6.108,-6.0566,-6.0493,-6.0493,-5.9905,-5.8327,-5.8731,-5.9403,-5.9885,-5.9926,-6.024,-6.1081,-6.0464,-5.925,0.0,0.0,0.0,0.0,0.0,-5.9758,-5.7285,-5.7886,-5.8988,-6.0566,-6.13,-6.2071,-6.278,-6.278,-6.278,-6.278,-6.278,-6.278,-6.278,-6.278,-6.278,-6.278,-6.278,-6.278,-6.278,-6.278,-6.278,-6.278,-6.278,-6.278,-6.278,-6.7687,-6.7687,-6.7687,-6.7687,-6.7687,-6.7687,-6.7687,-6.7687,-6.7687,-6.7687,-6.7687,-6.7907,-6.8568,-6.989,-7.0908,-7.1366,-7.1847,-7.2558,-7.363,-7.3834,-7.4439,-7.5654,-7.5707,-7.5592,-7.5399,-7.4938,-7.4322,-7.3514,-7.3514,-7.3514,-7.3514,-7.3283,-7.3322,-7.35,-7.3283,-7.3322,-7.3514,-7.3514,-7.3514,-7.3514,-7.3514,-7.3514,-7.3476,-7.3283,-7.3206,-7.3168,-7.2976,-7.2322,-7.1591,-7.1591,-7.0629,-6.9346,-6.9034,-6.8007,-6.66,-6.4764,-6.3934,-6.3587,-6.3453,-6.3097,-6.278,-6.278,-6.278,-6.278,-6.278,-6.278,-6.278,-6.278,-6.2658,-6.2511,-6.2511,-6.2365,-6.2034,-6.141,-6.13,-6.075,-5.9134,-5.9074,-5.9255,-5.9343,-5.9403,-5.9697,-6.0508,-6.0434,-6.078,0.0,0.0,-6.2643,-6.2643,-6.2865,-6.2523,-6.1435,-6.097,-6.1227,-6.2218,-6.2438,-6.2622,-6.278,-6.278,-6.278,-6.278,-6.278,-6.278,-6.278,-6.278,-6.278,-6.278,-6.278,-6.278,-6.278,-6.278,-6.278,-6.278,-6.278,-6.278,-6.278,-6.7687,-6.7687,-6.7687,-6.7687,-6.7687,-6.7687,-6.7687,-6.7687,-6.7834,-6.8201,-6.8238,-6.8531,-6.9376,-7.0705,-7.1824,-7.252,-7.3019,-7.3612,-7.4422,-7.4707,-7.5187,-7.5962,-7.6015,-7.6015,-7.6015,-7.5553,-7.5091,-7.463,-7.463,-7.463,-7.463,-7.4245,-7.4245,-7.463,-7.4245,-7.4284,-7.463,-7.463,-7.463,-7.463,-7.463,-7.463,-7.4591,-7.4207,-7.4053,-7.4014,-7.363,-7.3206,-7.2745,-7.2322,-7.1591,-7.0706,-6.9937,-6.8783,-6.7395,-6.6032,-6.4999,-6.4197,-6.3723,-6.3385,-6.3134,-6.2855,-6.278,-6.278,-6.278,-6.278,-6.278,-6.278,-6.278,-6.278,-6.278,-6.278,-6.2658,-6.2218,-6.1851,-6.1153,-5.9942,-5.9758,-5.9588,-5.9221,-5.9515,-5.9942,-6.0382,-6.0419,-6.0917,-6.21,-6.2761,-6.3115,-6.3115,-6.3451,-6.3237,-6.2279,-6.1814,-6.1998,-6.278,-6.278,-6.278,-6.278,-6.278,-6.278,-6.278,-6.278,-6.278,-6.278,-6.278,-6.278,-6.278,-6.278,-6.278,-6.278,-6.278,-6.278,-6.278,-6.278,-6.278,-6.278,-6.7687,-6.7687,-6.7687,-6.7687,-6.7687,-6.7724,-6.7834,-6.7871,-6.8164,-6.8972,-6.9082,-6.9412,-7.0183,-7.1342,-7.2371,-7.3118,-7.4274,-7.5054,-7.5236,-7.5718,-7.6015,-7.6015,-7.6015,-7.6015,-7.6015,-7.6015,-7.6015,-7.6015,-7.6015,-7.6015,-7.5976,-7.5245,-7.5284,-7.5976,-7.5245,-7.5322,-7.6015,-7.6015,-7.6015,-7.6015,-7.6015,-7.6015,-7.5938,-7.5168,-7.4899,-7.4822,-7.413,-7.3783,-7.3591,-7.2822,-7.2514,-7.2129,-7.0552,-6.9398,-6.8436,-6.7552,-6.6298,-6.5019,-6.3978,-6.3593,-6.3363,-6.2892,-6.278,-6.278,-6.278,-6.278,-6.278,-6.278,-6.278,-6.278,-6.278,-6.278,-6.2853,-6.3135,-6.2291,-6.1447,-6.1006,-6.075,-6.0346,-5.9625,-6.0272,-6.0786,-6.0786,-6.0786,-6.0774,-6.0893,-6.1953,-6.2572,-6.2572,-6.3221,-6.3043,-6.1839,-6.1777,-6.2108,-6.278,-6.278,-6.278,-6.278,-6.278,-6.278,-6.278,-6.278,-6.278,-6.278,-6.278,-6.278,-6.278,-6.278,-6.278,-6.278,-6.278,-6.278,-6.278,-6.278,-6.278,-6.278,-6.7687,-6.7687,-6.7687,-6.7687,-6.7687,-6.7907,-6.8605,-6.8715,-6.9009,-6.9816,-6.9926,-7.022,-7.1027,-7.1295,-7.214,-7.3942,-7.4304,-7.4828,-7.5803,-7.5947,-7.6015,-7.6015,-7.6015,-7.6015,-7.6015,-7.6015,-7.6015,-7.6015,-7.6015,-7.6015,-7.6015,-7.5861,-7.5861,-7.5976,-7.5861,-7.5861,-7.6015,-7.6015,-7.6015,-7.6015,-7.6015,-7.6015,-7.5976,-7.5861,-7.5784,-7.5784,-7.5668,-7.513,-7.4476,-7.4361,-7.386,-7.3129,-7.2129,-7.0744,-6.9321,-6.8436,-6.7051,-6.5542,-6.4536,-6.3615,-6.2929,-6.2805,-6.278,-6.278,-6.278,-6.278,-6.278,-6.278,-6.278,-6.278,-6.278,-6.278,-6.3257,-6.4677,-6.3062,-6.2034,-6.3319,-6.2291,-6.1374,-6.1227,-6.1961,-6.2438,-6.2438,-6.2438,-6.2621,-6.3082,-6.3304,-6.3407,-6.3407,-6.3534,-6.3303,-6.2622,-6.2622,-6.267,-6.278,-6.278,-6.278,-6.278,-6.278,-6.278,-6.278,-6.278,-6.278,-6.278,-6.278,-6.278,-6.278,-6.278,-6.278,-6.278,-6.278,-6.278,-6.278,-6.278,-6.278,-6.278,-6.8348,-6.7981,-6.7687,-6.7687,-6.7687,-6.7834,-6.8201,-6.8238,-6.8678,-6.9926,-7.011,-7.055,-7.1835,-7.1945,-7.2465,-7.3685,-7.4117,-7.4649,-7.5446,-7.5818,-7.6015,-7.6015,-7.6015,-7.6015,-7.6015,-7.6015,-7.6015,-7.6015,-7.6015,-7.6015,-7.6015,-7.6015,-7.6015,-7.6015,-7.6015,-7.6015,-7.6015,-7.6015,-7.6015,-7.6015,-7.6015,-7.6015,-7.6015,-7.6015,-7.6015,-7.6015,-7.6015,-7.5745,-7.5322,-7.4861,-7.4437,-7.3937,-7.2591,-7.1052,-6.9513,-6.8667,-6.6995,-6.5291,-6.4572,-6.3829,-6.3168,-6.288,-6.278,-6.278,-6.278,-6.278,-6.278,-6.278,-6.278,-6.278,-6.278,-6.278,-6.2915,-6.3246,-6.2328,-6.1704,-6.2071,-6.1814,-6.1594,-6.1594,-6.257,-6.3238,-6.3238,-6.3238,-6.3317,-6.3587,-6.3609,-6.3609,-6.3609,-6.3609,-6.3498,-6.3238,-6.2941,-6.278,-6.278,-6.278,-6.278,-6.278,-6.278,-6.278,-6.278,-6.278,-6.278,-6.278,-6.278,-6.278,-6.278,-6.278,-6.278,-6.278,-6.278,-6.278,-6.278,-6.278,-6.278,-6.278,-6.9192,-6.8678,-6.8238,-6.8238,-6.8091,-6.8091,-6.8458,-6.8385,-6.8825,-7.044,-7.066,-7.1138,-7.2386,-7.2496,-7.2733,-7.3341,-7.3818,-7.4363,-7.5054,-7.5551,-7.5848,-7.5976,-7.6015,-7.6015,-7.6015,-7.6015,-7.6015,-7.6015,-7.6015,-7.6015,-7.6015,-7.6015,-7.6015,-7.6015,-7.6015,-7.6015,-7.6015,-7.6015,-7.6015,-7.6015,-7.6015,-7.6015,-7.6015,-7.6015,-7.6015,-7.6015,-7.6015,-7.6015,-7.5899,-7.5245,-7.5014,-7.4745,-7.3245,-7.1629,-7.0052,-6.9013,-6.7093,-6.5184,-6.4554,-6.4016,-6.3476,-6.2917,-6.278,-6.278,-6.278,-6.278,-6.278,-6.278,-6.278,-6.278,-6.278,-6.278,-6.2732,-6.2511,-6.1961,-6.1594,-6.1557,-6.1702,-6.1871,-6.2032,-6.3067,-6.3787,-6.3787,-6.3659,-6.3637,-6.3787,-6.3659,-6.3609,-6.3609,-6.3609,-6.3565,-6.3408,-6.3014,-6.278,-6.278,-6.278,-6.278,-6.278,-6.278,-6.278,-6.278,-6.278,-6.278,-6.278,-6.278,-6.278,-6.278,-6.278,-6.278,-6.278,-6.278,-6.278,-6.278,-6.278,-6.278,-6.278,-7.0,-6.9963,-6.9926,-6.9926,-6.9302,-6.9302,-7.0807,-7.0403,-7.0513,-7.2129,-7.2312,-7.2386,-7.2496,-7.2496,-7.2733,-7.3341,-7.3442,-7.392,-7.5036,-7.5127,-7.5413,-7.6,-7.6015,-7.6015,-7.6015,-7.6015,-7.6015,-7.6015,-7.6015,-7.6015,-7.6015,-7.6015,-7.6015,-7.6015,-7.6015,-7.6015,-7.6015,-7.6015,-7.6015,-7.6015,-7.6015,-7.6015,-7.6015,-7.6015,-7.6015,-7.6015,-7.6015,-7.6015,-7.5976,-7.5938,-7.5899,-7.5745,-7.4822,-7.336,-7.1706,-7.009,-6.7808,-6.5635,-6.4681,-6.4016,-6.3476,-6.2917,-6.278,-6.278,-6.278,-6.278,-6.278,-6.278,-6.278,-6.278,-6.278,-6.278,-6.3319,-6.4787,-6.3099,-6.2365,-6.464,-6.3423,-6.2619,-6.3379,-6.3998,-6.4332,-6.4332,-6.3892,-6.3808,-6.4294,-6.3892,-6.3609,-6.3609,-6.3609,-6.3363,-6.288,-6.2805,-6.278,-6.278,-6.278,-6.278,-6.278,-6.278,-6.278,-6.278,-6.278,-6.278,-6.278,-6.278,-6.278,-6.278,-6.278,-6.278,-6.278,-6.278,-6.278,-6.278,-6.278,-6.278,-6.278,-7.0844,-7.044,-7.011,-7.011,-6.9853,-7.0036,-7.1138,-7.1064,-7.1248,-7.2349,-7.2496,-7.2496,-7.2496,-7.2496,-7.2573,-7.2816,-7.3198,-7.3747,-7.453,-7.4924,-7.5379,-7.5962,-7.6015,-7.6015,-7.6015,-7.6015,-7.6015,-7.6015,-7.6015,-7.6015,-7.6015,-7.6015,-7.6015,-7.6015,-7.6015,-7.6015,-7.6015,-7.6015,-7.6015,-7.6015,-7.6015,-7.6015,-7.6015,-7.6015,-7.6015,-7.6015,-7.6015,-7.6015,-7.6015,-7.6015,-7.6015,-7.5861,-7.4976,-7.3553,-7.1668,-6.8898,-6.7051,-6.5755,-6.5019,-6.4481,-6.3975,-6.3431,-6.3062,-6.278,-6.278,-6.278,-6.278,-6.278,-6.3086,-6.3191,-6.2855,-6.334,-6.3609,-6.3076,-6.3177,-6.3382,-6.3488,-6.3312,-6.3387,-6.4001,-6.4255,-6.4389,-6.4389,-6.4197,-6.4019,-6.3934,-6.3408,-6.3097,-6.3097,-6.3097,-6.3014,-6.2805,-6.278,-6.278,-6.278,-6.278,-6.278,-6.278,-6.278,-6.278,-6.278,-6.278,-6.278,-6.278,-6.278,-6.278,-6.278,-6.278,-6.278,-6.278,-6.278,-6.278,-6.278,-6.278,-6.278,-6.278,-7.1688,-7.1431,-7.1211,-7.1211,-7.1211,-7.1505,-7.2312,-7.2239,-7.2349,-7.3156,-7.3266,-7.3266,-7.3266,-7.3046,-7.2899,-7.2899,-7.3009,-7.3467,-7.4249,-7.4961,-7.5567,-7.5962,-7.6015,-7.6015,-7.6015,-7.6015,-7.6015,-7.6015,-7.6015,-7.6015,-7.6015,-7.6015,-7.6015,-7.6015,-7.6015,-7.6015,-7.6015,-7.6015,-7.6015,-7.6015,-7.6015,-7.6015,-7.6015,-7.6015,-7.6015,-7.6015,-7.6015,-7.6015,-7.6015,-7.6015,-7.6015,-7.5899,-7.5284,-7.3591,-7.1283,-6.8667,-6.6974,-6.5808,-6.5446,-6.5003,-6.4463,-6.3766,-6.3317,-6.3014,-6.283,-6.278,-6.278,-6.278,-6.3073,-6.3308,-6.311,-6.3505,-6.36,-6.2643,-6.3435,-6.3891,-6.3127,-6.3497,-6.4019,-6.4554,-6.4481,-6.4444,-6.459,-6.4332,-6.4016,-6.3615,-6.3097,-6.278,-6.278,-6.278,-6.278,-6.278,-6.278,-6.278,-6.278,-6.278,-6.278,-6.278,-6.278,-6.278,-6.278,-6.278,-6.278,-6.278,-6.278,-6.278,-6.278,-6.278,-6.278,-6.278,-6.278,-6.278,-6.278,-6.278,-6.278,-6.278,-7.2496,-7.3156,-7.3707,-7.3707,-7.3707,-7.3964,-7.4808,-7.4221,-7.4001,-7.4808,-7.4918,-7.4918,-7.4918,-7.4184,-7.3707,-7.3707,-7.2973,-7.3024,-7.4228,-7.5344,-7.6015,-7.6015,-7.6015,-7.6015,-7.6015,-7.6015,-7.6015,-7.6015,-7.6015,-7.6015,-7.6015,-7.6015,-7.6015,-7.6015,-7.6015,-7.6015,-7.6015,-7.6015,-7.6015,-7.6015,-7.6015,-7.6015,-7.6015,-7.6015,-7.6015,-7.6015,-7.6015,-7.6015,-7.6015,-7.6015,-7.6015,-7.6015,-7.5976,-7.3668,-7.0744,-6.9937,-6.7898,-6.5897,-6.5897,-6.5527,-6.4866,-6.3871,-6.3593,-6.3453,-6.2917,-6.278,-6.278,-6.278,-6.2805,-6.2965,-6.3498,-6.3168,-6.3168,-6.4217,-6.3954,-6.3787,-6.4313,-6.4389,-6.4554,-6.5051,-6.4679,-6.4572,-6.5051,-6.4197,-6.3609,-6.3571,-6.3073,-6.278,-6.278,-6.278,-6.2805,-6.2805,-6.2805,-6.2805,-6.2805,-6.2805,-6.278,-6.278,-6.278,-6.278,-6.278,-6.278,-6.278,-6.278,-6.278,-6.278,-6.278,-6.278,-6.278,-6.278,-6.278,-6.278,-6.278,-6.278,-6.278,-6.278,-7.2496,-7.3156,-7.3707,-7.3707,-7.4184,-7.4808,-7.5616,-7.5542,-7.5469,-7.5726,-7.5726,-7.5542,-7.4955,-7.4698,-7.4551,-7.4551,-7.3817,-7.3616,-7.4265,-7.4961,-7.5567,-7.5962,-7.6015,-7.6015,-7.6015,-7.6015,-7.6015,-7.6015,-7.6015,-7.6015,-7.6015,-7.6015,-7.6015,-7.6015,-7.6015,-7.6015,-7.6015,-7.6015,-7.6015,-7.6015,-7.6015,-7.6015,-7.6015,-7.6015,-7.6015,-7.6015,-7.6015,-7.6015,-7.6015,-7.6015,-7.6015,-7.5899,-7.5284,-7.3591,-7.1514,-7.0129,-6.8282,-6.6628,-6.6051,-6.5781,-6.5417,-6.4407,-6.3892,-6.3453,-6.2917,-6.278,-6.278,-6.278,-6.3408,-6.3745,-6.3144,-6.3792,-6.4275,-6.3876,-6.4036,-6.4197,-6.437,-6.4096,-6.4019,-6.4536,-6.4138,-6.3876,-6.4039,-6.3787,-6.3453,-6.3086,-6.2904,-6.278,-6.278,-6.278,-6.2965,-6.334,-6.299,-6.2965,-6.334,-6.299,-6.278,-6.278,-6.278,-6.278,-6.278,-6.278,-6.278,-6.278,-6.278,-6.278,-6.278,-6.278,-6.278,-6.278,-6.278,-6.278,-6.278,-6.278,-6.278,-6.278,-7.3413,-7.4111,-7.4661,-7.4661,-7.5322,-7.6019,-7.6497,-7.657,-7.657,-7.657,-7.657,-7.6387,-7.5909,-7.5579,-7.5395,-7.5395,-7.4851,-7.4614,-7.4755,-7.5302,-7.5723,-7.6,-7.6015,-7.6015,-7.6015,-7.6015,-7.6015,-7.6015,-7.6015,-7.6015,-7.6015,-7.6015,-7.6015,-7.6015,-7.6015,-7.6015,-7.6015,-7.6015,-7.6015,-7.6015,-7.6015,-7.6015,-7.6015,-7.6015,-7.6015,-7.6015,-7.6015,-7.6015,-7.6015,-7.6015,-7.6015,-7.5899,-7.5399,-7.4053,-7.2437,-7.1091,-6.9244,-6.7436,-6.659,-6.6128,-6.569,-6.4888,-6.4444,-6.4019,-6.3271,-6.3097,-6.3062,-6.2855,-6.3317,-6.3637,-6.3191,-6.3707,-6.4121,-6.3975,-6.4036,-6.4138,-6.4351,-6.3954,-6.3808,-6.4313,-6.3745,-6.3363,-6.3587,-6.3408,-6.3144,-6.283,-6.278,-6.2904,-6.3134,-6.2929,-6.3144,-6.3892,-6.3191,-6.3062,-6.3571,-6.3086,-6.278,-6.278,-6.278,-6.278,-6.278,-6.278,-6.278,-6.278,-6.278,-6.278,-6.278,-6.278,-6.278,-6.278,-6.278,-6.278,-6.278,-6.278,-6.278,-6.278,-7.4771,-7.5542,-7.6093,-7.6093,-7.679,-7.7273,-7.7273,-7.7273,-7.7273,-7.7273,-7.7273,-7.7273,-7.7273,-7.6644,-7.6203,-7.6203,-7.5967,-7.5732,-7.5555,-7.6038,-7.6247,-7.6056,-7.6077,-7.6092,-7.6015,-7.6015,-7.6015,-7.6015,-7.6015,-7.6015,-7.6015,-7.6015,-7.6015,-7.6015,-7.6015,-7.6015,-7.6015,-7.6015,-7.6015,-7.6015,-7.6015,-7.6015,-7.6015,-7.6015,-7.6015,-7.6015,-7.6015,-7.6015,-7.6015,-7.6015,-7.6015,-7.6015,-7.6015,-7.4899,-7.3437,-7.2476,-7.0514,-6.8398,-6.7359,-6.6551,-6.5858,-6.5291,-6.5161,-6.49,-6.3876,-6.3659,-6.352,-6.299,-6.2892,-6.3086,-6.3453,-6.3168,-6.3191,-6.4158,-6.3892,-6.3723,-6.4236,-6.3871,-6.3702,-6.4178,-6.3408,-6.3014,-6.3565,-6.3215,-6.2941,-6.2941,-6.2941,-6.3144,-6.3637,-6.3168,-6.334,-6.4351,-6.3363,-6.3062,-6.3571,-6.3086,-6.278,-6.278,-6.278,-6.278,-6.278,-6.278,-6.278,-6.278,-6.278,-6.278,-6.278,-6.278,-6.278,-6.278,-6.278,-6.278,-6.278,-6.278,-6.278,-6.278,-7.4882,-7.5542,-7.6093,-7.6093,-7.679,-7.7273,-7.7273,-7.7273,-7.7273,-7.7273,-7.7273,-7.7273,-7.7273,-7.7127,-7.7017,-7.7017,-7.6427,-7.5948,-7.5744,-7.6285,-7.651,-7.6267,-7.6715,-7.6707,-7.6015,-7.6015,-7.6015,-7.6015,-7.6015,-7.6015,-7.6015,-7.6015,-7.6015,-7.6015,-7.6015,-7.6015,-7.6015,-7.6015,-7.6015,-7.6015,-7.6015,-7.6015,-7.6015,-7.6015,-7.6015,-7.6015,-7.6015,-7.6015,-7.6015,-7.6015,-7.6015,-7.6015,-7.6015,-7.5284,-7.413,-7.2629,-7.1321,-6.9898,-6.7667,-6.6974,-6.6654,-6.5922,-6.5717,-6.5446,-6.4444,-6.4217,-6.4059,-6.3543,-6.3766,-6.385,-6.3097,-6.3238,-6.352,-6.3723,-6.3317,-6.3168,-6.3702,-6.3294,-6.3014,-6.3121,-6.2941,-6.3014,-6.3565,-6.3892,-6.4039,-6.4039,-6.4039,-6.4099,-6.4197,-6.3723,-6.3723,-6.437,-6.3363,-6.3062,-6.3571,-6.3086,-6.278,-6.278,-6.278,-6.278,-6.278,-6.278,-6.278,-6.278,-6.278,-6.278,-6.278,-6.278,-6.278,-6.278,-6.278,-6.278,-6.278,-6.278,-6.278,-6.278,-7.5953,-7.6387,-7.668,-7.668,-7.7047,-7.7273,-7.7273,-7.7273,-7.7273,-7.7273,-7.7273,-7.7273,-7.7273,-7.7273,-7.7273,-7.7273,-7.6937,-7.6575,-7.6404,-7.6938,-7.7176,-7.6941,-7.7511,-7.7476,-7.663,-7.663,-7.6399,-7.6015,-7.6015,-7.6015,-7.6015,-7.6015,-7.6015,-7.6015,-7.6015,-7.6015,-7.6015,-7.6015,-7.6015,-7.6015,-7.6015,-7.6015,-7.6015,-7.6015,-7.6015,-7.6015,-7.6015,-7.6015,-7.6015,-7.6015,-7.6015,-7.6015,-7.6015,-7.5707,-7.5053,-7.3783,-7.2514,-7.1129,-6.9398,-6.8013,-6.7013,-6.659,-6.6167,-6.569,-6.4921,-6.4731,-6.459,-6.4079,-6.4197,-6.4138,-6.3317,-6.3615,-6.3829,-6.3294,-6.3191,-6.3285,-6.3565,-6.334,-6.3285,-6.3527,-6.355,-6.368,-6.3937,-6.4254,-6.4389,-6.4389,-6.4389,-6.4389,-6.4389,-6.3892,-6.385,-6.437,-6.3363,-6.3062,-6.3571,-6.3086,-6.278,-6.278,-6.278,-6.278,-6.278,-6.278,-6.278,-6.278,-6.278,-6.278,-6.278,-6.278,-6.278,-6.278,-6.278,-6.278,-6.278,-6.278,-6.278,-6.278,-7.7163,-7.7273,-7.7273,-7.7273,-7.7273,-7.7273,-7.7273,-7.7273,-7.7273,-7.7273,-7.7273,-7.7273,-7.7273,-7.7273,-7.7273,-7.7273,-7.7273,-7.7215,-7.707,-7.7629,-7.7892,-7.7663,-7.8254,-7.8223,-7.7515,-7.7361,-7.6861,-7.6015,-7.6015,-7.6015,-7.6015,-7.6015,-7.6015,-7.6015,-7.6015,-7.6015,-7.6015,-7.6015,-7.6015,-7.6015,-7.6015,-7.6015,-7.6015,-7.6015,-7.6015,-7.6015,-7.6015,-7.6015,-7.6015,-7.6015,-7.6015,-7.6015,-7.6015,-7.6015,-7.5822,-7.4976,-7.3707,-7.236,-7.1206,-6.936,-6.7667,-6.7398,-6.6821,-6.6166,-6.5588,-6.5322,-6.5099,-6.4608,-6.4518,-6.4351,-6.3829,-6.4079,-6.4099,-6.3238,-6.3453,-6.3745,-6.3745,-6.3745,-6.3913,-6.4332,-6.4463,-6.4518,-6.4518,-6.4518,-6.4518,-6.4518,-6.4426,-6.4389,-6.4389,-6.3892,-6.3808,-6.4236,-6.3294,-6.3014,-6.3453,-6.3038,-6.278,-6.278,-6.278,-6.278,-6.278,-6.278,-6.278,-6.278,-6.278,-6.278,-6.278,-6.278,-6.278,-6.278,-6.278,-6.278,-6.278,-6.278,-6.278,-6.278,-7.7273,-7.7273,-7.7273,-7.7273,-7.7273,-7.7273,-7.7273,-7.7273,-7.7273,-7.7273,-7.7273,-7.7273,-7.7273,-7.7273,-7.7273,-7.7273,-7.7273,-7.7298,-7.7242,-7.7886,-7.8154,-7.787,-7.8501,-7.87,-7.8361,-7.7669,-7.6861,-7.6015,-7.6015,-7.6015,-7.6015,-7.6015,-7.6015,-7.6015,-7.6015,-7.6015,-7.6015,-7.6015,-7.6015,-7.6015,-7.6015,-7.6015,-7.6015,-7.6015,-7.6015,-7.6015,-7.6015,-7.6015,-7.6015,-7.6015,-7.6015,-7.6015,-7.6015,-7.6015,-7.5822,-7.4976,-7.4553,-7.386,-7.1514,-7.0667,-7.0052,-6.859,-6.8129,-6.7846,-6.7038,-6.6294,-6.5649,-6.5115,-6.5019,-6.485,-6.437,-6.4332,-6.4332,-6.4197,-6.4236,-6.4275,-6.4275,-6.4275,-6.4313,-6.437,-6.4748,-6.5019,-6.5019,-6.5019,-6.5019,-6.5019,-6.4626,-6.4389,-6.4389,-6.3892,-6.3615,-6.3702,-6.3097,-6.283,-6.2929,-6.283,-6.278,-6.278,-6.278,-6.278,-6.278,-6.278,-6.278,-6.278,-6.278,-6.278,-6.278,-6.278,-6.278,-6.278,-6.278,-6.278,-6.278,-6.278,-6.278,-6.278,-7.7273,-7.7273,-7.7273,-7.7273,-7.7273,-7.7273,-7.7273,-7.7273,-7.7273,-7.7273,-7.7273,-7.7273,-7.7273,-7.7273,-7.7273,-7.7273,-7.7273,-7.7273,-7.7273,-7.7932,-7.8256,-7.8129,-7.9047,-7.9304,-7.8717,-7.8699,-7.8054,-7.6746,-7.6245,-7.6015,-7.6015,-7.6015,-7.6015,-7.6015,-7.6015,-7.6015,-7.6015,-7.6015,-7.6015,-7.6015,-7.6015,-7.6015,-7.6015,-7.6015,-7.6015,-7.6015,-7.6015,-7.6015,-7.6015,-7.6015,-7.6015,-7.6015,-7.6015,-7.6015,-7.5938,-7.5553,-7.5091,-7.4437,-7.3322,-7.1975,-7.0706,-6.9975,-6.909,-6.8321,-6.7898,-6.7167,-6.6397,-6.5698,-6.5556,-6.5403,-6.4866,-6.5019,-6.5057,-6.4481,-6.4608,-6.4782,-6.4782,-6.4782,-6.4904,-6.5184,-6.5168,-6.5099,-6.5099,-6.485,-6.4696,-6.4696,-6.45,-6.4255,-6.3975,-6.3723,-6.3476,-6.3168,-6.2917,-6.278,-6.278,-6.278,-6.278,-6.278,-6.278,-6.278,-6.278,-6.278,-6.278,-6.278,-6.278,-6.278,-6.278,-6.278,-6.278,-6.278,-6.278,-6.278,-6.278,-6.278,-6.278,-6.278]},{"header":{"parameterUnit":"m.s-1","parameterCategory":1,"la1":30.6,"la2":28.766,"lo1":-90.7593,"lo2":-88.6598,"dx":0.0162,"dy":0.0183,"nx":116,"ny":114,"refTime":"2023-01-11T06:00:00:Z","depth":0,"parameterNumber":3,"parameterNumberName":"V-component_of_WINDS"},"data":[0.0,0.0,0.0,0.0,0.0,0.0,0.0,0.0,0.0,0.0,0.0,0.0,0.0,0.0,0.0,0.0,0.0,0.0,0.0,0.0,0.0,0.0,0.0,0.0,0.0,0.0,0.0,0.0,0.0,0.0,0.0,0.0,0.0,0.0,0.0,0.0,0.0,0.0,0.0,0.0,0.0,0.0,0.0,0.0,0.0,0.0,0.0,0.0,0.0,0.0,0.0,0.0,0.0,0.0,0.0,0.0,0.0,0.0,0.0,0.0,0.0,0.0,0.0,0.0,0.0,0.0,0.0,0.0,0.0,0.0,0.0,0.0,0.0,0.0,0.0,0.0,0.0,0.0,0.0,0.0,0.0,0.0,0.0,0.0,0.0,0.0,0.0,0.0,0.0,0.0,0.0,0.0,0.0,0.0,0.0,0.0,0.0,0.0,0.0,0.0,0.0,0.0,0.0,0.0,0.0,0.0,0.0,0.0,0.0,0.0,0.0,0.0,0.0,0.0,0.0,0.0,0.0,0.0,0.0,0.0,0.0,0.0,0.0,0.0,0.0,0.0,0.0,0.0,0.0,0.0,0.0,0.0,0.0,0.0,0.0,0.0,0.0,0.0,0.0,0.0,0.0,0.0,0.0,0.0,0.0,0.0,0.0,0.0,0.0,0.0,0.0,0.0,0.0,0.0,0.0,0.0,0.0,0.0,0.0,0.0,0.0,0.0,0.0,0.0,0.0,0.0,0.0,0.0,0.0,0.0,0.0,0.0,0.0,0.0,0.0,0.0,0.0,0.0,0.0,0.0,0.0,0.0,0.0,0.0,0.0,0.0,0.0,0.0,0.0,0.0,0.0,0.0,0.0,0.0,0.0,0.0,0.0,0.0,0.0,0.0,0.0,0.0,0.0,0.0,0.0,0.0,0.0,0.0,0.0,0.0,0.0,0.0,0.0,0.0,0.0,0.0,0.0,0.0,0.0,0.0,0.0,0.0,0.0,0.0,0.0,0.0,0.0,0.0,0.0,0.0,0.0,0.0,0.0,0.0,0.0,0.0,0.0,0.0,0.0,0.0,0.0,0.0,0.0,0.0,0.0,0.0,0.0,0.0,0.0,0.0,0.0,0.0,0.0,0.0,0.0,0.0,0.0,0.0,0.0,0.0,0.0,0.0,0.0,0.0,0.0,0.0,0.0,0.0,0.0,0.0,0.0,0.0,0.0,0.0,0.0,0.0,0.0,0.0,0.0,0.0,0.0,0.0,0.0,0.0,0.0,0.0,0.0,0.0,0.0,0.0,0.0,0.0,0.0,0.0,0.0,0.0,0.0,0.0,0.0,0.0,0.0,0.0,0.0,0.0,0.0,0.0,0.0,0.0,0.0,0.0,0.0,0.0,0.0,0.0,0.0,0.0,0.0,0.0,0.0,0.0,0.0,0.0,0.0,0.0,0.0,0.0,0.0,0.0,0.0,0.0,0.0,0.0,0.0,0.0,0.0,0.0,0.0,0.0,0.0,0.0,0.0,0.0,0.0,0.0,0.0,0.0,0.0,0.0,0.0,0.0,0.0,0.0,0.0,0.0,0.0,0.0,0.0,0.0,0.0,0.0,0.0,0.0,0.0,0.0,0.0,0.0,0.0,0.0,0.0,0.0,0.0,0.0,0.0,0.0,0.0,0.0,0.0,0.0,0.0,0.0,0.0,0.0,0.0,0.0,0.0,0.0,0.0,0.0,0.0,0.0,0.0,0.0,0.0,0.0,0.0,0.0,0.0,0.0,0.0,0.0,0.0,0.0,0.0,0.0,0.0,0.0,0.0,0.0,0.0,0.0,0.0,0.0,0.0,0.0,0.0,0.0,0.0,0.0,0.0,0.0,0.0,0.0,0.0,0.0,0.0,0.0,0.0,0.0,0.0,0.0,0.0,0.0,0.0,0.0,0.0,0.0,0.0,0.0,0.0,0.0,0.0,0.0,0.0,0.0,0.0,0.0,0.0,0.0,0.0,0.0,0.0,0.0,0.0,0.0,0.0,0.0,0.0,0.0,0.0,0.0,0.0,0.0,0.0,0.0,0.0,0.0,0.0,0.0,0.0,0.0,0.0,0.0,0.0,0.0,0.0,0.0,0.0,0.0,0.0,0.0,0.0,0.0,0.0,0.0,0.0,0.0,0.0,0.0,0.0,0.0,0.0,0.0,0.0,0.0,0.0,0.0,0.0,0.0,0.0,0.0,0.0,0.0,0.0,0.0,0.0,0.0,0.0,0.0,0.0,0.0,0.0,0.0,0.0,0.0,0.0,0.0,0.0,0.0,0.0,0.0,0.0,0.0,0.0,0.0,0.0,0.0,0.0,0.0,0.0,0.0,0.0,0.0,0.0,0.0,0.0,0.0,0.0,0.0,0.0,0.0,0.0,0.0,0.0,0.0,0.0,0.0,0.0,0.0,0.0,0.0,0.0,0.0,0.0,0.0,0.0,0.0,0.0,0.0,0.0,0.0,0.0,0.0,0.0,0.0,0.0,0.0,0.0,0.0,0.0,0.0,0.0,0.0,0.0,0.0,0.0,0.0,0.0,0.0,0.0,0.0,0.0,0.0,0.0,0.0,0.0,0.0,0.0,0.0,0.0,0.0,0.0,0.0,0.0,0.0,0.0,0.0,0.0,0.0,0.0,0.0,0.0,0.0,0.0,0.0,0.0,0.0,0.0,0.0,0.0,0.0,0.0,0.0,0.0,0.0,0.0,0.0,0.0,0.0,0.0,0.0,0.0,0.0,0.0,0.0,0.0,0.0,0.0,0.0,0.0,0.0,0.0,0.0,0.0,0.0,0.0,0.0,0.0,0.0,0.0,0.0,0.0,0.0,0.0,0.0,0.0,0.0,0.0,0.0,0.0,0.0,0.0,0.0,0.0,0.0,0.0,0.0,0.0,0.0,0.0,0.0,0.0,0.0,0.0,0.0,0.0,0.0,0.0,0.0,0.0,0.0,0.0,0.0,0.0,0.0,0.0,0.0,0.0,0.0,0.0,0.0,0.0,0.0,0.0,0.0,0.0,0.0,0.0,0.0,0.0,0.0,0.0,0.0,0.0,0.0,0.0,0.0,0.0,0.0,0.0,0.0,0.0,0.0,0.0,0.0,0.0,0.0,0.0,0.0,0.0,0.0,0.0,0.0,0.0,0.0,0.0,0.0,0.0,0.0,0.0,0.0,0.0,0.0,0.0,0.0,0.0,0.0,0.0,0.0,0.0,0.0,0.0,0.0,0.0,0.0,0.0,0.0,0.0,0.0,0.0,0.0,0.0,0.0,0.0,0.0,0.0,0.0,0.0,0.0,0.0,0.0,0.0,0.0,0.0,0.0,0.0,0.0,0.0,0.0,0.0,0.0,0.0,0.0,0.0,0.0,0.0,0.0,0.0,0.0,0.0,0.0,0.0,0.0,0.0,0.0,0.0,0.0,0.0,0.0,0.0,0.0,0.0,0.0,0.0,0.0,0.0,0.0,0.0,0.0,0.0,0.0,0.0,0.0,0.0,0.0,0.0,0.0,0.0,0.0,0.0,0.0,0.0,0.0,0.0,0.0,0.0,0.0,0.0,0.0,0.0,0.0,0.0,0.0,0.0,0.0,0.0,0.0,0.0,0.0,0.0,0.0,0.0,0.0,0.0,0.0,0.0,0.0,0.0,0.0,0.0,0.0,0.0,0.0,0.0,0.0,0.0,0.0,0.0,0.0,0.0,0.0,0.0,0.0,0.0,0.0,0.0,0.0,0.0,0.0,0.0,0.0,0.0,0.0,0.0,0.0,0.0,0.0,0.0,0.0,0.0,0.0,0.0,0.0,0.0,0.0,0.0,0.0,0.0,0.0,0.0,0.0,0.0,0.0,0.0,0.0,0.0,0.0,0.0,0.0,0.0,0.0,0.0,0.0,0.0,0.0,0.0,0.0,0.0,0.0,0.0,0.0,0.0,0.0,0.0,0.0,0.0,0.0,0.0,0.0,0.0,0.0,0.0,0.0,0.0,0.0,0.0,0.0,0.0,0.0,0.0,0.0,0.0,0.0,0.0,0.0,0.0,0.0,0.0,0.0,0.0,0.0,0.0,0.0,0.0,0.0,0.0,0.0,0.0,0.0,0.0,0.0,0.0,0.0,0.0,0.0,0.0,0.0,0.0,0.0,0.0,0.0,0.0,0.0,0.0,0.0,0.0,0.0,0.0,0.0,0.0,0.0,0.0,0.0,0.0,0.0,0.0,0.0,0.0,0.0,0.0,0.0,0.0,0.0,0.0,0.0,0.0,0.0,0.0,0.0,0.0,0.0,0.0,0.0,0.0,0.0,0.0,0.0,0.0,0.0,0.0,0.0,0.0,0.0,0.0,0.0,0.0,0.0,0.0,0.0,0.0,0.0,0.0,0.0,0.0,0.0,0.0,0.0,0.0,0.0,0.0,0.0,0.0,0.0,0.0,0.0,0.0,0.0,0.0,0.0,0.0,0.0,0.0,0.0,0.0,0.0,0.0,0.0,0.0,0.0,0.0,0.0,0.0,0.0,0.0,0.0,0.0,0.0,0.0,0.0,0.0,0.0,0.0,0.0,0.0,0.0,0.0,0.0,0.0,0.0,0.0,0.0,0.0,0.0,0.0,0.0,0.0,0.0,0.0,0.0,0.0,0.0,0.0,0.0,0.0,0.0,0.0,0.0,0.0,0.0,0.0,0.0,0.0,0.0,0.0,0.0,0.0,0.0,0.0,0.0,0.0,0.0,0.0,0.0,0.0,0.0,0.0,0.0,0.0,0.0,0.0,0.0,0.0,0.0,0.0,0.0,0.0,0.0,0.0,0.0,0.0,0.0,0.0,0.0,0.0,0.0,0.0,0.0,0.0,0.0,0.0,0.0,0.0,0.0,0.0,0.0,0.0,0.0,0.0,0.0,0.0,0.0,0.0,0.0,0.0,0.0,0.0,0.0,0.0,0.0,0.0,0.0,0.0,0.0,0.0,0.0,0.0,0.0,0.0,0.0,0.0,0.0,0.0,0.0,0.0,0.0,0.0,0.0,0.0,0.0,0.0,0.0,0.0,0.0,0.0,0.0,0.0,0.0,0.0,0.0,0.0,0.0,0.0,0.0,0.0,0.0,0.0,0.0,0.0,0.0,0.0,0.0,0.0,0.0,0.0,0.0,0.0,0.0,0.0,0.0,0.0,0.0,0.0,0.0,0.0,0.0,0.0,0.0,0.0,0.0,0.0,0.0,0.0,0.0,0.0,0.0,0.0,0.0,0.0,0.0,0.0,0.0,0.0,0.0,0.0,0.0,0.0,0.0,0.0,0.0,0.0,0.0,0.0,0.0,0.0,0.0,0.0,0.0,0.0,0.0,0.0,0.0,0.0,0.0,0.0,0.0,0.0,0.0,0.0,0.0,0.0,0.0,0.0,0.0,0.0,0.0,0.0,0.0,0.0,0.0,0.0,0.0,0.0,0.0,0.0,0.0,0.0,0.0,0.0,0.0,0.0,0.0,0.0,0.0,0.0,0.0,0.0,0.0,0.0,0.0,0.0,0.0,0.0,0.0,0.0,0.0,0.0,0.0,0.0,0.0,0.0,0.0,0.0,0.0,0.0,0.0,0.0,0.0,0.0,0.0,0.0,0.0,0.0,0.0,0.0,0.0,0.0,0.0,0.0,0.0,0.0,0.0,0.0,0.0,0.0,0.0,0.0,0.0,0.0,0.0,0.0,0.0,0.0,0.0,0.0,0.0,0.0,0.0,0.0,0.0,0.0,0.0,0.0,0.0,0.0,0.0,0.0,0.0,0.0,0.0,0.0,0.0,0.0,0.0,0.0,0.0,0.0,0.0,0.0,0.0,0.0,0.0,0.0,0.0,0.0,0.0,0.0,0.0,0.0,0.0,0.0,0.0,0.0,0.0,0.0,0.0,0.0,0.0,0.0,0.0,0.0,0.0,0.0,0.0,0.0,0.0,0.0,0.0,0.0,0.0,0.0,0.0,0.0,0.0,0.0,0.0,0.0,0.0,0.0,0.0,0.0,0.0,0.0,0.0,0.0,0.0,0.0,0.0,0.0,0.0,0.0,0.0,0.0,0.0,0.0,0.0,0.0,0.0,0.0,0.0,0.0,0.0,1.8421,1.6745,0.0,0.0,0.0,0.0,0.0,0.0,0.0,0.0,0.0,0.0,0.0,0.0,0.0,0.0,0.0,0.0,0.0,0.0,0.0,0.0,0.0,0.0,0.0,0.0,0.0,0.0,0.0,0.0,0.0,0.0,0.0,0.0,0.0,0.0,0.0,0.0,0.0,0.0,1.6445,1.7701,1.9238,1.918,1.9082,1.8906,0.0,0.0,0.0,0.0,0.0,0.0,0.0,0.0,0.0,0.0,0.0,0.0,0.0,0.0,0.0,0.0,0.0,0.0,0.0,0.0,0.0,0.0,0.0,0.0,0.0,0.0,0.0,0.0,0.0,0.0,0.0,0.0,0.0,0.0,0.0,0.0,0.0,0.0,0.0,0.0,0.0,0.0,0.0,0.0,0.0,0.0,0.0,0.0,0.0,0.0,0.0,0.0,0.0,0.0,0.0,0.0,0.0,0.0,0.0,0.0,0.0,0.0,0.0,0.0,0.0,0.0,0.0,0.0,0.0,0.0,2.0539,1.9129,0.0,0.0,0.0,0.0,0.0,0.0,0.0,0.0,0.0,0.0,0.0,0.0,0.0,0.0,0.0,0.0,0.0,0.0,0.0,0.0,0.0,0.0,0.0,0.0,0.0,0.0,0.0,0.0,0.0,0.0,0.0,0.0,0.0,0.0,0.0,1.585,1.6359,1.6652,0.0,0.0,2.1582,2.2363,2.1973,0.0,0.0,0.0,0.0,0.0,0.0,0.0,0.0,0.0,0.0,0.0,0.0,0.0,0.0,0.0,0.0,0.0,0.0,0.0,0.0,0.0,0.0,0.0,0.0,0.0,0.0,0.0,0.0,0.0,0.0,0.0,0.0,0.0,0.0,0.0,0.0,0.0,0.0,0.0,0.0,0.0,0.0,0.0,0.0,0.0,0.0,0.0,0.0,0.0,0.0,0.0,0.0,0.0,0.0,0.0,0.0,0.0,0.0,0.0,0.0,0.0,0.0,0.0,0.0,0.0,2.5574,2.5717,2.543,2.5626,2.5093,2.3977,2.3002,2.2065,2.1127,2.0172,0.0,0.0,0.0,0.0,0.0,0.0,0.0,0.0,0.0,0.0,0.0,0.0,0.0,0.0,0.0,0.0,0.0,0.0,0.0,0.0,0.0,0.0,0.0,0.0,0.0,0.0,0.0,0.0,0.0,0.0,0.0,0.0,1.6453,1.6551,1.7383,1.8867,0.0,0.0,2.2953,2.3398,2.3496,2.3262,0.0,0.0,0.0,0.0,0.0,0.0,0.0,0.0,0.0,0.0,0.0,0.0,0.0,0.0,0.0,0.0,0.0,0.0,0.0,0.0,0.0,0.0,0.0,0.0,0.0,0.0,0.0,0.0,0.0,0.0,0.0,0.0,0.0,0.0,0.0,0.0,0.0,0.0,0.0,0.0,0.0,0.0,0.0,0.0,2.41,2.4687,0.0,0.0,0.0,0.0,0.0,0.0,0.0,0.0,0.0,0.0,0.0,0.0,0.0,2.5613,2.6563,2.6535,2.6658,2.6944,2.7964,2.7673,2.6363,2.7295,2.7111,2.6054,2.551,0.0,2.2268,2.2113,0.0,0.0,0.0,0.0,0.0,0.0,0.0,0.0,0.0,0.0,0.0,0.0,0.0,0.0,0.0,0.0,0.0,0.0,0.0,0.0,0.0,0.0,0.0,0.0,0.0,0.0,0.0,0.0,0.0,0.0,0.0,1.709,1.709,1.8281,1.9961,2.2168,2.3301,2.4238,2.5028,2.541,2.5605,2.5586,2.541,2.4082,2.2012,2.2012,0.0,0.0,0.0,0.0,0.0,0.0,0.0,0.0,0.0,0.0,0.0,0.0,0.0,0.0,0.0,0.0,0.0,0.0,0.0,0.0,0.0,0.0,0.0,0.0,0.0,0.0,0.0,0.0,0.0,0.0,0.0,0.0,0.0,0.0,0.0,0.0,0.0,0.0,0.0,2.4619,2.5539,2.5419,2.5746,2.5494,0.0,0.0,0.0,0.0,0.0,0.0,0.0,0.0,0.0,2.7505,2.8067,2.8666,2.9374,2.9374,2.9477,2.9611,3.0089,2.9926,2.9275,2.9724,2.9357,2.8342,2.8133,2.7144,2.5572,2.4681,2.3991,2.3431,0.0,0.0,0.0,0.0,2.1191,2.1055,0.0,0.0,0.0,0.0,0.0,0.0,0.0,0.0,0.0,0.0,0.0,0.0,1.2686,0.0,0.0,1.7313,0.0,0.0,0.0,0.0,0.0,0.0,1.8144,1.8237,1.8237,2.0331,2.2441,2.459,2.4922,2.5586,2.6562,2.6875,2.7012,2.7012,2.7012,2.5762,2.3633,2.3633,2.3086,0.0,0.0,0.0,0.0,0.0,0.0,0.0,0.0,0.0,0.0,0.0,0.0,0.0,0.0,0.0,0.0,0.0,0.0,0.0,0.0,0.0,0.0,0.0,0.0,0.0,0.0,0.0,0.0,0.0,0.0,0.0,0.0,0.0,0.0,0.0,0.0,0.0,0.0,2.617,2.7119,2.692,2.7331,2.7162,0.0,0.0,0.0,0.0,0.0,0.0,2.7352,2.8458,2.9391,3.0112,3.0844,3.1436,3.1813,3.1813,3.1738,3.1612,3.1612,3.1537,3.1386,3.1386,3.0951,3.0205,3.0205,2.9719,2.8796,2.7084,2.5934,2.5165,2.4724,2.3866,2.2806,2.249,2.2363,2.2383,0.0,0.0,0.0,0.0,0.0,0.0,0.0,0.0,0.0,0.0,0.0,1.253,0.0,0.0,1.6593,1.9417,1.9716,1.9966,0.0,0.0,0.0,1.9824,2.0176,2.0449,2.0449,2.2519,2.4102,2.5086,2.6269,2.6914,2.6992,2.7012,2.7012,2.7012,2.7012,2.625,2.5008,2.5008,2.4284,2.311,0.0,0.0,0.0,0.0,0.0,0.0,0.0,0.0,0.0,0.0,0.0,0.0,0.0,0.0,0.0,0.0,0.0,0.0,0.0,0.0,0.0,0.0,0.0,0.0,0.0,0.0,0.0,0.0,0.0,0.0,0.0,0.0,0.0,0.0,0.0,0.0,0.0,0.0,0.0,3.0223,3.0388,0.0,0.0,0.0,0.0,2.7406,2.8208,2.9449,3.1038,3.1204,3.1772,3.2875,3.2943,3.3011,3.2993,3.2993,3.2717,3.2164,3.2164,3.1888,3.1386,3.1386,3.1386,3.1304,3.1304,3.1304,3.1075,2.8905,2.7957,2.7739,2.613,2.5483,2.5288,2.4118,2.3691,2.375,0.0,0.0,0.0,1.068,1.0586,1.0586,1.0586,1.0747,1.0942,1.1236,1.2118,1.3035,0.0,1.5748,1.7341,1.8383,1.9484,2.0144,2.0034,0.0,0.0,0.0,1.9137,2.0426,2.2617,2.4219,2.5605,2.6789,2.7207,2.7578,2.7832,2.7832,2.7832,2.7832,2.7832,2.7422,2.6769,2.6445,2.5742,2.4785,2.4336,2.3418,0.0,0.0,0.0,0.0,0.0,0.0,0.0,0.0,0.0,0.0,0.0,0.0,0.0,0.0,0.0,0.0,0.0,0.0,0.0,0.0,0.0,0.0,0.0,0.0,0.0,0.0,0.0,0.0,0.0,0.0,0.0,0.0,0.0,0.0,0.0,0.0,0.0,3.0532,3.0608,0.0,2.9337,2.971,2.9699,2.9015,3.0892,3.2318,3.2916,3.3926,3.4661,3.5089,3.5116,3.5116,3.5116,3.5116,3.5008,3.4768,3.4768,3.4324,3.3539,3.3539,3.3152,3.2466,3.2466,3.2466,3.2423,3.1632,3.0467,2.9145,2.8553,2.7368,2.6009,2.5585,2.4887,2.4219,0.0,0.0,0.0,1.068,1.0586,1.0626,1.072,1.0908,1.1249,1.1931,1.2893,1.3801,1.4546,1.6462,1.7911,1.8607,1.9744,2.0357,2.0102,0.0,0.0,0.0,0.0,2.1423,2.4098,2.5479,2.6719,2.7871,2.7871,2.8027,2.8281,2.778,2.7833,2.8301,2.778,2.768,2.7851,2.7578,2.6953,2.6083,2.5684,2.4746,2.3496,0.0,0.0,0.0,0.0,0.0,0.0,0.0,0.0,0.0,0.0,0.0,0.0,0.0,0.0,0.0,0.0,0.0,0.0,0.0,0.0,0.0,0.0,0.0,0.0,0.0,0.0,0.0,0.0,0.0,0.0,0.0,0.0,0.0,0.0,2.998,3.0532,3.1085,3.116,3.1085,3.0909,3.1396,3.1661,3.1482,3.3476,3.4647,3.4607,3.5635,3.6212,3.6212,3.6212,3.6212,3.6212,3.6212,3.6294,3.6515,3.6294,3.5964,3.556,3.5304,3.4609,3.3641,3.3641,3.3428,3.3111,3.3111,3.2233,3.0864,3.0414,2.9311,2.7832,2.7043,2.6197,2.5405,0.0,0.0,1.0883,1.0608,1.06,1.0707,1.0955,1.1009,1.1543,1.3026,1.3748,1.4776,1.6526,1.7248,1.8409,2.0283,2.0451,2.0514,2.0716,2.1109,0.0,0.0,0.0,0.0,2.4663,2.6172,2.7305,2.8174,2.8174,2.8174,2.8121,2.6717,2.6771,2.8121,2.6717,0.0,0.0,0.0,0.0,2.7012,2.6602,2.6172,2.5538,0.0,0.0,0.0,0.0,0.0,0.0,0.0,0.0,0.0,0.0,0.0,0.0,0.0,0.0,0.0,0.0,0.0,0.0,0.0,0.0,0.0,0.0,0.0,0.0,0.0,0.0,0.0,0.0,0.0,0.0,0.0,0.0,0.0,3.0583,3.111,3.1612,3.2164,3.2282,3.2508,3.3104,3.371,3.4299,3.4733,3.5856,3.6452,3.6279,3.6318,3.633,3.633,3.633,3.633,3.633,3.633,3.6662,3.7312,3.6662,3.6718,3.7272,3.6595,3.5722,3.4786,3.4718,3.4121,3.3154,3.3111,3.3111,3.2982,3.1733,3.1223,3.0911,2.8588,2.7673,2.741,0.753,0.8957,1.0089,0.9737,1.0341,1.0902,1.0982,1.1356,1.2091,1.332,1.4229,1.5357,1.6911,1.7555,1.8171,1.8988,1.9071,1.8973,1.8752,0.0,0.0,0.0,0.0,0.0,2.2701,2.399,2.4795,2.5041,2.5041,2.5041,2.5058,2.4599,0.0,0.0,0.0,0.0,0.0,0.0,0.0,0.0,0.0,0.0,2.6582,0.0,0.0,0.0,0.0,0.0,0.0,0.0,0.0,0.0,0.0,0.0,0.0,0.0,0.0,0.0,0.0,0.0,0.0,0.0,0.0,0.0,0.0,0.0,0.0,0.0,0.0,0.0,0.0,0.0,0.0,0.0,3.1035,3.1612,3.1763,3.1888,3.219,3.2767,3.3553,3.4079,3.4304,3.5547,3.6387,3.666,3.8042,3.8614,3.8118,3.8812,3.9015,3.8546,3.8517,3.8517,3.8517,3.8986,3.9337,3.9513,3.9844,3.9664,3.907,3.8375,3.7501,3.6429,3.5248,3.4553,3.4178,3.3428,3.3111,3.3068,3.2698,3.1996,3.1134,3.044,2.9074,2.741,0.728,0.8398,0.9346,0.8974,0.9467,1.0103,1.0669,1.1042,1.1964,0.0,1.4643,1.5665,1.7341,1.7956,1.8357,1.8651,1.8677,1.8544,1.825,0.0,0.0,0.0,0.0,2.1161,2.1735,2.3106,2.3822,2.3822,2.3822,2.3822,2.3766,0.0,0.0,0.0,0.0,0.0,0.0,0.0,0.0,0.0,0.0,0.0,2.6953,2.6348,2.5723,2.5098,2.4492,2.4277,2.4199,2.3887,0.0,0.0,0.0,0.0,0.0,0.0,0.0,0.0,0.0,0.0,0.0,0.0,0.0,0.0,0.0,0.0,0.0,0.0,0.0,0.0,0.0,0.0,0.0,0.0,3.1662,3.229,3.2541,3.2566,3.2692,3.3086,3.4037,3.4903,3.5462,3.7194,3.842,3.8714,4.0076,4.0598,3.9924,4.0486,4.0516,3.9858,3.9828,3.9709,3.9373,4.0068,4.0546,4.0816,4.1205,4.1237,4.0871,3.9924,3.8881,3.7765,3.6075,3.5102,3.4635,3.3556,3.3111,3.3111,0.0,0.0,0.0,0.0,2.8912,2.6736,0.7236,0.796,0.8541,0.8301,0.8353,0.8892,1.0192,1.0454,1.1597,0.0,0.0,1.5792,1.7769,1.8317,1.8611,1.8905,1.8918,1.8798,0.0,0.0,0.0,1.8905,2.0272,2.1133,2.1358,2.2645,2.3319,2.3319,2.3319,0.0,0.0,0.0,0.0,0.0,0.0,0.0,0.0,0.0,0.0,0.0,0.0,0.0,2.6992,2.6142,2.5343,2.4609,2.3867,2.3594,2.3588,2.3965,0.0,0.0,0.0,0.0,0.0,0.0,0.0,0.0,0.0,0.0,0.0,0.0,0.0,0.0,0.0,0.0,0.0,0.0,0.0,0.0,0.0,0.0,0.0,0.0,3.1964,3.2491,3.2993,3.3197,3.324,3.3111,3.422,3.5473,3.6561,3.868,4.0242,4.0885,4.1922,4.2231,4.1572,4.1542,0.0,0.0,0.0,4.0127,3.9529,4.0187,4.0816,4.1422,4.1534,4.1961,4.247,4.1115,3.9971,3.9006,3.7029,3.5694,3.4774,3.3598,3.3111,3.3111,3.3111,3.3025,3.2612,3.0283,2.7977,2.6006,0.6303,0.6974,0.7533,0.7388,0.8121,0.9114,1.0215,1.0771,1.1985,1.4661,1.5164,1.6005,1.7796,1.8317,1.8611,1.8905,1.8918,1.8798,0.0,0.0,1.8798,1.8861,1.9432,1.9754,1.9809,2.0097,2.0256,2.0256,0.0,0.0,0.0,0.0,0.0,0.0,0.0,0.0,0.0,0.0,0.0,0.0,0.0,0.0,2.748,2.6973,2.666,2.6484,2.6328,2.6269,2.623,2.5977,2.6335,2.6868,2.7112,0.0,0.0,0.0,0.0,0.0,0.0,0.0,0.0,0.0,0.0,0.0,0.0,0.0,0.0,0.0,0.0,0.0,0.0,0.0,0.0,3.2039,3.2541,3.2943,3.3068,3.3827,3.4079,3.3197,3.5548,3.7372,3.78,3.9834,4.1564,4.2713,4.2962,4.2851,4.2261,4.2201,4.1901,4.1205,4.0666,4.0337,4.0217,4.0876,4.1265,4.1384,4.2462,0.0,4.305,4.1773,4.1099,4.0707,3.7579,3.6093,3.5774,3.3869,3.3111,3.3111,3.3111,3.2481,3.14,2.9966,2.8686,2.7585,0.6281,0.653,0.6791,0.6708,0.7165,0.7924,0.9034,0.9897,1.1284,1.3617,1.45,1.5458,1.6743,1.7328,1.7716,1.8009,1.845,0.0,0.0,1.8758,1.8985,1.9132,1.9292,1.9439,1.9586,1.9586,1.9653,0.0,0.0,0.0,0.0,0.0,0.0,0.0,0.0,0.0,0.0,0.0,0.0,0.0,0.0,0.0,2.5302,2.6327,2.6562,2.6317,2.6317,2.6317,2.6317,2.6387,2.6467,2.6613,2.6883,2.7526,2.8178,0.0,0.0,0.0,0.0,0.0,0.0,0.0,0.0,0.0,0.0,0.0,0.0,0.0,0.0,3.1386,3.1386,0.0,3.2215,3.2215,3.3173,3.3911,3.3911,3.5264,3.5669,3.4079,3.6515,3.8484,3.896,4.0744,4.2282,4.323,4.329,4.314,4.288,4.2851,4.2551,4.1931,4.1602,4.1055,4.0397,4.1422,4.1752,4.1422,4.2701,4.329,4.326,4.142,4.0597,4.0393,3.6964,3.544,3.5319,3.3742,3.2698,3.2152,3.2152,3.14,3.026,2.9849,2.8662,2.7299,0.6566,0.6463,0.6368,0.6313,0.632,0.6727,0.7826,0.8864,1.0284,1.2505,1.3617,1.4641,1.5691,1.6353,1.6847,0.0,0.0,0.0,0.0,1.8811,1.9118,1.9417,1.943,1.9506,1.9786,0.0,0.0,0.0,0.0,0.0,0.0,0.0,0.0,0.0,0.0,0.0,0.0,0.0,0.0,0.0,0.0,0.0,2.2343,2.4601,2.5424,2.5333,2.5577,2.5635,2.5664,2.6113,2.5977,2.5684,2.6133,2.6729,2.7338,2.7744,2.8914,0.0,0.0,0.0,0.0,0.0,0.0,0.0,0.0,0.0,3.1587,3.1687,3.1712,3.1712,3.1712,3.2089,3.2365,3.2365,3.3518,3.4387,3.4387,3.616,3.6866,3.5183,3.7428,3.9296,3.9776,4.1381,4.2641,4.323,4.329,4.329,4.329,4.329,4.309,4.262,4.247,4.1901,4.0786,4.1871,4.2141,4.1632,4.2525,4.2981,4.2911,4.0532,3.9476,3.931,3.6103,3.4594,3.4304,3.3471,3.2326,3.1223,3.1223,3.0374,2.9227,2.9509,2.8376,2.6738,0.6702,0.6661,0.6566,0.6347,0.6402,0.681,0.7842,0.8451,0.979,1.2464,1.3112,1.3985,1.5623,1.6353,1.6927,1.7488,0.0,0.0,1.849,1.9011,1.9332,1.943,1.943,1.9506,0.0,0.0,0.0,0.0,0.0,0.0,0.0,0.0,0.0,0.0,0.0,0.0,0.0,0.0,0.0,0.0,0.0,0.0,2.0095,2.1623,2.2902,2.4097,2.5284,2.5488,2.5215,2.5664,2.5508,2.5215,2.5664,2.583,2.6232,2.798,0.0,2.9072,3.0278,3.0658,3.0708,3.0708,3.1009,3.1436,0.0,3.2114,3.2265,3.2792,3.2893,3.2893,3.2893,3.2943,3.2993,3.2993,3.3147,3.3283,3.3283,3.5075,3.629,3.6053,3.8505,4.0119,3.9816,4.1381,4.2641,4.323,4.329,4.329,4.329,4.329,4.326,4.32,4.2671,4.2321,4.2171,4.2321,4.2351,4.2291,4.1953,4.1794,4.1724,3.9365,3.831,3.8145,3.5733,3.4163,3.3283,3.3154,3.2326,3.1223,3.1223,3.0033,2.8332,2.8374,2.8073,2.7591,0.6844,0.6763,0.6661,0.6539,0.6566,0.6798,0.7296,0.8136,0.9127,1.0357,1.1794,1.2965,1.3684,1.5053,1.6179,1.6767,1.7689,1.8303,1.8477,1.9038,1.943,1.943,0.0,0.0,0.0,0.0,0.0,0.0,0.0,0.0,0.0,0.0,0.0,0.0,0.0,0.0,0.0,0.0,0.0,0.0,0.0,0.0,1.8819,2.0013,2.0845,2.1576,2.343,2.4526,0.0,0.0,2.5215,2.5184,2.5557,2.5566,2.5627,2.7066,2.7831,0.0,3.0918,3.1311,3.121,3.1888,3.1964,3.2014,3.2591,3.2717,3.2792,3.3061,3.3111,3.3111,3.3111,3.3111,3.3111,3.3111,3.3641,3.4037,3.4037,3.5278,3.6587,3.7579,3.9093,4.0197,4.0683,4.2049,4.303,4.326,4.329,4.329,4.329,4.329,4.329,4.329,4.306,4.291,4.291,4.291,4.291,4.294,4.2672,4.2234,4.1517,3.92,3.7096,3.5152,3.4202,3.3513,3.3025,3.2283,3.1267,3.0125,2.9617,2.8663,2.7602,2.8276,2.8208,2.7748,0.6943,0.6898,0.6824,0.6824,0.6824,0.6844,0.6876,0.7683,0.8433,0.8825,1.0356,1.1617,1.2342,1.4085,1.5391,1.5979,1.7034,1.7836,0.0,1.8865,1.9279,0.0,0.0,0.0,0.0,0.0,0.0,0.0,0.0,0.0,0.0,0.0,0.0,0.0,0.0,0.0,0.0,0.0,0.0,0.0,0.0,0.0,1.7996,1.8741,1.9221,1.9821,2.2152,2.3684,0.0,0.0,2.5028,2.4961,2.541,2.5254,2.5117,2.6284,2.7369,2.8645,3.0912,0.0,3.1612,3.2591,3.2641,3.2566,3.2993,3.3111,3.3111,3.3111,3.3111,3.3162,3.3269,3.3294,3.3345,3.3495,3.4076,3.4507,3.4689,3.533,3.6356,3.7922,3.8802,3.9812,4.1056,4.2445,4.329,4.329,4.329,4.329,4.329,4.329,4.317,4.286,4.317,4.307,4.2609,4.2758,4.2758,4.2609,4.2117,4.142,4.0562,3.844,3.5989,3.352,3.352,3.3346,3.2926,3.1989,3.0675,2.9211,2.8731,2.8045,2.7486,2.8472,2.8396,2.7838,0.7092,0.7085,0.7085,0.7085,0.7085,0.7038,0.691,0.7041,0.757,0.8755,0.8973,0.9954,1.2499,1.3855,1.4776,1.5364,1.6233,1.6994,1.7569,1.8437,1.9065,0.0,0.0,0.0,0.0,0.0,0.0,0.0,0.0,0.0,0.0,0.0,0.0,0.0,0.0,0.0,0.0,0.0,0.0,0.0,0.0,0.0,1.7595,1.7635,1.833,1.9552,2.2114,0.0,0.0,0.0,2.4785,2.4512,2.4941,2.4785,0.0,2.5924,2.7538,2.9011,2.9684,3.0646,3.1537,3.2089,3.2641,3.3086,3.3111,3.3111,3.3111,3.3111,3.3111,3.3244,3.3771,3.3872,3.4048,3.4575,3.4223,3.4117,3.4645,3.4736,3.5156,3.6234,3.7365,3.874,4.0469,4.2246,4.329,4.329,4.329,4.329,4.329,4.329,4.282,4.167,4.271,4.2485,4.0803,4.1369,4.1369,4.0758,3.9069,3.8243,3.8126,3.6376,3.5248,3.4675,3.4675,3.39,3.2698,3.2651,3.1165,2.8844,2.9304,2.8981,2.8301,2.8765,2.8667,2.8101,0.7312,0.7292,0.7258,0.7112,0.7098,0.7078,0.7031,0.7065,0.7231,0.7665,0.8412,0.0,0.0,0.0,0.0,0.0,1.5253,1.646,1.73,1.7956,0.0,0.0,0.0,0.0,0.0,0.0,0.0,0.0,0.0,0.0,0.0,0.0,0.0,0.0,0.0,0.0,0.0,0.0,0.0,0.0,0.0,0.0,1.7367,1.7515,1.7585,1.7767,0.0,0.0,0.0,0.0,0.0,0.0,2.459,2.4336,2.4211,2.5378,2.6911,2.8514,2.982,3.1052,3.2064,3.2641,3.2943,3.3111,3.3111,3.3111,3.3194,3.3545,3.3621,3.3796,3.4349,3.4449,3.45,3.47,3.4575,3.45,3.4655,3.4686,3.5259,3.6779,3.7297,3.8206,3.9955,4.1347,4.2152,4.2152,4.2152,4.1864,4.1085,4.1042,4.0873,4.049,4.1184,4.1518,4.1377,4.1123,4.1123,4.1332,3.9149,3.7896,3.7527,3.6131,3.5207,3.468,3.3766,3.3142,3.2559,3.0804,2.9612,2.8807,2.8744,2.8516,2.8272,2.7827,2.7641,2.7437,0.0,0.0,0.0,0.0,0.0,0.0,0.0,0.0,0.0,0.0,0.0,0.0,0.0,0.0,0.0,0.0,0.0,1.5367,1.6163,1.7279,0.0,0.0,0.0,0.0,0.0,0.0,0.0,0.0,0.0,0.0,0.0,0.0,0.0,0.0,0.0,0.0,0.0,0.0,0.0,0.0,0.0,0.0,1.7206,1.7235,1.6967,0.0,0.0,0.0,0.0,0.0,0.0,2.4414,2.4414,2.4121,2.3943,2.48,2.5969,2.7414,2.9337,3.0654,3.1808,3.2832,3.3111,3.3111,3.3111,3.3244,3.347,3.3822,3.4048,3.4349,3.4881,3.4981,3.5031,3.5278,3.5152,3.5031,3.5278,3.4977,3.5249,3.6781,3.6767,3.7366,0.0,0.0,4.0547,4.0958,4.1,4.0661,3.9956,3.9913,3.9711,3.9271,4.0024,4.0404,4.0415,4.0167,4.0059,4.0094,3.8306,3.7312,3.6949,3.6176,3.5655,3.5211,3.3906,3.3006,3.2383,3.04,2.927,2.8859,2.8937,2.8636,2.8086,2.7721,2.6749,2.5645,0.0,0.0,0.0,0.0,0.0,0.0,0.0,0.0,0.0,0.0,0.0,0.0,0.0,0.0,0.0,0.0,0.0,0.0,1.4398,0.0,0.0,0.0,0.0,0.0,0.0,0.0,0.0,0.0,0.0,0.0,0.0,0.0,0.0,0.0,0.0,0.0,0.0,0.0,0.0,0.0,0.0,0.0,1.7125,1.6807,0.0,0.0,0.0,0.0,0.0,0.0,0.0,2.4394,2.4414,2.4141,2.3906,2.4336,2.4912,2.595,2.8188,2.9523,3.0778,3.2513,3.2989,3.3032,3.3032,3.3477,3.3897,3.3947,3.4324,3.4806,0.0,0.0,3.5683,3.6329,3.5931,3.578,3.6329,3.5454,3.5203,0.0,0.0,0.0,0.0,0.0,3.8469,3.9623,3.9754,3.9754,3.9711,3.9711,3.9183,3.8062,3.9193,3.92,3.799,3.8566,3.8282,3.7186,3.6586,3.631,3.6405,3.6263,3.6216,3.6216,3.4824,3.3426,3.2145,3.1253,3.0079,2.8859,2.975,2.9067,2.771,2.8027,2.6011,2.3066,0.0,0.0,0.0,0.0,0.0,0.0,0.0,0.0,0.0,0.0,0.0,0.0,0.0,0.0,0.0,0.0,0.0,0.0,1.385,0.0,0.0,0.0,0.0,0.0,0.0,0.0,0.0,0.0,0.0,0.0,0.0,0.0,0.0,0.0,0.0,0.0,0.0,0.0,0.0,0.0,0.0,0.0,1.6563,0.0,0.0,0.0,0.0,0.0,0.0,0.0,2.2059,2.4004,2.4316,2.4336,2.4336,2.4766,2.569,2.6785,2.804,2.9,2.9829,3.0606,3.1591,3.2337,3.2337,3.3153,3.4022,3.4424,3.4299,3.4399,3.5332,3.5508,3.5683,3.6329,3.6279,0.0,3.638,3.6179,0.0,3.638,0.0,3.6348,3.6777,3.6849,0.0,3.7289,3.8088,3.8225,3.7335,3.7289,3.715,3.6849,3.7925,3.8321,3.799,3.8133,3.7855,3.7186,3.5624,3.5427,3.631,3.4289,3.3897,3.4775,3.2404,3.1327,3.12,2.9964,2.8677,2.76,2.8171,2.7404,2.5846,2.508,2.424,2.3254,0.0,0.0,0.0,0.0,0.0,0.0,0.0,0.0,0.0,0.0,0.0,0.0,0.0,0.0,0.0,0.0,0.0,0.0,0.0,0.0,0.0,0.0,0.0,0.0,0.0,0.0,0.0,0.0,0.0,0.0,0.0,0.0,0.0,0.0,0.0,0.0,0.0,0.0,0.0,0.0,0.0,0.0,0.0,0.0,0.0,0.0,0.0,0.0,0.0,0.0,0.0,2.4141,2.457,2.4844,2.5078,2.5508,2.6156,2.6969,2.8133,2.8791,2.9266,2.9878,3.1182,3.2108,3.1134,3.2644,3.414,3.365,3.3941,3.4525,3.5332,3.5508,3.5683,0.0,0.0,0.0,3.6405,3.6405,3.6405,0.0,3.6405,0.0,3.6405,3.6405,3.6405,3.6405,3.6964,3.7057,3.6452,3.6405,3.6405,3.6405,3.7186,3.7889,3.8391,3.774,3.7592,3.7914,3.5289,3.4778,3.6064,3.3848,3.3288,3.3922,3.181,3.1135,3.1358,2.9405,2.8194,2.762,2.7285,2.6121,2.4511,2.387,2.3139,2.2341,0.0,0.0,0.0,0.0,0.0,0.0,0.0,0.0,0.0,0.0,0.7638,0.7597,0.0,0.0,0.0,0.0,0.0,0.0,0.0,0.0,0.0,0.0,0.0,0.0,0.0,0.0,0.0,0.0,0.0,0.0,0.0,0.0,0.0,0.0,0.0,0.0,0.0,0.0,0.0,0.0,0.0,0.0,0.0,0.0,0.0,0.0,0.0,0.0,0.0,0.0,2.2162,2.428,2.5011,2.5508,2.5849,2.6348,2.6465,2.6793,2.8275,2.8587,2.876,2.9498,3.1031,3.1785,2.9799,3.1852,3.3756,3.2196,3.298,3.4222,3.5027,3.5151,3.5444,3.6257,0.0,3.6405,3.6405,3.6405,3.6405,3.6405,3.6405,3.6405,3.6405,3.6405,3.6405,3.6405,3.6405,3.6405,3.6405,3.6405,3.643,3.6505,3.6841,3.7543,3.859,3.7132,3.7004,3.826,3.4952,3.4125,3.5446,3.3787,3.3153,3.3259,3.1671,3.1209,3.1437,2.888,2.7758,2.7667,2.6516,2.4906,2.3263,2.3263,2.2341,2.1109,0.0,0.0,0.0,0.0,0.0,0.0,0.0,0.0,0.0,0.0,0.7828,0.7597,0.0,0.0,0.0,0.0,0.0,0.0,0.0,0.0,0.0,0.0,0.0,0.0,0.0,0.0,0.0,0.0,0.0,0.0,0.0,0.0,0.0,0.0,0.0,0.0,0.0,0.0,0.0,0.0,0.0,0.0,0.0,0.0,0.0,0.0,0.0,0.0,0.0,0.0,2.0762,2.3278,2.5488,2.6211,2.6348,2.6777,2.6914,2.7043,2.7732,2.7625,2.7427,2.7961,2.9164,3.0013,2.926,3.0378,0.0,3.067,3.0399,3.0951,3.2954,3.3332,3.4019,3.6041,3.6405,3.6405,3.6405,3.6405,3.6405,0.0,3.6405,3.6405,3.6405,3.6405,0.0,3.6405,3.6405,3.6405,3.6405,3.6405,3.6606,3.7036,3.6379,3.6381,3.7056,3.5541,3.4902,3.5169,3.2965,3.2641,3.3915,3.142,3.0894,3.178,2.9063,2.814,2.8394,2.6575,2.5238,2.4425,2.4177,2.3058,2.1538,2.1538,2.1362,2.1109,0.0,0.0,0.0,0.0,0.0,0.0,0.0,0.8092,0.8092,0.8248,0.8085,0.795,0.795,0.7875,0.7828,0.0,0.0,0.0,0.0,0.0,0.0,0.0,0.0,0.0,0.0,0.0,0.0,0.0,0.0,0.0,0.0,0.0,0.0,0.0,0.0,0.0,0.0,0.0,0.0,0.0,0.0,0.0,0.0,0.0,0.0,0.0,0.0,0.0,0.0,0.0,1.9428,2.1107,2.4317,2.6104,2.7051,2.7031,2.7324,2.7676,2.7728,2.7571,2.7402,2.7669,2.8706,2.9366,2.7953,0.0,0.0,2.9136,2.9159,2.9827,3.1251,3.223,0.0,3.477,3.5779,3.6405,3.6405,3.6405,3.6405,3.6405,3.6405,3.6405,3.6405,3.6405,3.6405,3.6405,3.5763,3.5667,3.6358,3.5715,3.5308,3.5123,3.4653,3.4803,3.5617,3.4095,3.3846,3.4875,3.242,3.1981,3.3267,3.1236,3.0158,2.9832,2.8413,2.7535,2.703,2.5346,2.4347,2.3828,2.2898,2.1928,2.1109,2.1109,2.1109,2.1082,0.0,0.0,0.0,0.0,0.0,0.0,0.0,0.8167,0.8153,0.8343,0.8361,0.8333,0.8368,0.818,0.8022,0.0,0.0,0.0,0.0,0.0,0.0,0.0,0.0,0.0,0.0,0.0,0.0,0.0,0.0,0.0,0.0,0.0,0.0,0.0,0.0,0.0,0.0,0.0,0.0,0.0,0.0,0.0,0.0,0.0,0.0,0.0,0.0,0.0,0.0,0.0,1.8345,1.9391,2.2401,2.4999,2.7033,2.7085,2.7637,2.8105,2.7871,2.7865,2.7865,2.7865,2.8589,2.8911,2.6951,2.8367,2.9499,2.7598,2.7955,2.8858,2.967,0.0,3.2394,0.0,3.4965,3.6073,3.6358,3.6405,3.6405,0.0,3.6405,0.0,3.6405,3.6168,0.0,3.5953,3.4727,3.441,3.5451,3.4508,3.3661,3.3038,3.2842,3.3085,3.3807,3.2556,3.272,3.4195,3.1957,3.1498,3.2587,3.1073,2.9648,2.8367,2.7692,2.682,2.584,2.4059,2.3457,2.3393,2.202,2.1309,2.1046,2.0652,2.055,2.0396,0.0,0.0,0.0,0.0,0.0,0.0,0.0,0.8306,0.835,0.8635,0.8438,0.8374,0.8452,0.8336,0.8194,0.0,0.0,0.0,0.0,0.0,0.0,0.0,0.0,0.0,0.0,0.0,0.0,0.0,0.0,0.0,0.0,0.0,0.0,0.0,0.0,0.0,0.0,0.0,0.0,0.0,0.0,0.0,0.0,0.0,0.0,0.0,0.0,0.0,0.0,0.0,0.0,1.9466,2.0051,2.2229,2.4992,2.7052,2.7708,2.7845,2.8144,2.8242,2.8242,2.8242,2.8329,2.8166,2.7148,0.0,2.7061,2.6094,2.5965,2.6569,2.8235,0.0,0.0,0.0,0.0,3.5017,3.6216,3.6405,3.6405,3.6405,0.0,0.0,3.6405,3.5331,3.4581,3.4581,3.3304,3.2532,3.2682,3.2532,3.2454,3.2398,3.1607,3.1254,3.136,3.0716,3.048,3.0653,3.0857,3.0937,3.1054,2.9394,2.8545,2.823,2.533,2.3961,2.3743,2.2069,2.1402,2.1402,2.1212,2.1136,2.0919,1.9355,1.8677,1.8336,0.0,0.0,0.0,0.0,0.0,0.0,0.8248,0.8187,0.8208,0.8418,0.8343,0.8255,0.8221,0.8248,0.8208,0.8002,0.0,0.0,0.0,0.0,0.0,0.0,0.0,0.0,0.0,0.0,1.5784,1.5784,1.5784,0.0,0.0,0.0,0.0,0.0,0.0,0.0,0.0,0.0,0.0,0.0,0.0,0.0,0.0,0.0,0.0,0.0,0.0,0.0,0.0,0.0,0.0,0.0,1.8676,1.985,0.0,0.0,2.6659,2.7637,2.7559,2.7715,2.7969,2.8223,2.8105,2.7754,2.7148,0.0,2.6777,2.5869,2.5693,2.5927,2.6669,2.7971,0.0,0.0,0.0,0.0,3.3848,3.4654,3.4872,3.4044,3.5403,0.0,0.0,0.0,3.3723,3.205,3.144,3.0721,2.9911,3.0669,3.0721,2.9911,2.9591,2.9494,2.9755,2.979,2.9468,2.8779,2.9207,2.892,2.7931,2.7254,2.6409,2.5452,2.4178,2.3014,2.2027,2.1362,2.1109,2.0969,1.9877,1.9424,1.9211,1.7348,1.6662,1.6501,0.0,0.0,0.0,0.0,0.0,0.8092,0.8248,0.818,0.816,0.8316,0.8347,0.8228,0.8119,0.8167,0.816,0.8002,0.7988,0.0,0.0,0.0,0.0,0.0,0.0,0.0,0.0,0.0,1.5784,1.5784,1.5784,1.5784,0.0,0.0,0.0,0.0,0.0,0.0,0.0,0.0,0.0,0.0,0.0,0.0,0.0,0.0,0.0,0.0,0.0,0.0,0.0,0.0,0.0,0.0,0.0,0.0,0.0,0.0,2.5256,2.6641,2.6929,2.7324,2.7826,2.8184,2.7988,2.7559,2.7109,0.0,2.6621,2.5849,2.5693,2.5693,2.5693,2.71,2.84,0.0,0.0,3.1721,3.2208,3.3155,3.3403,3.2431,0.0,3.4435,3.2482,3.2855,3.2202,2.9859,2.9702,2.9303,2.8335,2.9197,2.925,2.8354,2.8301,2.8203,2.8038,2.8533,2.8088,2.6853,2.7346,2.6978,2.588,2.5448,2.4655,2.3574,2.2988,2.2089,2.0975,2.0882,2.0855,2.0641,1.8901,1.8194,1.7921,1.5566,1.4657,1.4527,0.0,0.0,0.0,0.0,0.0,0.0,0.8248,0.832,0.8323,0.8459,0.8357,0.832,0.832,0.8133,0.7988,0.7988,0.7988,0.0,0.0,0.0,0.0,0.0,0.0,0.0,0.0,0.0,1.5784,1.5784,1.5784,1.5784,1.5784,1.5784,1.5784,1.5784,0.0,0.0,0.0,0.0,0.0,0.0,0.0,0.0,0.0,0.0,0.0,0.0,0.0,0.0,0.0,0.0,0.0,0.0,0.0,1.723,0.0,0.0,2.3608,2.4398,2.6454,2.7324,2.7826,2.8184,2.7988,2.7559,2.7109,2.6699,2.6269,2.5771,2.5693,2.5693,2.5693,2.6094,2.7003,0.0,0.0,0.0,3.2062,3.2331,3.2331,0.0,0.0,3.2331,3.228,3.1133,2.9755,2.8441,2.8301,2.8281,2.8301,2.8281,2.8281,2.8301,2.8301,2.7618,2.6155,2.6516,2.5986,2.4554,2.5285,2.5635,2.5592,2.4208,2.3636,2.3497,2.1596,2.0743,2.0655,2.0361,2.0241,2.0059,1.8484,1.7921,1.7491,1.4145,1.2781,1.2398,0.0,0.0,0.0,0.0,0.0,0.0,0.0,0.8113,0.8126,0.8174,0.814,0.8113,0.8113,0.8022,0.7988,0.7988,0.7988,0.0,0.0,0.0,0.0,0.0,0.0,0.0,0.0,1.5784,1.5784,1.5784,1.5784,1.5784,1.5784,1.5784,1.5784,1.5784,1.5784,0.0,0.0,0.0,0.0,0.0,0.0,0.0,0.0,0.0,0.0,0.0,0.0,0.0,0.0,0.0,0.0,0.0,0.0,0.0,0.0,1.9112,2.1733,2.4202,2.5709,2.666,2.7246,2.7383,2.7324,2.7109,2.668,2.6484,2.6269,2.5771,2.5693,2.5693,2.5693,2.6094,2.6674,2.7471,0.0,0.0,0.0,0.0,0.0,2.967,2.9565,2.9911,0.0,2.9702,2.8741,2.8354,2.8301,2.8301,2.8301,2.8301,2.8301,2.8301,2.8301,2.7618,2.61,2.6516,2.5388,2.2817,2.334,2.3036,2.191,2.1479,2.1291,2.1216,2.0659,2.0374,2.0361,2.0207,2.0167,1.9898,1.7051,1.595,1.5502,1.2069,1.0794,1.0729,0.0,0.0,0.0,0.0,0.0,0.0,0.0,0.7988,0.7988,0.7988,0.7988,0.7988,0.7988,0.7988,0.7988,0.7988,0.7988,0.0,0.0,0.0,0.0,0.0,0.0,0.0,1.5784,1.5784,1.5838,1.5992,1.5992,1.6059,1.6166,1.6166,1.6166,1.6152,1.6046,1.5992,0.0,0.0,0.0,0.0,0.0,0.0,1.7206,0.0,0.0,0.0,0.0,0.0,0.0,0.0,0.0,0.0,0.0,0.0,0.0,0.0,1.9846,2.2354,2.4368,2.5833,2.6816,2.6973,2.6894,2.6699,2.6445,0.0,0.0,0.0,0.0,2.6035,2.6142,2.6309,2.6582,2.7168,2.7344,0.0,0.0,0.0,0.0,2.8388,0.0,0.0,2.946,2.8655,2.8047,2.8047,2.791,2.7812,2.7812,2.7319,2.7036,2.7036,2.734,2.6499,2.4416,2.467,2.3488,2.1046,2.1435,2.1072,2.0067,2.0127,2.0167,2.0167,2.012,2.0067,0.0,1.9275,1.8984,1.8659,1.5275,1.3943,1.3695,1.0912,1.0005,1.0134,0.0,0.0,0.0,0.0,0.0,0.0,0.0,0.7988,0.7988,0.7988,0.7988,0.7988,0.7988,0.8002,0.8008,0.8008,0.0,0.0,0.0,0.0,0.0,0.0,0.0,0.0,1.5811,1.5858,1.6005,1.6348,1.6348,1.6446,1.67,1.67,1.67,1.67,1.642,1.6348,1.6326,0.0,0.0,0.0,0.0,1.7447,0.0,0.0,0.0,0.0,0.0,0.0,0.0,0.0,0.0,0.0,0.0,0.0,0.0,0.0,0.0,0.0,0.0,2.479,2.6306,2.6688,2.6582,2.6328,2.6309,0.0,0.0,0.0,0.0,0.0,0.0,2.6641,2.666,2.748,2.7305,0.0,0.0,2.8301,0.0,0.0,2.8242,2.8242,2.8203,2.7851,2.7669,2.7669,2.7143,2.6858,2.6858,2.5567,2.4803,2.4699,2.5362,2.4348,2.1568,2.1541,2.083,1.939,1.9626,1.9773,1.9773,2.0054,2.0113,2.016,1.988,1.9773,1.9628,1.7811,1.6997,1.6703,1.3504,1.23,1.2213,1.0605,1.0148,1.0276,0.0,0.0,0.0,0.0,0.0,0.0,0.0,0.0,0.0,0.0,0.7988,0.7988,0.7988,0.8147,0.8214,0.0,0.0,0.0,0.0,0.0,0.0,0.0,0.0,0.0,1.6166,1.6166,1.6313,1.6607,1.6607,1.6633,1.67,1.67,1.67,1.67,1.6633,1.6607,1.6607,1.6673,0.0,0.0,1.7219,1.7393,0.0,0.0,0.0,0.0,1.7582,1.7487,0.0,0.0,0.0,0.0,0.0,0.0,0.0,0.0,1.7752,1.8988,2.0198,0.0,2.4412,2.4918,2.5469,2.5801,0.0,0.0,0.0,0.0,0.0,0.0,0.0,0.0,0.0,0.0,0.0,2.7695,2.8223,0.0,0.0,2.7851,2.7812,2.7676,2.7344,2.7226,2.7168,2.7168,2.6107,2.5463,2.5463,2.4123,2.2892,2.1771,2.1875,2.1643,2.0948,2.1203,2.0498,1.9025,1.9332,1.9466,1.9466,1.9546,1.9573,1.9559,1.9492,1.9466,1.9362,1.7815,1.7148,1.686,1.3806,1.2603,1.2441,1.064,1.0148,1.0263,0.0,0.0,0.0,0.0,0.0,0.0,0.0,0.0,0.0,0.0,0.0,0.7988,0.7988,0.818,0.0,0.0,0.0,0.0,0.0,0.0,0.0,0.0,0.0,1.3601,1.4498,1.5158,1.5645,1.5922,1.6596,1.6981,1.7101,1.7101,1.7101,1.7101,1.6967,1.6834,1.6727,1.6994,1.7128,1.7219,1.7487,0.0,0.0,0.0,0.0,0.0,1.7434,1.7246,0.0,1.6607,1.6406,1.6219,0.0,0.0,0.0,0.0,1.6932,1.7758,1.8538,2.1164,2.3686,2.3756,2.4737,2.5577,2.5176,0.0,0.0,0.0,0.0,0.0,0.0,0.0,0.0,0.0,2.7519,0.0,0.0,0.0,2.8144,2.7767,2.7728,2.75,2.7051,2.6836,2.6466,2.5818,2.49,2.411,2.3546,2.2133,2.1059,2.0429,1.9812,1.9559,1.9702,1.9888,1.9529,1.8731,1.8891,1.9038,1.9172,1.9305,1.9497,1.9573,1.9706,1.976,1.9595,1.7297,1.6309,1.6014,1.2858,1.1632,1.155,1.0517,1.0249,1.0344,0.0,0.0,0.0,0.0,0.0,0.0,0.0,0.0,0.0,0.0,0.0,0.0,0.0,0.0,0.0,0.0,0.0,0.0,0.0,0.0,0.0,0.0,1.1408,1.2206,1.2452,1.3839,1.4756,1.5153,1.6587,1.746,1.7649,1.7649,1.7622,1.7569,1.738,1.7125,1.6874,1.7368,1.7487,1.7313,1.7756,0.0,0.0,0.0,0.0,0.0,0.0,0.0,0.0,1.6353,1.6295,1.6166,1.5912,0.0,0.0,0.0,0.0,0.0,1.7341,2.0329,2.3166,2.2991,2.4264,2.5547,2.5234,0.0,0.0,0.0,0.0,0.0,0.0,0.0,0.0,0.0,0.0,0.0,2.8242,2.8242,2.8047,2.7617,2.7552,2.7253,2.6531,2.6184,2.5402,2.4018,2.3412,2.2601,2.1522,2.0117,1.95,1.9823,1.8685,1.8237,1.849,1.8531,1.8557,1.8557,1.8597,1.8758,1.8998,1.9252,1.9506,1.9746,1.9747,1.9732,1.9477,1.6172,1.4834,1.4524,1.1515,1.0351,1.0439,1.0297,1.0337,1.0426,0.0,0.0,0.0,0.0,0.0,0.0,0.0,0.0,0.0,0.0,0.0,0.0,0.0,0.0,0.0,0.0,0.0,0.0,0.0,0.0,0.0,0.914,1.0139,1.134,1.2723,1.4186,1.5211,1.5736,1.719,1.7876,1.7916,1.7916,1.7836,1.7582,1.7542,1.7488,1.7448,1.7542,1.7555,1.7528,1.7609,0.0,0.0,0.0,0.0,0.0,0.0,0.0,0.0,1.6286,1.6112,1.5885,1.5798,0.0,0.0,0.0,0.0,0.0,1.676,1.8935,2.1315,2.2411,2.3928,2.5254,0.0,0.0,0.0,0.0,0.0,0.0,0.0,0.0,0.0,0.0,0.0,2.8223,0.0,0.0,2.7598,2.7168,2.6797,2.5987,2.4367,2.4126,2.3573,2.2198,2.0928,2.0266,2.0347,1.9014,1.8374,1.8741,1.8534,1.845,1.849,1.8731,1.8865,1.8865,1.9118,1.9252,1.9305,1.9403,1.9399,1.9381,1.8093,1.7504,1.7221,1.4112,1.2847,1.2679,1.098,1.0297,1.0297,1.0141,1.0181,1.0304,0.0,0.0,0.0,0.0,0.0,0.0,0.0,0.0,0.0,0.0,0.0,0.0,0.0,0.0,0.0,0.0,0.0,0.0,0.0,0.0,0.8885,0.8885,0.9341,0.9931,1.0658,1.3072,1.4418,1.4702,1.7076,1.829,1.829,1.8062,1.7876,1.7582,1.7582,1.7582,1.7582,1.7582,1.7582,1.7582,0.0,0.0,0.0,0.0,0.0,0.0,0.0,0.0,0.0,0.0,1.5939,1.5784,1.5784,0.0,0.0,0.0,0.0,0.0,1.6192,1.7606,1.9478,2.1442,2.3721,0.0,0.0,0.0,0.0,0.0,0.0,0.0,0.0,0.0,2.7461,2.793,0.0,2.8203,2.7988,2.7845,2.7474,2.6758,2.6504,2.5963,2.4911,2.4146,2.3223,2.1991,2.0664,1.9676,1.9271,1.8605,1.8424,1.8718,1.8731,1.8798,1.8958,1.9092,1.8998,1.8691,1.8824,1.8971,1.9132,1.9292,1.9452,1.9554,1.8116,1.7505,1.7264,1.4019,1.2648,1.2532,1.0939,1.0283,1.027,1.0202,1.0222,1.029,0.0,0.0,0.0,0.0,0.0,0.0,0.0,0.0,0.0,0.0,0.0,0.0,0.0,0.0,0.0,0.0,0.0,0.0,0.0,0.8885,0.8885,0.8885,0.8885,0.8898,0.8988,1.1737,1.344,1.3943,1.6742,1.822,1.8477,1.8129,1.7876,1.7582,1.7582,1.7582,1.7582,1.7582,1.7582,1.7582,0.0,0.0,0.0,0.0,0.0,0.0,0.0,0.0,0.0,0.0,0.0,0.0,0.0,0.0,0.0,1.5784,1.5872,1.5912,1.5798,1.6772,1.8392,2.0801,0.0,0.0,0.0,0.0,0.0,0.0,0.0,0.0,0.0,2.7324,0.0,2.8184,2.8203,2.8027,2.7767,2.7552,2.7129,2.6465,2.6289,2.5847,2.4843,2.3872,2.2723,2.1265,2.0249,1.9379,1.8626,1.8597,1.8731,1.9025,1.9025,1.9132,1.9417,1.943,1.9145,1.8691,1.8691,1.8811,1.9038,1.9265,1.9492,1.9647,1.8275,1.7488,1.688,1.3933,1.2549,1.2089,1.0728,1.0249,1.0283,1.0317,1.0331,1.0351,0.0,0.0,0.0,0.0,0.0,0.0,0.0,0.0,0.0,0.0,0.0,0.0,0.0,0.0,0.0,0.0,0.0,0.0,0.0,0.8885,0.8885,0.8885,0.8885,0.9001,0.9193,1.0809,1.2663,1.4695,1.62,1.744,1.8477,1.8129,1.7876,1.7582,1.7582,1.7582,1.7582,1.7582,1.7582,1.7582,1.7582,0.0,0.0,0.0,0.0,0.0,0.0,0.0,0.0,0.0,0.0,0.0,0.0,0.0,1.5784,1.5784,1.6019,1.6179,1.5899,1.6913,1.8619,2.0867,0.0,0.0,0.0,0.0,0.0,0.0,0.0,0.0,0.0,2.8203,2.8223,2.8281,2.7969,2.7748,2.7728,2.6973,2.6465,2.6387,2.6035,2.4745,2.2215,2.2127,2.1144,1.8522,1.8523,1.8695,1.8878,1.8891,1.9025,1.9332,1.9332,1.9403,1.943,1.943,1.9403,1.9363,1.9363,1.9377,1.9332,1.9417,1.943,1.9341,1.7738,1.6194,1.4709,1.2973,1.1455,1.0191,1.0066,1.0154,1.0297,1.0426,1.0473,1.05,0.0,0.0,0.0,0.0,0.0,0.0,0.0,0.0,0.0,0.0,0.0,0.0,0.0,0.0,0.0,0.0,0.0,0.0,0.0,0.8885,0.8885,0.8885,0.9022,0.9144,0.935,1.2015,1.3868,1.4826,1.7375,1.868,1.8758,1.8464,1.8156,1.7862,1.7662,1.7582,1.7582,1.7582,1.7582,1.7582,1.7582,1.746,0.0,0.0,0.0,0.0,0.0,0.0,0.0,0.0,1.5784,1.5784,1.5784,1.5784,1.5784,1.5784,1.6046,1.6246,1.6139,1.6654,1.7894,2.0589,0.0,0.0,0.0,0.0,0.0,0.0,0.0,0.0,0.0,0.0,2.8301,2.8301,2.793,2.763,2.7305,2.6758,2.6289,2.6016,2.5791,2.5017,2.3351,2.2535,2.1454,1.9897,1.9125,1.8891,1.9185,1.9199,1.9252,1.9417,1.943,1.9452,1.9639,1.9639,1.9733,1.9907,1.9546,1.943,1.943,1.943,1.8927,1.7933,1.6302,1.4811,1.3295,1.1705,1.0698,1.0195,1.0195,1.0283,1.0419,1.0473,1.0555,1.0643,0.0,0.0,0.0,0.0,0.0,0.0,0.0,0.0,0.0,0.0,0.0,0.0,0.0,0.0,0.0,0.0,0.0,0.0,0.8885,0.8885,0.8885,0.8885,0.9076,0.9282,0.9374,1.2879,1.4703,1.488,1.8185,1.9506,1.8918,1.8624,1.833,1.7982,1.7716,1.7582,1.7582,1.7582,1.7582,1.7569,1.7527,1.7326,0.0,0.0,0.0,0.0,0.0,0.0,0.0,0.0,1.5784,1.5784,1.5784,1.5784,1.5784,1.5784,1.6046,1.6295,1.6152,1.6486,0.0,0.0,0.0,0.0,0.0,0.0,0.0,0.0,0.0,0.0,0.0,0.0,0.0,0.0,2.7734,2.7305,2.6875,2.6445,2.6074,2.5732,2.5333,2.4678,2.3561,2.2303,2.1248,2.0354,1.9496,1.9158,1.9417,1.943,1.947,1.9506,1.9506,1.9639,1.9933,1.9933,2.004,2.0227,1.9826,1.9639,1.9639,1.9639,1.8771,1.7236,1.6182,1.456,1.2641,1.1522,1.0806,1.0351,1.0399,1.048,1.0561,1.0561,1.0629,1.0717,0.0,0.0,0.0,0.0,0.0,0.0,0.0,0.0,1.0562,0.9099,1.1428,0.0,0.0,0.0,0.0,0.0,0.0,0.0,0.8885,0.8885,0.8885,0.8885,0.9076,0.9282,0.9374,1.2958,1.488,1.5054,1.8212,1.9506,1.8918,1.8624,1.833,0.0,0.0,0.0,0.0,1.7582,1.7582,1.7555,1.7313,1.7018,1.6673,0.0,0.0,0.0,0.0,0.0,0.0,0.0,1.5784,1.5784,1.5784,1.5784,1.5784,1.5784,1.6046,1.6219,1.5925,1.6486,0.0,0.0,0.0,0.0,0.0,0.0,0.0,0.0,0.0,0.0,0.0,0.0,0.0,2.7787,2.7305,2.6875,2.6445,2.6016,2.5693,2.5693,2.451,2.3294,2.2187,2.1117,2.0051,1.9018,1.9199,1.943,1.943,1.943,1.9506,1.9786,1.98,1.9947,2.0167,2.018,2.0241,2.0241,2.0241,2.0241,2.0167,2.0167,1.9229,1.7553,1.7553,1.569,1.2712,1.2712,1.1813,1.0507,1.0663,1.0717,1.0717,1.0717,1.0717,1.0717,0.0,0.0,0.0,0.0,0.0,0.0,0.0,0.0,0.9754,1.0351,1.0296,0.0,0.0,0.0,0.0,0.0,0.0,0.0,0.8885,0.8885,0.8885,0.8885,0.9076,0.9228,0.9275,1.2497,1.5565,1.8391,1.9311,1.9506,1.8918,1.8624,0.0,1.7982,0.0,0.0,0.0,1.7582,1.7514,1.7326,1.7233,1.6898,1.6393,0.0,0.0,0.0,0.0,0.0,0.0,0.0,0.0,0.0,1.5784,1.5784,1.5872,1.6086,1.6549,1.6924,1.6831,1.746,0.0,0.0,0.0,0.0,0.0,0.0,0.0,0.0,0.0,0.0,0.0,0.0,0.0,2.8125,2.75,2.6973,2.6836,2.6142,2.5693,2.5693,2.4703,2.3579,2.2498,2.1402,2.0383,1.9327,1.9319,1.943,1.943,1.9559,1.9706,1.98,2.0,2.0241,2.0548,2.0548,2.0655,2.0855,2.0855,2.0628,2.0167,2.0167,1.8717,1.6118,1.6118,1.4308,1.1294,1.1294,1.1068,1.0656,1.0704,1.0717,1.0717,1.0717,1.0717,1.0717,0.0,0.0,0.0,0.0,0.0,0.0,1.1219,1.0351,0.9864,1.0186,0.9966,1.0241,0.0,0.0,0.0,1.0186,0.943,0.8885,0.8885,0.8885,0.8885,0.8885,0.9076,0.9518,1.0201,1.2113,1.4526,1.7545,1.8745,1.9092,1.8744,1.845,0.0,1.7982,0.0,1.7582,0.0,1.7514,1.7367,1.7179,1.6951,1.6643,1.6308,0.0,0.0,0.0,0.0,0.0,0.0,0.0,0.0,0.0,1.5784,1.5912,1.6046,1.6219,1.6737,1.7179,1.7058,0.0,0.0,0.0,0.0,0.0,0.0,0.0,0.0,0.0,0.0,0.0,2.8301,2.8301,0.0,2.8066,2.7461,2.6749,2.6028,2.5339,2.4707,2.4146,2.3165,2.2284,2.1755,2.0748,1.992,1.9461,1.943,1.947,1.9533,1.9706,1.9907,2.0134,2.0321,2.0548,2.0842,2.0855,2.0935,2.1109,2.1109,2.0922,2.0575,2.0575,1.915,1.6615,1.5209,1.3158,1.0717,1.0717,1.0717,1.0717,1.0717,1.0717,1.0717,1.0717,1.0717,1.0731,0.0,0.0,0.0,0.0,0.0,0.0,1.1701,1.1374,1.0781,0.932,1.0296,1.0562,0.0,0.0,0.0,0.921,0.8995,0.8885,0.8885,0.8885,0.8885,0.8885,0.9062,0.9993,1.1748,1.174,1.2586,1.4287,1.6981,1.8298,1.8271,0.0,1.7982,1.7942,0.0,1.7569,0.0,1.7313,1.7166,1.7072,1.6536,1.6259,1.6206,1.5939,0.0,0.0,0.0,0.0,0.0,0.0,0.0,0.0,1.5784,1.6019,1.6246,1.6308,1.6737,1.7139,1.682,0.0,0.0,0.0,0.0,0.0,0.0,0.0,0.0,2.8024,0.0,2.8247,2.8121,2.8228,2.8164,2.7793,2.7221,2.6225,2.459,2.3903,2.3085,2.1845,2.0779,2.0232,2.0476,1.9584,1.9078,1.9403,1.9399,1.9519,1.9786,1.9853,2.012,2.0655,2.0695,2.0842,2.1109,2.1109,2.1109,2.1109,2.1109,2.1046,2.0843,2.1046,2.0068,1.8052,1.4558,1.2157,1.0717,1.0717,1.0717,1.0717,1.0717,1.0717,1.0724,1.0738,1.0744,1.0765,0.0,0.0,0.0,0.0,0.0,0.0,1.4502,1.3534,1.229,1.0836,1.0891,1.1,1.0672,0.9864,0.0,1.0562,0.9588,0.8885,0.8885,0.8885,0.8885,0.8885,0.8912,0.9768,1.1552,1.1359,1.2671,1.5496,1.6371,1.6648,0.0,0.0,0.0,1.7675,0.0,1.7462,0.0,1.7233,1.6938,1.6496,1.6375,1.6126,1.5912,1.5811,1.5784,0.0,0.0,0.0,0.0,0.0,0.0,0.0,1.5784,1.5872,1.5965,1.6206,1.6737,1.7192,0.0,0.0,0.0,0.0,0.0,0.0,0.0,0.0,0.0,2.6407,2.7511,2.796,2.6771,2.7511,2.8262,2.8184,2.6646,2.5323,2.4902,2.3303,2.1996,2.1744,2.0928,2.0431,2.0491,1.978,1.9292,1.9359,1.9586,1.9733,1.98,2.0241,2.0548,2.0668,2.0895,2.1042,2.1109,2.1109,2.1109,2.1109,2.1109,2.0386,1.9088,2.0462,1.9419,1.6237,1.2734,1.1049,1.0717,1.0717,1.0717,1.0717,1.0717,1.0717,1.0731,1.0786,1.0833,1.0853,0.0,0.0,0.0,0.0,0.0,0.0,0.0,0.0,1.4111,1.2372,1.2136,1.1864,1.1164,1.0406,0.0,0.0,0.932,0.8885,0.8885,0.8885,0.8885,0.8885,0.8885,0.93,1.0262,1.0122,1.1207,1.36,1.4428,1.5479,0.0,0.0,0.0,1.7582,0.0,1.7474,0.0,1.6898,1.6603,1.6308,1.6112,1.5965,1.5784,1.5784,1.5784,1.5784,1.5784,0.0,0.0,0.0,0.0,0.0,0.0,0.0,1.6072,1.6233,1.6737,0.0,0.0,0.0,0.0,0.0,0.0,0.0,0.0,0.0,2.3651,2.3682,2.5029,2.5882,2.5151,2.5608,2.6173,2.6173,2.4898,2.3649,2.3051,2.1638,2.0498,2.0008,1.9686,1.9608,1.9709,1.9549,1.943,1.943,1.9639,1.9867,2.0,2.0428,2.0735,2.0882,2.1029,2.1109,2.1109,2.1109,2.1109,2.1109,2.1109,2.0195,1.8512,1.8576,1.7602,1.5719,1.3128,1.1505,1.0717,1.0717,1.0717,1.0717,1.0717,1.0765,1.0772,1.0853,1.0989,1.107,0.0,0.0,0.0,0.0,0.0,0.0,0.0,0.0,0.0,1.391,1.3642,1.3102,1.1647,1.1265,1.0617,0.0,0.0,0.0,0.8885,0.8885,0.8885,0.8885,0.8885,0.8885,0.8885,0.8885,0.9644,1.1109,1.2532,1.4554,0.0,0.0,0.0,1.7582,0.0,0.0,0.0,1.6576,1.6286,1.6179,1.5925,1.5784,1.5784,1.5784,1.5784,1.5784,1.5784,1.5784,1.5784,1.5784,0.0,0.0,0.0,0.0,1.6192,1.6192,0.0,0.0,0.0,0.0,0.0,0.0,0.0,0.0,0.0,0.0,2.1666,2.0828,2.226,2.37,2.3471,2.3654,2.3822,2.3822,2.2994,2.1947,2.087,1.9888,1.8926,1.8117,1.8303,1.8611,1.8891,1.9199,1.943,1.943,1.9679,1.9987,2.0214,2.0561,2.0855,2.1096,2.1109,2.1109,2.1109,2.1109,2.1109,2.1109,2.0514,1.9646,1.8512,1.6165,1.5202,1.5329,1.3587,1.2025,1.0717,1.0717,1.0738,1.0758,1.0758,1.0853,1.0921,1.0948,1.1097,1.1226,0.0,0.0,0.0,0.0,0.0,0.0,0.0,0.0,0.0,0.0,1.5091,1.4556,1.3156,1.1864,1.1,1.0836,0.9644,0.8885,0.8885,0.0,0.0,0.8885,0.8885,0.8885,0.8885,0.8885,0.9644,1.1109,1.2272,0.0,0.0,0.0,0.0,0.0,0.0,0.0,0.0,0.0,0.0,1.5838,1.5798,1.5784,1.5784,1.5784,1.5784,1.5784,1.5784,1.5784,1.5784,1.5784,1.5784,0.0,0.0,0.0,1.5885,1.5885,0.0,0.0,0.0,0.0,0.0,0.0,0.0,0.0,0.0,0.0,2.008,0.0,2.1273,2.3129,2.2091,2.2927,2.3822,2.3822,2.2229,2.0924,2.0708,1.9053,1.7901,1.8009,1.8303,1.8611,1.8891,1.9199,1.943,1.943,1.9867,2.0127,2.0227,2.0748,2.1069,2.1109,2.1109,2.1109,2.1109,2.1109,2.1109,2.1046,1.8151,1.7565,1.8916,1.4069,1.2494,1.3578,1.1828,1.0916,1.0717,1.0717,1.0799,1.0853,1.0853,1.1009,1.1151,1.128,1.1341,1.1382,0.0,0.0,0.0,0.0,0.0,0.0,0.0,0.0,0.0,0.0,0.0,1.6062,1.4609,1.3911,1.2886,1.121,1.0507,0.9809,0.894,0.8885,0.8885,0.8885,0.8804,0.8811,0.8811,0.8723,0.9739,1.1943,1.2424,0.0,0.0,1.7331,1.7542,0.0,0.0,0.0,0.0,0.0,0.0,0.0,0.0,0.0,0.0,0.0,0.0,1.6072,1.6072,1.5965,1.5784,1.5784,1.5784,1.5784,1.5784,0.0,0.0,0.0,1.5925,0.0,0.0,0.0,0.0,0.0,0.0,0.0,0.0,0.0,1.8596,1.8279,1.9356,2.0292,1.9906,2.0395,2.084,2.084,1.9909,1.9175,1.9175,1.8276,1.7756,1.8237,1.841,1.8664,1.9132,1.9292,1.9439,1.9599,2.0,2.0307,2.0468,2.0882,2.1109,2.1109,2.1109,2.1109,2.1109,2.1269,2.1443,2.1539,1.8061,1.6825,1.7602,1.3199,1.2103,1.3503,1.1767,1.0968,1.0968,1.0968,1.1009,1.107,1.107,1.1158,1.1301,1.1369,1.1443,1.1531,0.0,0.0,0.0,0.0,0.0,0.0,0.0,0.0,0.0,0.0,0.0,1.7199,1.6062,0.0,0.0,0.0,1.1819,1.0908,0.9363,0.8982,0.8825,0.8825,0.8716,0.8655,0.8655,0.854,0.9511,1.1569,0.0,0.0,1.6237,1.7003,1.7088,0.0,1.7288,0.0,0.0,0.0,0.0,0.0,0.0,0.0,0.0,0.0,0.0,0.0,1.638,1.6192,1.5939,1.5939,1.5885,1.5784,1.5784,1.5731,0.0,0.0,0.0,0.0,0.0,0.0,0.0,0.0,0.0,0.0,0.0,0.0,1.7649,0.0,1.7876,1.7996,1.8223,1.8384,1.849,1.849,1.8237,1.7995,1.7995,1.7849,1.7903,1.8424,1.8557,1.8798,1.9377,1.943,1.9492,1.9773,2.0067,2.0361,2.0655,2.0949,2.1109,2.1109,2.1109,2.1149,2.1216,2.151,2.1804,2.2031,1.8429,1.6702,1.6616,1.2997,1.2033,1.3189,1.1808,1.1234,1.1234,1.1234,1.1185,1.1219,1.1219,1.1314,1.145,1.145,1.1518,1.1619,0.0,0.0,0.0,0.0,0.0,0.0,0.0,0.0,0.0,0.0,0.0,1.7582,1.7477,1.6221,1.5358,1.5198,1.3657,1.202,1.0429,0.9182,0.8506,0.8506,0.8499,0.0,0.8492,0.8486,0.8584,0.0,0.0,0.0,1.2525,1.5394,1.658,1.6388,1.7194,1.7101,1.6348,0.0,0.0,0.0,0.0,0.0,0.0,0.0,0.0,0.0,1.6687,1.65,1.6246,1.6246,1.6059,1.5784,1.5784,1.5645,1.5418,0.0,0.0,0.0,0.0,0.0,0.0,0.0,0.0,0.0,0.0,0.0,1.7582,1.7609,1.7609,1.7609,1.7622,1.8103,1.849,1.849,1.8237,1.7995,1.7995,1.7982,1.8089,1.845,1.8731,1.9025,1.939,1.943,1.9492,1.9773,2.0067,2.0361,2.0655,2.0949,2.1109,2.1109,2.1109,2.1243,2.1588,2.1817,2.2111,2.2324,1.8607,1.6936,1.7007,1.3286,1.1592,1.1722,1.1357,1.1234,1.1234,1.1234,1.1246,1.1382,1.1382,1.147,1.1606,1.1606,1.1613,1.1619,0.0,0.0,0.0,0.0,0.0,0.0,0.0,0.0,0.0,0.0,0.0,0.0,0.0,1.7147,1.6446,1.5476,1.3805,1.2474,1.1742,1.0439,0.9719,0.9719,0.8857,0.8343,0.8343,0.8248,0.0,0.0,0.0,1.2527,1.3606,1.5517,1.6473,1.658,1.7275,1.7194,1.6567,1.6804,0.0,0.0,0.0,0.0,0.0,0.0,0.0,1.7489,1.7341,0.0,1.7088,1.6951,1.6633,1.6353,1.6166,1.5778,1.5364,1.5177,0.0,0.0,0.0,0.0,0.0,0.0,0.0,0.0,0.0,1.7248,1.7353,1.7353,1.7501,1.7582,1.7582,1.7756,1.7903,1.7903,1.7822,1.7822,1.7969,1.7995,1.8169,1.8704,1.8865,1.9038,1.939,1.943,1.9559,2.004,2.0174,2.0441,2.0922,2.1056,2.1109,2.1109,2.1109,2.1336,2.183,2.2124,2.2405,2.2699,1.8863,1.7097,1.7037,1.3317,1.1619,1.1613,1.1504,1.1457,1.1457,1.1457,1.1491,1.1538,1.1538,1.1572,1.1619,1.1619,1.1619,1.1619,0.0,0.0,0.0,0.0,0.0,0.0,0.0,0.0,0.0,0.0,0.0,0.0,0.0,0.0,1.716,1.6098,1.4473,1.3349,1.3065,1.1706,1.0917,1.0917,0.9995,0.9291,0.8895,0.8735,0.0,0.0,0.0,0.0,0.0,1.5426,1.638,1.658,1.7074,1.7021,0.0,0.0,0.0,1.6914,0.0,0.0,1.7943,0.0,0.0,1.8275,1.8223,1.805,1.7862,1.7715,1.7328,1.6954,1.671,1.6032,1.5324,0.0,0.0,0.0,0.0,0.0,0.0,0.0,0.0,0.0,0.0,0.0,1.7233,1.7326,1.7501,1.7582,1.7582,1.7582,1.7622,1.7716,1.7742,1.7849,1.8156,1.8222,1.8435,1.8878,1.9011,1.9145,1.9403,1.943,1.9613,2.0187,2.0167,2.0494,2.1082,2.1109,2.1149,2.1256,2.1349,2.1643,2.2124,2.2418,2.2672,2.2859,1.9704,1.7809,1.7107,1.3943,1.218,1.1619,1.1619,1.1619,1.1619,1.1619,1.1619,1.1619,1.1619,1.1619,1.1619,1.1619,1.1619,1.1619,0.0,0.0,0.0,0.0,0.0,0.0,0.0,0.0,0.0,1.8918,0.0,0.0,0.0,0.0,0.0,1.7116,1.5732,1.4681,1.4321,1.2845,1.195,1.195,1.1901,1.1317,1.01,1.0051,0.0,0.0,0.0,0.0,0.0,0.0,1.6259,0.0,1.6567,1.654,1.6273,0.0,1.6683,1.7179,0.0,1.7782,1.8517,0.0,1.8958,1.9011,1.9279,1.9011,1.8544,1.8517,1.8103,1.7555,1.7273,0.0,0.0,0.0,0.0,0.0,0.0,0.0,0.0,0.0,0.0,0.0,1.7275,0.0,1.7273,1.7515,1.7582,1.7582,1.7595,1.7595,1.7689,1.7942,1.7982,1.8089,1.845,1.8731,1.8918,1.8931,1.9185,1.943,1.943,1.943,1.9613,2.0187,2.0167,2.0494,2.1082,2.1109,2.1243,2.1601,2.183,2.2124,2.2418,2.2712,2.2928,2.2859,2.0963,1.9077,1.7117,1.5283,1.3381,1.1619,1.1619,1.1619,1.1619,1.1619,1.1619,1.1619,1.1619,1.1619,1.1619,1.1619,1.1619,1.1619,0.0,0.0,0.0,0.0,0.0,1.943,1.943,1.9292,1.9172,0.0,0.0,0.0,0.0,0.0,0.0,1.4212,1.5324,1.5607,1.4234,1.3636,1.3343,1.3343,1.2425,1.1755,1.1365,1.1365,0.0,0.0,0.0,0.0,0.0,0.0,0.0,0.0,1.5856,1.5836,1.4949,1.6585,0.0,1.6697,1.8197,1.8651,0.0,1.9292,1.9826,2.012,1.9573,1.9666,1.9947,1.9092,1.8557,1.8036,1.6938,0.0,0.0,0.0,0.0,0.0,1.4202,0.0,0.0,0.0,0.0,0.0,0.0,0.0,1.6967,1.7475,1.7582,1.7649,1.7876,1.7729,1.7689,1.7942,1.7862,1.7889,1.8424,1.8557,1.8771,1.9199,1.9319,1.943,1.943,1.943,1.9613,0.0,2.0167,2.0494,2.1082,2.1109,2.1243,2.1601,2.183,2.2124,2.2418,2.2712,2.2928,2.2859,2.0963,1.9077,1.7117,1.5283,1.3381,1.1619,1.1619,1.1619,1.1619,1.1619,1.1619,1.1619,1.1619,1.1619,1.1619,1.1619,1.1619,1.1619,0.0,0.0,1.943,1.943,1.943,1.943,1.943,1.943,1.9305,0.0,0.0,0.0,0.0,0.0,0.0,0.0,1.5172,1.5314,1.3678,1.3347,1.3198,1.3198,1.2381,1.1901,1.1901,1.1901,0.0,0.0,0.0,0.0,0.0,0.0,0.0,0.0,0.0,0.0,0.0,0.0,0.0,0.0,1.8104,0.0,1.8931,1.9559,2.0094,2.0454,2.0187,2.0428,2.0735,1.9933,1.9305,1.8624,1.7248,0.0,0.0,0.0,0.0,0.0,0.0,0.0,0.0,0.0,0.0,0.0,0.0,0.0,0.0,0.0,1.7756,1.7675,1.7942,1.7796,1.7649,1.7822,1.7809,1.7943,1.8424,1.8597,1.8798,1.9145,1.9292,1.943,1.943,1.943,1.9613,2.0187,2.0167,2.0494,2.1082,2.1109,2.1296,2.1724,2.1897,2.2191,2.2605,2.2779,2.2928,2.2859,2.1803,1.9843,1.7178,1.6051,1.4085,1.1619,1.1619,1.1619,1.1619,1.1619,1.1619,1.1619,1.1619,1.1619,1.1619,1.1619,1.1619,1.1619,0.0,0.0,1.943,1.947,1.9412,1.9426,1.9452,1.9439,1.9412,0.0,0.0,0.0,0.0,0.0,0.0,0.0,1.5276,1.4589,1.2931,1.2588,1.2394,1.2214,1.2032,1.1922,1.1901,1.1901,1.1901,0.0,0.0,0.0,0.0,0.0,0.0,0.0,1.3247,1.3859,0.0,0.0,0.0,1.8076,1.7675,1.8264,1.9412,1.984,2.016,2.0441,2.0935,2.1149,2.1149,2.0762,2.0067,1.9229,1.8036,1.7275,0.0,0.0,1.5084,0.0,0.0,0.0,0.0,0.0,0.0,0.0,0.0,0.0,0.0,0.0,1.7836,1.7542,1.7836,1.7689,1.7488,1.7528,1.7796,1.8035,1.8357,1.8637,1.8781,1.8878,1.9105,1.935,1.9417,1.943,1.9599,2.0147,2.0241,2.0521,2.1082,2.1109,2.1376,2.1964,2.1991,2.2271,2.2928,2.2928,2.2928,2.2928,2.2928,2.1032,1.7529,1.7318,1.5283,1.19,1.1691,1.1619,1.1619,1.1619,1.1619,1.1619,1.1619,1.1619,1.1619,1.1619,1.1619,1.1619,1.943,1.943,1.9497,1.9679,1.972,1.9786,2.0027,1.9867,1.972,1.972,0.0,0.0,0.0,0.0,0.0,0.0,0.0,1.585,1.2994,1.3605,1.3517,1.2224,1.2173,1.2073,1.1901,1.1901,1.1901,1.1901,0.0,0.0,0.0,0.0,0.0,0.0,0.0,0.0,0.0,0.0,0.0,1.8784,1.9132,1.9319,1.9564,2.0797,2.1306,2.1283,2.1149,2.1416,2.1657,2.0655,1.9893,1.9239,1.8531,1.7903,0.0,1.6366,0.0,0.0,0.0,0.0,0.0,0.0,0.0,0.0,0.0,1.5444,1.5858,0.0,1.678,1.6737,1.7273,1.7074,1.6954,1.7246,1.7475,1.7689,1.7756,1.8023,1.8249,1.8544,1.8624,1.8851,1.9377,1.943,1.9506,1.9853,2.0321,2.0748,2.1096,2.1109,2.1376,2.1964,2.1991,2.2271,2.2928,2.2928,2.2928,2.2928,2.2928,2.1734,1.9495,1.7879,1.5981,1.38,1.2252,1.1619,1.1619,1.1619,1.1619,1.1619,1.1619,1.1619,1.1619,1.1619,1.1619,1.1619,1.943,1.9479,1.9626,1.9773,1.992,2.0067,2.0153,2.0107,2.0013,0.0,0.0,0.0,0.0,0.0,0.0,0.0,0.0,0.0,1.3372,1.3583,1.307,1.1629,1.1383,1.1225,1.1073,1.0972,1.1268,1.1901,0.0,0.0,0.0,0.0,0.0,0.0,0.0,0.0,0.0,0.0,1.7038,1.8931,1.9092,1.9412,1.9893,2.0775,2.1172,2.1172,2.1109,2.1203,2.1243,2.0655,2.0067,1.9479,1.8891,1.8397,1.7862,0.0,1.6348,1.5645,0.0,0.0,0.0,1.4122,0.0,0.0,0.0,0.0,1.5471,1.65,1.6473,1.6496,1.7085,1.6901,1.6807,1.7152,1.7447,1.7475,1.7181,1.7916,1.849,1.849,1.8624,1.8824,1.9118,1.9145,1.9386,1.9973,2.0428,2.0802,2.1096,2.1109,2.1376,2.1964,2.1991,2.2271,2.2928,2.2928,2.2928,2.2928,2.2928,2.1953,2.0051,1.81,1.6192,1.429,1.2395,1.1619,1.1619,1.1619,1.1619,1.1619,1.1619,1.1619,1.1619,1.1619,1.1619,1.1619,1.943,1.9599,1.9813,1.9867,2.012,2.0334,2.0388,2.0347,2.0294,0.0,0.0,0.0,0.0,0.0,0.0,0.0,0.0,0.0,1.4388,1.3877,1.2846,1.1145,1.0923,1.0645,1.0323,1.0079,1.0485,1.1512,0.0,0.0,0.0,0.0,0.0,0.0,0.0,0.0,0.0,0.0,0.0,1.8607,1.8897,1.9626,2.0601,2.0895,2.0975,2.0949,2.1136,2.1002,2.0775,2.0895,2.0508,1.9893,1.9412,1.8985,0.0,0.0,0.0,0.0,0.0,0.0,0.0,0.0,0.0,1.4335,0.0,0.0,0.0,0.0,0.0,0.0,0.0,0.0,0.0,1.6817,0.0,0.0,0.0,1.7889,0.0,1.8357,1.8517,1.8731,1.8905,1.9078,1.9452,2.0094,2.0535,2.0842,2.1015,2.1082,2.1376,2.1964,2.1991,2.2271,2.2928,2.2928,2.2928,2.2928,2.2928,2.2091,2.0548,1.8648,1.6756,1.4858,1.296,1.19,1.1619,1.1619,1.1619,1.1619,1.1619,1.1619,1.1619,1.1619,1.1619,1.1619,1.943,1.9599,1.988,2.0134,2.0428,2.0708,2.0975,2.0788,2.0535,0.0,0.0,0.0,0.0,0.0,0.0,0.0,0.0,1.8473,1.6515,1.6098,1.4652,1.1793,1.2109,1.1831,1.0657,1.0213,1.0043,1.0239,0.0,0.0,0.0,0.0,0.0,0.0,1.1331,0.0,0.0,0.0,1.8116,0.0,1.9941,2.1203,2.1817,2.2111,2.2058,2.1804,2.1655,2.1309,2.1136,2.1657,2.1269,2.0561,2.0494,1.992,1.9042,1.7621,0.0,0.0,0.0,0.0,0.0,0.0,1.4469,0.0,0.0,0.0,1.4295,1.4683,0.0,0.0,0.0,0.0,0.0,0.0,0.0,0.0,1.6714,1.7542,1.7982,1.7729,1.7716,1.805,1.8851,1.9626,2.0013,1.9867,2.0601,2.0962,2.0735,2.0962,2.1376,2.1964,2.1991,2.2271,2.2928,2.2928,2.2928,2.2928,2.2928,2.2791,2.2516,2.0617,1.8718,1.6756,1.4929,1.3167,1.1619,1.1619,1.1619,1.1619,1.1619,1.1619,1.1619,1.1619,1.1619,1.1619,1.943,1.9733,2.0094,2.0153,2.0615,2.0962,2.1096,2.1149,2.1082,0.0,0.0,0.0,0.0,1.8211,1.7457,1.7678,1.7185,1.6983,1.7076,1.5862,0.0,1.4641,1.3604,1.282,1.232,1.1712,1.1002,1.0204,0.9508,0.0,0.0,0.0,0.0,0.0,1.0371,0.0,1.3279,0.0,1.748,0.0,2.0631,2.1924,2.2699,2.2124,2.1844,2.1724,2.1655,2.1363,2.1149,2.139,2.1229,2.0895,2.0735,0.0,0.0,1.8557,0.0,0.0,0.0,0.0,0.0,0.0,0.0,0.0,1.4696,0.0,1.4122,0.0,0.0,0.0,0.0,0.0,0.0,0.0,1.5712,0.0,0.0,0.0,0.0,0.0,0.0,0.0,1.8624,1.9319,1.9679,1.9559,2.0361,2.0735,2.0441,2.0855,2.1376,2.1964,2.1991,2.2271,2.2928,2.2928,2.2928,2.2928,2.2928,2.2928,2.2791,1.9773,1.7949,1.7037,1.4085,1.2323,1.1619,1.1619,1.1619,1.1619,1.1619,1.1619,1.1619,1.1619,1.1619,1.1619,1.9386,0.0,2.0167,2.0167,2.0722,2.1109,2.1109,2.1363,2.1507,2.1149,2.0131,1.9277,1.8699,1.7588,1.6915,1.6859,1.6356,1.6593,1.7863,1.5803,1.4882,1.5789,1.4246,1.3232,1.3063,1.2703,1.1991,1.0869,1.0386,0.0,0.0,0.0,0.0,0.0,0.0,1.0916,1.3375,0.0,1.6317,1.7828,2.0191,2.1897,2.2979,2.2124,2.179,2.1764,2.1681,2.1416,2.1243,2.1323,2.1243,2.1082,2.0962,2.0748,2.0361,0.0,0.0,0.0,1.7288,0.0,0.0,0.0,0.0,0.0,0.0,0.0,0.0,0.0,0.0,0.0,0.0,0.0,0.0,0.0,0.0,0.0,0.0,0.0,0.0,0.0,0.0,0.0,0.0,0.0,0.0,0.0,0.0,2.0628,2.0193,2.0722,2.1296,2.1964,2.1991,2.2271,2.2928,2.2928,2.2928,2.2928,2.2928,2.2928,2.2791,1.9495,1.7669,1.7037,1.3737,1.2115,1.1619,1.1619,1.1619,1.1619,1.1619,1.1619,1.1619,1.1619,1.1619,1.1619,1.9426,1.984,2.0167,2.0167,2.0722,2.1109,2.1109,2.1363,2.1507,2.1149,2.1539,2.1316,1.974,2.0889,2.1389,2.045,1.9539,1.9134,1.9298,1.6762,1.4753,1.3654,1.3508,1.2961,1.1875,1.2487,1.2595,1.2114,1.097,0.0,0.0,0.0,0.0,0.0,0.0,1.0627,1.02,1.3905,1.4821,1.404,1.8215,2.0896,2.2445,2.2405,2.2392,2.2311,2.1815,2.1614,2.1641,2.1857,2.1577,2.1162,2.1443,2.0935,0.0,0.0,0.0,0.0,0.0,1.7769,1.7502,1.7233,1.6723,1.6308,1.6233,0.0,1.4981,0.0,0.0,0.0,0.0,0.0,0.0,0.0,0.0,0.0,0.0,0.0,0.0,0.0,0.0,0.0,0.0,0.0,0.0,0.0,0.0,0.0,2.0207,2.0521,2.1082,2.1951,2.1991,2.2271,2.2928,2.2928,2.2928,2.2928,2.2928,2.2928,2.2859,2.0894,1.9008,1.7107,1.5132,1.3309,1.1619,1.1619,1.1619,1.1619,1.1619,1.1619,1.1619,1.1619,1.1619,1.1619,1.996,2.0254,2.0468,2.0267,2.0722,2.1109,2.1109,2.1363,2.1574,2.148,2.0731,2.013,1.964,1.8957,1.8496,1.8304,1.7994,1.7722,1.7649,1.574,1.476,1.5089,1.3734,1.3127,1.3526,1.3364,1.2586,1.1211,1.0656,1.0044,0.0,0.0,0.0,0.0,0.0,0.9982,0.0,0.0,0.0,0.0,1.7067,2.0203,2.3247,2.2645,2.2418,2.2392,2.2191,2.2124,2.2084,2.179,2.1817,2.1897,2.1416,2.1189,2.0949,2.0174,1.9599,1.9172,1.8971,1.8838,1.8691,1.8397,1.8023,1.7635,1.7235,1.6313,0.0,0.0,0.0,0.0,0.0,0.0,0.0,0.0,0.0,0.0,0.0,0.0,0.0,0.0,0.0,0.0,0.0,0.0,0.0,0.0,0.0,0.0,0.0,2.0227,2.0788,2.1735,2.1884,2.2178,2.2565,2.2766,2.2928,2.2928,2.2928,2.2229,2.0963,1.9077,1.7107,1.5203,1.3381,1.218,1.1619,1.1619,1.1619,1.1619,1.1619,1.1619,1.1619,1.1619,1.1619,1.1619,2.0193,2.0468,2.0615,2.0428,2.0788,2.1149,2.1256,2.1523,2.171,2.171,2.1014,2.0227,1.9652,1.9105,1.8664,1.8385,1.8213,1.7823,1.7288,1.5971,1.4988,1.4605,1.3645,1.3169,1.325,1.3072,1.2287,1.0886,1.0626,1.0135,0.0,0.0,0.0,0.0,0.0,0.9483,1.0142,1.1862,1.2966,0.0,0.0,1.8248,2.1564,2.1457,2.206,2.2993,2.2565,2.2418,2.2352,2.1871,2.1951,2.2151,2.1483,2.1403,2.148,2.0735,2.0281,1.9947,1.9733,1.9679,1.9599,1.9305,1.8931,1.8571,1.8277,1.7301,1.646,0.0,0.0,0.0,0.0,0.0,0.0,0.0,0.0,0.0,0.0,0.0,0.0,0.0,0.0,0.0,0.0,0.0,0.0,0.0,0.0,0.0,0.0,0.0,2.0535,2.1588,2.183,2.2124,2.2418,2.2712,2.2928,2.2928,2.2928,2.1953,2.0051,1.81,1.6192,1.429,1.2395,1.1619,1.1619,1.1619,1.1619,1.1619,1.1619,1.1619,1.1619,1.1619,1.1619,1.1619,2.0334,2.0508,2.0695,2.0695,2.0935,2.1229,2.1574,2.1804,2.1991,2.2004,2.2245,2.1665,1.9823,2.1205,2.1829,2.0591,2.0262,1.9509,1.8148,1.741,1.563,1.2532,1.3247,1.2986,1.1351,1.1758,1.1725,1.1224,1.0795,1.1102,0.0,0.0,0.0,0.0,0.9183,0.0,0.9984,1.0215,1.0784,1.1671,1.3278,1.5388,1.7704,1.891,2.1328,2.3904,2.2791,2.2445,2.2392,2.2111,2.2004,2.1951,2.1735,2.1641,2.1588,2.1229,2.1136,2.0989,2.0441,2.0267,2.0174,1.9893,1.9399,1.9065,1.9332,1.849,1.7662,0.0,0.0,0.0,0.0,0.0,0.0,0.0,0.0,0.0,0.0,0.0,0.0,0.0,0.0,0.0,0.0,0.0,0.0,0.0,0.0,0.0,0.0,0.0,2.0273,2.1534,2.1804,2.2098,2.2378,2.2686,2.2914,2.2846,2.2791,2.1803,1.9912,1.7949,1.6051,1.4148,1.2395,1.1619,1.1619,1.1619,1.1619,1.1619,1.1619,1.1619,1.1619,1.1619,1.1619,1.1619,2.0935,2.0949,2.1002,2.1002,2.1243,2.1534,2.1601,2.1804,2.2058,2.2271,2.2378,2.181,2.014,2.0371,2.0569,2.0215,2.0167,1.9366,1.7562,1.7369,1.6292,1.393,1.2877,1.2592,1.3149,1.1821,1.0799,1.0016,0.973,0.9544,0.945,0.0,0.0,0.0,0.0,0.0,0.9903,1.0276,1.1592,1.3418,1.2689,1.4787,1.8153,1.6396,1.8389,2.2213,2.2601,2.2752,2.2699,2.2405,2.2311,2.2258,2.1964,2.1871,2.1857,2.1777,2.1456,2.1122,2.1203,2.0735,2.0153,2.0134,2.0013,1.9853,1.972,1.9279,1.8851,1.8624,1.805,0.0,0.0,0.0,0.0,0.0,0.0,0.0,0.0,0.0,0.0,0.0,0.0,0.0,0.0,0.0,0.0,0.0,0.0,0.0,0.0,0.0,0.0,2.0882,2.1403,2.1762,2.1777,2.2285,2.2539,2.2539,2.1358,1.9773,1.7879,1.5981,1.4085,1.2323,1.1828,1.1619,1.1619,1.1619,1.1619,1.1619,1.1619,1.1619,1.1619,1.1619,1.1619,1.1619,2.1149,2.1216,2.1256,2.1136,2.1563,2.1884,2.1764,2.1355,2.1162,2.1439,2.1477,2.1113,2.0285,2.0121,2.0132,2.0132,1.9356,1.8072,1.6264,1.6923,1.6177,1.3527,1.3195,1.3058,1.3037,1.1724,1.0697,0.9998,0.9564,0.9089,0.8581,0.0,0.0,0.0,0.0,0.9476,1.0066,1.0711,1.1793,1.2973,1.217,1.3309,0.0,1.565,1.7317,1.9998,2.2159,2.2928,2.2832,2.2672,2.2605,2.2565,2.2271,2.2178,2.2151,2.2017,2.175,2.1496,2.1601,2.1189,2.0775,2.0655,2.0521,2.0388,2.0214,1.9853,1.9546,1.9506,1.8931,1.845,1.8544,0.0,0.0,0.0,0.0,0.0,0.0,0.0,0.0,0.0,0.0,0.0,0.0,0.0,0.0,0.0,0.0,0.0,0.0,0.0,0.0,2.0406,2.143,2.175,2.1363,2.2458,2.2806,2.2351,2.084,1.9077,1.7117,1.5283,1.3381,1.1619,1.1619,1.1619,1.1619,1.1619,1.1619,1.1619,1.1619,1.1619,1.1619,1.1619,1.1619,1.1619,2.1122,2.1349,2.1534,2.1216,2.1857,2.2338,2.2084,2.0996,2.0284,2.0579,2.0615,2.0544,2.0321,2.0192,1.9982,1.9704,1.8159,1.649,1.4741,1.6013,1.5507,1.2504,1.3636,1.371,1.2473,1.164,1.1009,1.0582,0.9971,0.0,0.0,0.0,0.0,0.0,0.0,0.0,0.0,1.1253,1.1619,1.1633,1.1796,1.1837,1.2147,1.5275,1.6874,1.7857,2.1049,2.2503,2.2928,2.2928,2.2928,2.2819,2.2565,2.2472,2.2432,2.2178,2.2071,2.1991,2.1802,2.1708,2.1523,2.1189,2.0949,2.0775,2.0695,2.0307,2.0027,2.0241,1.9653,1.9252,1.976,1.8704,0.0,0.0,0.0,0.0,0.0,0.0,0.0,0.0,0.0,0.0,0.0,0.0,0.0,0.0,0.0,0.0,0.0,0.0,0.0,2.01,2.1456,2.1817,2.1176,2.2739,2.318,2.2404,2.0577,1.8868,1.7107,1.5,1.3167,1.1619,1.1619,1.1619,1.1619,1.1619,1.1619,1.1619,1.1619,1.1619,1.1619,1.1619,1.1619,1.1619,2.1203,2.1349,2.1601,2.1547,2.2004,2.2405,2.2352,2.2361,2.2392,2.2444,2.2444,2.188,2.0261,2.0086,1.9426,1.7879,1.7398,1.6423,1.4554,1.4733,1.46,1.4033,1.2924,1.2933,1.4188,1.2438,1.1375,1.1111,1.0388,0.9795,0.0,0.0,0.0,0.0,0.0,0.0,1.0683,1.1341,0.0,1.164,1.1911,1.1877,1.1725,1.2338,1.4529,1.7379,1.797,2.019,2.2928,2.2928,2.2928,2.2928,2.2806,2.2779,2.2779,2.2794,2.2539,2.2338,2.2285,2.2098,2.1777,2.1243,2.1256,2.1333,2.0788,2.0788,2.0828,2.0641,2.0281,1.998,2.0134,1.9359,0.0,0.0,0.0,0.0,0.0,0.0,0.0,0.0,0.0,0.0,0.0,0.0,0.0,0.0,0.0,0.0,0.0,0.0,0.0,0.0,2.0361,0.0,0.0,0.0,2.2458,2.2779,1.9333,1.7529,1.7107,1.3666,1.19,1.1619,1.1619,1.1619,1.1619,1.1619,1.1619,1.1619,1.1619,1.1619,1.1619,1.1619,1.1619,1.1619,2.1363,2.1577,2.1842,2.1842,2.2258,2.2592,2.2445,2.2672,2.2569,2.1659,2.1533,2.1184,2.0332,2.0133,1.9286,1.7388,1.6333,1.4929,1.3095,1.296,1.296,1.296,1.2184,1.2304,1.3339,1.2391,1.1626,1.1234,1.0872,1.0317,0.0,0.0,0.0,0.0,0.0,1.0588,0.0,0.0,1.1877,1.1748,1.1972,1.1884,1.1691,1.2674,1.4787,1.7318,1.8369,2.0548,2.2928,2.2928,2.2928,2.2928,2.2928,2.2928,2.2928,2.2928,2.2766,2.2645,2.2645,2.2432,2.2138,2.1857,2.1777,2.1657,2.1229,2.1122,2.1069,2.0922,2.0548,2.0187,2.004,1.9666,1.9279,1.8998,0.0,0.0,0.0,0.0,0.0,0.0,0.0,0.0,0.0,0.0,0.0,0.0,0.0,0.0,0.0,0.0,0.0,0.0,0.0,0.0,2.1159,0.0,2.2104,2.0964,1.8389,1.6685,1.5628,1.2888,1.1619,1.1619,1.1619,1.1619,1.1619,1.1619,1.1619,1.1619,1.1619,1.1619,1.1619,1.1619,1.1619,1.1619,2.1697,2.1977,2.2191,2.2258,2.2712,2.2979,2.2739,2.2899,2.2519,2.1072,2.0861,2.0861,2.0861,2.0798,2.0005,1.8093,1.6226,1.4336,1.2496,1.1897,1.1667,1.1667,1.1742,1.187,1.206,1.2033,1.1796,1.1425,1.126,1.0785,0.9964,0.0,0.0,0.0,0.0,0.0,1.1477,1.2047,1.2149,1.1938,1.206,1.1952,1.1859,1.3346,1.5096,1.6895,1.8865,2.0735,2.2366,2.2791,2.2928,2.2928,2.2928,2.2928,2.2928,2.2928,2.2928,2.2928,2.2928,2.2699,2.2498,2.2432,2.2245,2.2004,2.1775,2.1456,2.1283,2.1216,2.0788,2.0334,2.004,1.9933,1.984,1.9666,0.0,0.0,0.0,0.0,0.0,0.0,0.0,0.0,0.0,0.0,0.0,0.0,0.0,0.0,0.0,0.0,0.0,0.0,0.0,2.068,2.0461,0.0,2.2014,2.0019,1.8564,1.7037,1.5557,1.3666,1.2538,1.218,1.218,1.218,1.218,1.1756,1.1828,1.218,1.218,1.218,1.2252,1.261,1.2817,1.2817,2.2338,2.2579,2.2873,2.3153,2.3474,2.3674,2.3647,2.3674,2.343,2.2759,2.2693,2.2693,2.2693,2.2849,2.2269,2.0333,1.8587,1.6752,1.4866,1.2904,1.1809,1.1809,1.1701,1.1769,1.2054,1.1925,1.1891,1.2053,1.1572,1.105,1.0432,0.0,0.0,1.082,1.1362,1.1586,1.1626,1.2094,1.2277,1.225,1.2264,1.2169,1.2094,1.2243,1.339,1.5191,1.705,1.8904,2.0617,2.2297,2.2928,2.2928,2.2928,2.2928,2.2928,2.2928,2.2928,2.2928,2.2928,2.2914,2.2752,2.2485,2.2392,2.2298,2.2004,2.1924,2.183,2.1628,2.1256,2.0935,2.0641,2.0374,2.0267,2.0521,0.0,0.0,0.0,0.0,0.0,0.0,0.0,0.0,0.0,0.0,0.0,0.0,0.0,0.0,0.0,0.0,0.0,1.798,1.7987,1.8522,1.9713,2.134,2.2404,2.2915,2.0853,1.9704,1.9495,1.7529,1.5769,1.4148,1.4148,1.4148,1.4006,1.2323,1.2602,1.4148,1.4148,1.4148,1.4361,1.6061,1.6695,1.6695,2.2886,2.306,2.3233,2.3541,2.3688,2.3768,2.3768,2.3768,2.3688,2.3434,2.3407,2.3407,2.3407,2.3514,2.286,2.0888,2.0097,1.8415,1.5285,1.4261,1.3207,1.2046,1.1823,1.1891,1.2189,1.2047,1.1999,1.2135,1.1884,1.1619,1.1294,1.124,1.126,1.1369,1.1728,1.1938,1.204,1.2305,1.2366,1.2291,1.2291,1.2196,1.2135,1.2135,1.3193,1.4936,1.5542,1.7021,1.8834,2.0596,2.1953,2.2928,2.2928,2.2928,2.2928,2.2928,2.2928,2.2928,2.2928,2.2928,2.2901,2.2712,2.2686,2.2605,2.2311,2.2245,2.2111,2.1722,2.1176,2.0869,2.0922,2.0842,2.0735,2.0681,2.0281,0.0,0.0,0.0,0.0,0.0,0.0,0.0,0.0,0.0,0.0,0.0,0.0,0.0,0.0,0.0,0.0,1.6613,0.0,1.9656,1.9516,2.1181,2.171,2.1108,2.0386,1.9495,1.8299,1.7529,1.6192,1.4432,1.4432,1.4432,1.4432,1.4787,1.5425,1.6051,1.6051,1.6051,1.6192,1.6896,1.7178,1.7178,2.35,2.3581,2.3674,2.3981,2.4022,2.4022,2.4022,2.4022,2.4022,2.4022,2.4022,2.3968,2.3794,2.3848,2.3373,2.1968,2.1437,1.9823,1.6423,1.5633,1.442,1.234,1.2047,1.2067,1.2284,1.2223,1.2189,1.2189,1.2149,1.2006,1.1762,1.1558,1.1586,1.183,1.2081,1.223,1.2298,1.244,1.244,1.2352,1.2352,1.2284,1.2189,1.2189,1.3049,1.4167,1.4637,1.5604,1.6979,1.8741,2.0191,2.139,2.2585,2.2928,2.2928,2.2928,2.2928,2.2928,2.2928,2.2928,2.2928,2.2928,2.2928,2.2806,2.2592,2.2552,2.2405,2.1911,2.1349,2.1002,2.1203,2.1162,2.1069,2.0949,2.0788,2.0388,0.0,1.9867,0.0,0.0,0.0,0.0,0.0,0.0,0.0,0.0,0.0,0.0,0.0,0.0,0.0,0.0,0.0,0.0,1.9331,2.113,2.1499,2.0544,2.0808,2.019,1.8857,1.8299,1.7318,1.6051,1.5486,1.5557,1.6122,1.6896,1.7529,1.8019,1.8019,1.8019,1.8089,1.8648,1.8857,1.8857,2.4195,2.4195,2.4289,2.4569,2.4623,2.4623,2.4623,2.4623,2.4623,2.4623,2.4623,2.4409,2.3834,2.4022,2.4195,2.4195,2.2818,2.1041,1.8896,1.687,1.4782,1.2572,1.2359,1.2284,1.2291,1.2427,1.2494,1.2494,1.2352,1.206,1.1619,1.1619,1.1857,1.2291,1.2433,1.242,1.2298,1.244,1.2501,1.2501,1.2501,1.2501,1.2494,1.2494,1.2406,1.2588,1.4442,1.495,1.5009,1.6927,1.743,1.7949,2.1734,2.2928,2.2928,2.2928,2.2928,2.2928,2.2928,2.2928,2.2928,2.2928,2.2928,2.2928,2.2859,2.2859,2.2766,2.2472,2.1951,2.1601,2.1614,2.1309,2.1203,2.1561,2.1119,2.0668,0.0,2.0909,0.0,0.0,1.8238,1.8576,1.8127,0.0,0.0,0.0,0.0,0.0,0.0,0.0,0.0,1.7759,1.8074,0.0,1.9221,2.104,2.2285,2.2859,2.2859,2.2859,2.2791,2.0894,2.0051,1.9912,1.8019,1.8229,1.9843,1.7949,1.8299,2.0051,2.0051,2.0051,2.0271,2.216,2.2859,2.2859,2.4462,2.4502,2.4529,2.4623,2.4636,2.4636,2.4636,2.4636,2.4636,2.4636,2.4636,2.4569,2.4382,2.4436,2.4502,2.4502,2.4058,2.2328,1.905,1.8231,1.6337,1.2965,1.2671,1.2637,1.2745,1.2589,1.2556,1.2657,1.2508,1.2359,1.2223,1.2325,1.24,1.2433,1.2481,1.2474,1.2433,1.2481,1.2501,1.2501,1.2501,1.2501,1.2501,1.2501,1.2474,1.2497,1.2996,1.3122,1.3312,1.516,1.5641,1.591,1.8464,2.0052,2.1252,2.2516,2.2928,2.2928,2.2928,2.2928,2.2928,2.2928,2.2928,2.2928,2.2928,2.2712,2.2539,2.2432,2.2111,2.1844,2.1844,2.1777,2.1603,2.1296,2.1269,2.1052,2.0187,0.0,2.0381,1.9261,1.9468,1.9736,1.9838,1.8289,0.0,0.0,0.0,0.0,0.0,0.0,0.0,0.0,1.9573,0.0,1.9935,2.1513,2.2472,2.2928,2.2928,2.2928,2.2859,2.0963,2.0132,2.0063,1.9426,1.9495,2.012,2.0825,2.1459,2.2022,2.2022,2.2022,2.2091,2.2654,2.2928,2.2928,2.4596,2.4636,2.4636,2.4636,2.4636,2.4636,2.4636,2.4636,2.4636,2.4636,2.4636,2.4636,2.4636,2.3974,2.389,2.4722,2.353,2.1636,1.9216,1.8299,1.6476,1.3198,1.2949,1.2915,1.3043,1.2827,1.2773,1.282,1.2718,1.2678,1.2678,1.2712,1.2712,1.2671,1.261,1.2617,1.2678,1.2678,1.2678,1.2678,1.2678,1.2678,1.2671,1.261,1.2589,1.2569,1.242,1.2338,1.2498,1.3581,1.38,1.401,1.5885,1.7196,1.8557,2.1138,2.1872,2.2022,2.2722,2.2928,2.2928,2.2928,2.2928,2.2928,2.2928,2.2712,2.2579,2.2579,2.2352,2.2151,2.2151,2.2058,2.1871,2.1496,2.159,2.139,2.0428,2.0708,2.0605,0.0,0.0,1.9751,0.0,1.8988,1.8215,0.0,0.0,0.0,0.0,0.0,1.8028,1.8519,2.0585,2.1423,2.0914,2.193,2.2565,2.2928,2.2928,2.2928,2.2859,2.1665,2.1183,2.1183,2.1183,2.1183,2.1252,2.2435,2.2928,2.2928,2.2928,2.2928,2.2928,2.2928,2.2928,2.2928,2.4636,2.4636,2.4636,2.4636,2.4636,2.4636,2.4636,2.4636,2.4636,2.4636,2.4636,2.4649,2.4663,2.2941,2.2645,2.4753,2.1591,1.9384,1.9314,1.7494,1.5424,1.3349,1.3186,1.3125,1.2996,1.3112,1.3105,1.2963,1.2963,1.2963,1.3036,1.2813,1.282,1.2956,1.2807,1.2827,1.2963,1.2963,1.2963,1.2963,1.2963,1.2963,1.2942,1.28,1.2745,1.2725,1.2583,1.244,1.2318,1.2318,1.221,1.2419,1.4018,1.4527,1.5182,1.8865,1.9982,2.0479,2.2229,2.2791,2.2928,2.2928,2.2928,2.2928,2.2928,2.2928,2.2928,2.2928,2.2645,2.2445,2.2445,2.2231,2.2044,2.2017,2.2017,2.1804,2.1229,2.1376,2.089,1.8953,1.8823,1.8994,1.9186,1.9064,1.9395,0.0,0.0,0.0,0.0,0.0,1.763,2.0779,2.1069,2.147,2.2044,2.2311,2.2592,2.2928,2.2928,2.2928,2.2928,2.2928,2.2928,2.2928,2.2928,2.2928,2.2928,2.2928,2.2928,2.2928,2.2928,2.2928,2.2928,2.2928,2.2928,2.2928,2.4636,2.4636,2.4636,2.4636,2.4636,2.4636,2.4636,2.4636,2.4636,2.4636,2.4636,2.4716,2.4957,2.33,2.2442,2.3188,2.0687,1.8512,1.7083,1.6538,1.5399,1.3425,1.3349,1.3329,1.3295,1.3214,1.3105,1.2963,1.2963,1.2963,1.2963,1.2922,1.2929,1.3043,1.2922,1.2929,1.2963,1.2963,1.2963,1.2963,1.2963,1.2963,1.2956,1.2922,1.2908,1.2901,1.2868,1.2752,1.2623,1.2623,1.2454,1.2306,1.2717,1.2681,1.3172,1.6825,1.8938,2.0201,2.0617,2.1803,2.2928,2.2928,2.2928,2.2928,2.2928,2.2928,2.2928,2.2928,2.2806,2.2752,2.2752,2.2699,2.2579,2.2352,2.2311,2.2111,2.1523,2.1574,2.1421,2.0942,2.089,2.0993,2.1279,2.1253,2.0854,0.0,0.0,2.0203,2.0203,1.937,1.9938,2.2284,2.2191,2.2285,2.2645,2.2726,2.2792,2.2928,2.2928,2.2928,2.2928,2.2928,2.2928,2.2928,2.2928,2.2928,2.2928,2.2928,2.2928,2.2928,2.2928,2.2928,2.2928,2.2928,2.2928,2.2928,2.4636,2.4636,2.4636,2.4636,2.4636,2.4636,2.4636,2.4636,2.469,2.4823,2.4836,2.4943,2.5251,2.3572,2.213,2.1309,1.9224,1.7503,1.6414,1.5454,1.4445,1.348,1.3403,1.3403,1.3403,1.3322,1.3241,1.3159,1.3159,1.3159,1.3159,1.3091,1.3091,1.3159,1.3091,1.3098,1.3159,1.3159,1.3159,1.3159,1.3159,1.3159,1.3152,1.3085,1.3057,1.3051,1.2983,1.2908,1.2827,1.2752,1.2623,1.2467,1.2332,1.2128,1.2339,1.4186,1.6056,1.7879,1.9634,2.0825,2.1816,2.2722,2.2928,2.2928,2.2928,2.2928,2.2928,2.2928,2.2928,2.2928,2.2928,2.2928,2.2806,2.2645,2.2512,2.2258,2.1817,2.175,2.1762,2.1628,2.1735,2.1817,2.1977,2.1991,2.1647,2.0854,2.009,1.9749,1.9749,1.9854,2.0776,2.2591,2.2498,2.2565,2.2928,2.2928,2.2928,2.2928,2.2928,2.2928,2.2928,2.2928,2.2928,2.2928,2.2928,2.2928,2.2928,2.2928,2.2928,2.2928,2.2928,2.2928,2.2928,2.2928,2.2928,2.2928,2.4636,2.4636,2.4636,2.4636,2.4636,2.4649,2.469,2.4703,2.481,2.5104,2.5144,2.5264,2.5545,2.4131,2.2212,1.9763,1.8089,1.6811,1.6164,1.4375,1.3403,1.3403,1.3403,1.3403,1.3403,1.3403,1.3403,1.3403,1.3403,1.3403,1.3397,1.3268,1.3275,1.3397,1.3268,1.3281,1.3403,1.3403,1.3403,1.3403,1.3403,1.3403,1.339,1.3254,1.3207,1.3193,1.3071,1.301,1.2976,1.284,1.2786,1.2718,1.244,1.2237,1.2067,1.1911,1.2887,1.4787,1.8648,2.0051,2.0894,2.2503,2.2928,2.2928,2.2928,2.2928,2.2928,2.2928,2.2928,2.2928,2.2928,2.2928,2.2954,2.2979,2.2672,2.2365,2.2205,2.2111,2.1964,2.1775,2.1937,2.2124,2.2124,2.2124,2.2045,2.1713,2.0429,1.9654,1.9654,1.9933,2.0865,2.2431,2.2485,2.2605,2.2928,2.2928,2.2928,2.2928,2.2928,2.2928,2.2928,2.2928,2.2928,2.2928,2.2928,2.2928,2.2928,2.2928,2.2928,2.2928,2.2928,2.2928,2.2928,2.2928,2.2928,2.2928,2.4636,2.4636,2.4636,2.4636,2.4636,2.4716,2.497,2.501,2.5117,2.5411,2.5451,2.5558,2.5852,2.5685,2.3963,2.0159,1.9563,1.7792,1.4135,1.3562,1.3403,1.3403,1.3403,1.3403,1.3403,1.3403,1.3403,1.3403,1.3403,1.3403,1.3403,1.3376,1.3376,1.3397,1.3376,1.3376,1.3403,1.3403,1.3403,1.3403,1.3403,1.3403,1.3397,1.3376,1.3363,1.3363,1.3342,1.3247,1.3132,1.3112,1.3024,1.2895,1.2718,1.2474,1.2223,1.2067,1.2049,1.2888,1.6615,1.9982,2.2516,2.2859,2.2928,2.2928,2.2928,2.2928,2.2928,2.2928,2.2928,2.2928,2.2928,2.2928,2.3102,2.3541,2.2953,2.2579,2.3046,2.2672,2.2338,2.2285,2.2552,2.2726,2.2726,2.2726,2.2099,2.0496,2.0188,1.9992,1.9992,2.0108,2.0951,2.2792,2.2792,2.2887,2.2928,2.2928,2.2928,2.2928,2.2928,2.2928,2.2928,2.2928,2.2928,2.2928,2.2928,2.2928,2.2928,2.2928,2.2928,2.2928,2.2928,2.2928,2.2928,2.2928,2.2928,2.2928,2.4877,2.4743,2.4636,2.4636,2.4636,2.469,2.4823,2.4836,2.4997,2.5451,2.5518,2.5678,2.6146,2.6186,2.4952,2.1914,2.0554,1.8526,1.535,1.4052,1.3403,1.3403,1.3403,1.3403,1.3403,1.3403,1.3403,1.3403,1.3403,1.3403,1.3403,1.3403,1.3403,1.3403,1.3403,1.3403,1.3403,1.3403,1.3403,1.3403,1.3403,1.3403,1.3403,1.3403,1.3403,1.3403,1.3403,1.3356,1.3281,1.32,1.3125,1.3037,1.28,1.2528,1.2257,1.2108,1.2568,1.3729,1.6474,1.9286,2.1596,2.2654,2.2928,2.2928,2.2928,2.2928,2.2928,2.2928,2.2928,2.2928,2.2928,2.2928,2.2899,2.302,2.2686,2.2458,2.2592,2.2498,2.2418,2.2418,2.1774,2.139,2.139,2.139,2.1032,2.0201,2.0132,2.0132,2.0132,2.0132,2.0479,2.139,2.2366,2.2928,2.2928,2.2928,2.2928,2.2928,2.2928,2.2928,2.2928,2.2928,2.2928,2.2928,2.2928,2.2928,2.2928,2.2928,2.2928,2.2928,2.2928,2.2928,2.2928,2.2928,2.2928,2.2928,2.5184,2.4997,2.4836,2.4836,2.4783,2.4783,2.4917,2.489,2.505,2.5638,2.5718,2.5892,2.6346,2.6386,2.5489,2.33,2.1603,1.9491,1.6811,1.5028,1.3887,1.3397,1.3403,1.3403,1.3403,1.3403,1.3403,1.3403,1.3403,1.3403,1.3403,1.3403,1.3403,1.3403,1.3403,1.3403,1.3403,1.3403,1.3403,1.3403,1.3403,1.3403,1.3403,1.3403,1.3403,1.3403,1.3403,1.3403,1.3383,1.3268,1.3227,1.318,1.2915,1.263,1.2352,1.2169,1.289,1.4227,1.6545,1.8659,2.0548,2.2435,2.2928,2.2928,2.2928,2.2928,2.2928,2.2928,2.2928,2.2928,2.2928,2.2928,2.2832,2.2752,2.2552,2.2418,2.2405,2.2002,2.1758,2.1891,2.0416,1.9426,1.9426,1.9843,1.9912,1.9426,1.9843,2.0132,2.0132,2.0132,2.0271,2.0756,2.216,2.2928,2.2928,2.2928,2.2928,2.2928,2.2928,2.2928,2.2928,2.2928,2.2928,2.2928,2.2928,2.2928,2.2928,2.2928,2.2928,2.2928,2.2928,2.2928,2.2928,2.2928,2.2928,2.2928,2.5478,2.5464,2.5451,2.5451,2.5224,2.5224,2.5772,2.5625,2.5665,2.6253,2.6319,2.6346,2.6386,2.6386,2.5489,2.33,2.298,2.1109,1.6893,1.6483,1.5514,1.3486,1.3403,1.3403,1.3403,1.3403,1.3403,1.3403,1.3403,1.3403,1.3403,1.3403,1.3403,1.3403,1.3403,1.3403,1.3403,1.3403,1.3403,1.3403,1.3403,1.3403,1.3403,1.3403,1.3403,1.3403,1.3403,1.3403,1.3397,1.339,1.3383,1.3356,1.3193,1.2935,1.2644,1.2359,1.2033,1.261,1.6202,1.8659,2.0548,2.2435,2.2928,2.2928,2.2928,2.2928,2.2928,2.2928,2.2928,2.2928,2.2928,2.2928,2.3046,2.3581,2.2966,2.2699,2.3527,2.1452,1.9894,2.0211,1.8578,1.7388,1.7388,1.9077,1.9356,1.7529,1.9077,2.0132,2.0132,2.0132,2.0894,2.2654,2.2859,2.2928,2.2928,2.2928,2.2928,2.2928,2.2928,2.2928,2.2928,2.2928,2.2928,2.2928,2.2928,2.2928,2.2928,2.2928,2.2928,2.2928,2.2928,2.2928,2.2928,2.2928,2.2928,2.2928,2.5785,2.5638,2.5518,2.5518,2.5424,2.5491,2.5892,2.5865,2.5932,2.6333,2.6386,2.6386,2.6386,2.6386,2.6056,2.5251,2.3872,2.1845,1.8842,1.7384,1.5679,1.348,1.3403,1.3403,1.3403,1.3403,1.3403,1.3403,1.3403,1.3403,1.3403,1.3403,1.3403,1.3403,1.3403,1.3403,1.3403,1.3403,1.3403,1.3403,1.3403,1.3403,1.3403,1.3403,1.3403,1.3403,1.3403,1.3403,1.3403,1.3403,1.3403,1.3376,1.322,1.2969,1.2637,1.2149,1.1823,1.2187,1.4787,1.6826,1.8798,2.0686,2.2022,2.2928,2.2928,2.2928,2.2928,2.2928,2.1953,2.1527,2.2722,2.0963,2.0132,2.2569,2.0833,1.9681,2.1012,2.0419,1.9531,1.8428,1.7669,1.7178,1.7178,1.7879,1.8508,1.8938,2.0756,2.1803,2.1803,2.1803,2.216,2.2859,2.2928,2.2928,2.2928,2.2928,2.2928,2.2928,2.2928,2.2928,2.2928,2.2928,2.2928,2.2928,2.2928,2.2928,2.2928,2.2928,2.2928,2.2928,2.2928,2.2928,2.2928,2.2928,2.2928,2.2928,2.6092,2.5999,2.5919,2.5919,2.5919,2.6026,2.6319,2.6293,2.6333,2.6627,2.6667,2.6667,2.6667,2.6587,2.6533,2.6533,2.505,2.29,2.0069,1.722,1.4946,1.348,1.3403,1.3403,1.3403,1.3403,1.3403,1.3403,1.3403,1.3403,1.3403,1.3403,1.3403,1.3403,1.3403,1.3403,1.3403,1.3403,1.3403,1.3403,1.3403,1.3403,1.3403,1.3403,1.3403,1.3403,1.3403,1.3403,1.3403,1.3403,1.3403,1.3383,1.3275,1.2976,1.2569,1.2108,1.1809,1.19,1.3167,1.4858,1.6896,1.9495,2.1032,2.216,2.2791,2.2928,2.2928,2.2928,2.1872,2.1183,2.1885,2.0328,1.9369,2.0581,1.9243,1.8245,1.8774,1.9035,1.8508,1.6545,1.6826,1.6967,1.6404,1.7388,1.8659,1.9982,2.1803,2.2928,2.2928,2.2928,2.2928,2.2928,2.2928,2.2928,2.2928,2.2928,2.2928,2.2928,2.2928,2.2928,2.2928,2.2928,2.2928,2.2928,2.2928,2.2928,2.2928,2.2928,2.2928,2.2928,2.2928,2.2928,2.2928,2.2928,2.2928,2.2928,2.6386,2.6627,2.6827,2.6827,2.6827,2.6921,2.7228,2.7014,2.6934,2.7228,2.7268,2.7268,2.7268,2.7001,2.6827,2.6827,2.656,2.4522,2.015,1.5843,1.3403,1.3403,1.3403,1.3403,1.3403,1.3403,1.3403,1.3403,1.3403,1.3403,1.3403,1.3403,1.3403,1.3403,1.3403,1.3403,1.3403,1.3403,1.3403,1.3403,1.3403,1.3403,1.3403,1.3403,1.3403,1.3403,1.3403,1.3403,1.3403,1.3403,1.3403,1.3403,1.3397,1.299,1.2474,1.2332,1.1972,1.1619,1.1619,1.296,1.5274,1.9147,2.0051,2.0617,2.2435,2.2928,2.2928,2.2928,2.2859,2.2297,2.0479,2.1596,2.1596,1.7809,1.8868,1.9426,1.7458,1.7178,1.6545,1.4645,1.6051,1.6474,1.4645,1.7879,2.0132,2.012,2.1872,2.2928,2.2928,2.2928,2.2859,2.2859,2.2859,2.2859,2.2859,2.2859,2.2928,2.2928,2.2928,2.2928,2.2928,2.2928,2.2928,2.2928,2.2928,2.2928,2.2928,2.2928,2.2928,2.2928,2.2928,2.2928,2.2928,2.2928,2.2928,2.2928,2.6386,2.6627,2.6827,2.6827,2.7001,2.7228,2.7522,2.7495,2.7468,2.7562,2.7562,2.7495,2.7281,2.7188,2.7134,2.7134,2.6867,2.4721,2.016,1.722,1.4946,1.348,1.3403,1.3403,1.3403,1.3403,1.3403,1.3403,1.3403,1.3403,1.3403,1.3403,1.3403,1.3403,1.3403,1.3403,1.3403,1.3403,1.3403,1.3403,1.3403,1.3403,1.3403,1.3403,1.3403,1.3403,1.3403,1.3403,1.3403,1.3403,1.3403,1.3383,1.3275,1.2976,1.261,1.2366,1.204,1.1748,1.1647,1.2043,1.3309,1.7107,1.9077,2.0617,2.2435,2.2928,2.2928,2.2928,2.0756,1.9565,2.1665,1.9275,1.7448,1.8997,1.8589,1.7879,1.7248,1.8379,1.8508,1.6615,1.8089,1.8997,1.8438,1.9426,2.0617,2.1953,2.2585,2.2928,2.2928,2.2928,2.2297,2.0963,2.2229,2.2297,2.0963,2.2229,2.2928,2.2928,2.2928,2.2928,2.2928,2.2928,2.2928,2.2928,2.2928,2.2928,2.2928,2.2928,2.2928,2.2928,2.2928,2.2928,2.2928,2.2928,2.2928,2.2928,2.672,2.6974,2.7175,2.7175,2.7415,2.7669,2.7843,2.7869,2.7869,2.7869,2.7869,2.7802,2.7629,2.7509,2.7442,2.7442,2.6414,2.4064,2.0293,1.7992,1.575,1.3486,1.3403,1.3403,1.3403,1.3403,1.3403,1.3403,1.3403,1.3403,1.3403,1.3403,1.3403,1.3403,1.3403,1.3403,1.3403,1.3403,1.3403,1.3403,1.3403,1.3403,1.3403,1.3403,1.3403,1.3403,1.3403,1.3403,1.3403,1.3403,1.3403,1.3383,1.3295,1.3057,1.2773,1.2535,1.221,1.1891,1.1742,1.166,1.2323,1.5354,1.6967,1.8508,2.117,2.1803,2.2022,2.2722,2.1032,1.9912,2.1527,1.9553,1.8008,1.8798,1.8589,1.8089,1.7318,1.8868,1.9356,1.7458,1.9565,2.0894,2.0201,2.0756,2.1665,2.2791,2.2928,2.2585,2.1816,2.2516,2.1665,1.9077,2.1527,2.2022,2.012,2.1953,2.2928,2.2928,2.2928,2.2928,2.2928,2.2928,2.2928,2.2928,2.2928,2.2928,2.2928,2.2928,2.2928,2.2928,2.2928,2.2928,2.2928,2.2928,2.2928,2.2928,2.7215,2.7495,2.7696,2.7696,2.7949,2.8221,2.8221,2.8221,2.8221,2.8221,2.8221,2.8221,2.8221,2.7896,2.7736,2.7736,2.5695,2.3244,2.0776,1.8606,1.6294,1.3839,1.35,1.3417,1.3403,1.3403,1.3403,1.3403,1.3403,1.3403,1.3403,1.3403,1.3403,1.3403,1.3403,1.3403,1.3403,1.3403,1.3403,1.3403,1.3403,1.3403,1.3403,1.3403,1.3403,1.3403,1.3403,1.3403,1.3403,1.3403,1.3403,1.3403,1.3403,1.3207,1.2949,1.2779,1.2433,1.206,1.1877,1.1735,1.2058,1.3729,1.4148,1.5132,1.8997,1.9843,2.0409,2.2229,2.2503,2.1953,2.0617,2.1596,2.1527,1.8019,1.9077,1.9634,1.7739,1.9147,1.9704,1.7949,2.0756,2.216,2.0271,2.1459,2.2366,2.2366,2.2366,2.1665,1.9912,2.1596,2.0963,1.7318,2.0894,2.2022,2.012,2.1953,2.2928,2.2928,2.2928,2.2928,2.2928,2.2928,2.2928,2.2928,2.2928,2.2928,2.2928,2.2928,2.2928,2.2928,2.2928,2.2928,2.2928,2.2928,2.2928,2.2928,2.7255,2.7495,2.7696,2.7696,2.7949,2.8221,2.8221,2.8221,2.8221,2.8221,2.8221,2.8221,2.8221,2.8167,2.8127,2.8127,2.7346,2.5873,2.3338,2.1066,1.881,1.6385,1.4565,1.3526,1.3403,1.3403,1.3403,1.3403,1.3403,1.3403,1.3403,1.3403,1.3403,1.3403,1.3403,1.3403,1.3403,1.3403,1.3403,1.3403,1.3403,1.3403,1.3403,1.3403,1.3403,1.3403,1.3403,1.3403,1.3403,1.3403,1.3403,1.3403,1.3403,1.3275,1.3071,1.2807,1.2576,1.2325,1.1932,1.1809,1.1828,1.2144,1.218,1.3167,1.6967,1.7809,1.8369,2.034,1.9495,1.9217,2.1803,2.139,2.0409,1.9634,2.1032,2.1596,1.9704,2.1101,2.216,2.1734,2.2366,2.216,2.0271,1.9077,1.8438,1.8438,1.8438,1.8229,1.7879,1.9634,1.9634,1.7248,2.0894,2.2022,2.012,2.1953,2.2928,2.2928,2.2928,2.2928,2.2928,2.2928,2.2928,2.2928,2.2928,2.2928,2.2928,2.2928,2.2928,2.2928,2.2928,2.2928,2.2928,2.2928,2.2928,2.2928,2.7738,2.7802,2.7909,2.7909,2.8043,2.8221,2.8221,2.8221,2.8221,2.8221,2.8221,2.8221,2.8221,2.8221,2.8221,2.8221,2.8003,2.6929,2.4365,2.2062,1.969,1.7322,1.4979,1.3661,1.3512,1.3512,1.3471,1.3403,1.3403,1.3403,1.3403,1.3403,1.3403,1.3403,1.3403,1.3403,1.3403,1.3403,1.3403,1.3403,1.3403,1.3403,1.3403,1.3403,1.3403,1.3403,1.3403,1.3403,1.3403,1.3403,1.3403,1.3403,1.3403,1.3349,1.3234,1.301,1.2786,1.2542,1.2237,1.1993,1.1816,1.1742,1.1667,1.2323,1.5212,1.5839,1.6404,1.8299,1.7879,1.8089,2.1032,1.9982,1.9286,2.1101,2.1527,2.1252,2.0271,2.0963,2.1252,2.0259,2.019,1.9773,1.8787,1.7819,1.7178,1.7178,1.7178,1.7178,1.7178,1.9077,1.9217,1.7248,2.0894,2.2022,2.012,2.1953,2.2928,2.2928,2.2928,2.2928,2.2928,2.2928,2.2928,2.2928,2.2928,2.2928,2.2928,2.2928,2.2928,2.2928,2.2928,2.2928,2.2928,2.2928,2.2928,2.2928,2.8181,2.8221,2.8221,2.8221,2.8221,2.8221,2.8221,2.8221,2.8221,2.8221,2.8221,2.8221,2.8221,2.8221,2.8221,2.8221,2.8221,2.7343,2.5227,2.2903,2.0507,1.8019,1.5654,1.4145,1.3668,1.3641,1.3553,1.3403,1.3403,1.3403,1.3403,1.3403,1.3403,1.3403,1.3403,1.3403,1.3403,1.3403,1.3403,1.3403,1.3403,1.3403,1.3403,1.3403,1.3403,1.3403,1.3403,1.3403,1.3403,1.3403,1.3403,1.3403,1.3403,1.3403,1.337,1.322,1.2996,1.2759,1.2556,1.223,1.1932,1.1884,1.1782,1.2114,1.3642,1.3959,1.4432,1.6333,1.6685,1.7318,1.9286,1.8299,1.8229,2.139,2.0617,1.9565,1.9565,1.9565,1.9008,1.7388,1.6896,1.6685,1.6685,1.6685,1.6685,1.6685,1.7037,1.7178,1.7178,1.9077,1.9356,1.7739,2.1101,2.216,2.0617,2.2091,2.2928,2.2928,2.2928,2.2928,2.2928,2.2928,2.2928,2.2928,2.2928,2.2928,2.2928,2.2928,2.2928,2.2928,2.2928,2.2928,2.2928,2.2928,2.2928,2.2928,2.8221,2.8221,2.8221,2.8221,2.8221,2.8221,2.8221,2.8221,2.8221,2.8221,2.8221,2.8221,2.8221,2.8221,2.8221,2.8221,2.8221,2.8039,2.7733,2.5495,2.3058,2.0592,1.8213,1.6012,1.3817,1.3695,1.3553,1.3403,1.3403,1.3403,1.3403,1.3403,1.3403,1.3403,1.3403,1.3403,1.3403,1.3403,1.3403,1.3403,1.3403,1.3403,1.3403,1.3403,1.3403,1.3403,1.3403,1.3403,1.3403,1.3403,1.3403,1.3403,1.3403,1.3403,1.337,1.322,1.3146,1.3024,1.261,1.2461,1.2352,1.2094,1.2013,1.2039,1.2122,1.2063,1.2538,1.4361,1.4787,1.5345,1.7248,1.7388,1.7388,1.7879,1.7739,1.7599,1.7599,1.7599,1.7458,1.7248,1.5769,1.4787,1.4787,1.4787,1.4787,1.4787,1.6263,1.7178,1.7178,1.9077,1.9982,1.9704,2.1803,2.2791,2.2516,2.2791,2.2928,2.2928,2.2928,2.2928,2.2928,2.2928,2.2928,2.2928,2.2928,2.2928,2.2928,2.2928,2.2928,2.2928,2.2928,2.2928,2.2928,2.2928,2.2928,2.2928,2.8221,2.8221,2.8221,2.8221,2.8221,2.8221,2.8221,2.8221,2.8221,2.8221,2.8221,2.8221,2.8221,2.8221,2.8221,2.8221,2.8221,2.8221,2.8221,2.5981,2.4206,2.3143,1.9617,1.7128,1.5926,1.4586,1.3763,1.3532,1.3444,1.3403,1.3403,1.3403,1.3403,1.3403,1.3403,1.3403,1.3403,1.3403,1.3403,1.3403,1.3403,1.3403,1.3403,1.3403,1.3403,1.3403,1.3403,1.3403,1.3403,1.3403,1.3403,1.3403,1.3403,1.3403,1.339,1.3322,1.3241,1.3125,1.2929,1.2691,1.2467,1.2338,1.2182,1.2047,1.1972,1.1843,1.1932,1.2696,1.2817,1.3381,1.5274,1.4787,1.4796,1.6826,1.6333,1.5628,1.5628,1.5628,1.5283,1.4227,1.4298,1.4432,1.4432,1.5345,1.5981,1.5981,1.6756,1.7669,1.8798,1.9634,2.0548,2.1596,2.2435,2.2928,2.2928,2.2928,2.2928,2.2928,2.2928,2.2928,2.2928,2.2928,2.2928,2.2928,2.2928,2.2928,2.2928,2.2928,2.2928,2.2928,2.2928,2.2928,2.2928,2.2928,2.2928,2.2928]}]]